     2.11           OBSERVATION DATA    G (GPS)             RINEX VERSION / TYPE
teqc 2010Oct21 OPUS Account 20111028 16:40:47UTC            PGM / RUN BY / DATE
K 1527                                                      MARKER NAME
3070                                                        MARKER NUMBER
CSMIDDLETON NGS                                             OBSERVER / AGENCY
4624K01615 TRIMBLE NETR5 4.41                               REC # / TYPE / VERS
12338145 TRM41249.00 NONE                                   ANT # / TYPE
  -726712.9374 -5589486.7252  2974960.4266                  APPROX POSITION XYZ
        2.0000        0.0000        0.0000                  ANTENNA: DELTA H/E/N
     1     1                                                WAVELENGTH FACT L1/2
     5    L1    L2    C1    P1    P2                        # / TYPES OF OBSERV
    15                                                      LEAP SECONDS
  2011     8    24     0     0    0.0000000     GPS         TIME OF FIRST OBS
                                                            END OF HEADER
 11  8 24  0  0  0.0000000  0  9G17G10G12G04G05G25G09G02G30
 121339547.16717  94550359.53816  23090146.398                    23090156.223
 109706636.76817  85485864.04556  20876455.938                    20876463.578
 113426014.69717  88383982.35817  21584250.820                    21584258.520
 113488944.90618  88433050.85855  21596203.289                    21596212.469
 116081932.88317  90453558.25117  22089641.820                    22089651.516
 127961816.51117  99710539.39917  24350325.148                    24350338.148
 123685086.40517  96378061.05054  23536495.445                    23536506.727
 108500190.97218  84545741.26956  20646869.281                    20646875.344
 127554931.14416  99393502.14353  24272901.469                    24272912.434
 11  8 24  0  0 30.0000000  0  9G17G10G12G04G05G25G09G02G30
 121389796.323 7  94589514.666 6  23099708.383                    23099718.090
 109703085.381 7  85483096.76146  20875779.977                    20875788.438
 113361411.017 7  88333641.878 7  21571956.883                    21571964.855
 113564315.225 8  88491780.96045  21610545.664                    21610554.809
 115990198.637 7  90382077.143 7  22072185.164                    22072194.758
 127860703.445 7  99631750.103 7  24331084.461                    24331096.652
 123760720.149 7  96436996.33144  23550887.813                    23550900.109
 108497780.351 7  84543862.88146  20646410.859                    20646416.895
 127451667.507 6  99313037.03943  24253250.234                    24253261.707
 11  8 24  0  1  0.0000000  0  9G17G10G12G04G05G25G09G02G30
 121440197.994 7  94628788.651 6  23109299.469                    23109309.031
 109700162.055 7  85480818.86846  20875223.453                    20875232.207
 113297212.246 7  88283616.908 7  21559740.430                    21559748.223
 113639833.064 8  88550626.00045  21624916.266                    21624924.996
 115898750.252 7  90310818.772 7  22054783.195                    22054792.723
 127759738.554 7  99553076.261 6  24311871.281                    24311883.289
 123836548.549 7  96496083.30344  23565317.438                    23565330.082
 108495662.527 7  84542212.65046  20646007.773                    20646013.551
 127348608.500 6  99232731.34543  24233639.336                    24233650.020
 11  8 24  0  1 30.0000000  0  9G17G10G12G04G05G25G09G02G30
 121490752.836 7  94668181.945 6  23118920.031                    23118929.098
 109697867.241 8  85479030.72046  20874786.781                    20874795.285
 113233420.414 7  88233909.030 7  21547601.172                    21547609.234
 113715496.045 8  88609584.14645  21639314.375                    21639323.609
 115807589.973 7  90239784.927 7  22037435.664                    22037445.133
 127658924.181 7  99474519.693 6  24292687.156                    24292699.180
 123912568.414 7  96555319.44844  23579784.336                    23579796.645
 108493836.243 8  84540789.60746  20645660.133                    20645666.027
 127245756.937 6  99152587.33743  24214066.938                    24214077.895
 11  8 24  0  2  0.0000000  0  9G17G10G12G04G05G25G09G02G30
 121541461.568 7  94707695.146 7  23128569.313                    23128579.453
 109696201.443 7  85477732.71146  20874469.961                    20874478.625
 113170037.918 7  88184520.123 7  21535540.211                    21535547.684
 113791302.732 8  88668654.25145  21653740.242                    21653749.313
 115716721.007 7  90168978.059 7  22020144.000                    22020153.301
 127558263.098 7  99396082.569 6  24273530.922                    24273543.719
 123988776.266 7  96614702.10943  23594285.695                    23594297.703
 108492300.777 8  84539593.17546  20645367.852                    20645373.621
 127143115.483 6  99072607.02543  24194535.594                    24194545.730
 11  8 24  0  2 30.0000000  0  9G17G10G12G04G05G25G09G02G30
 121592324.511 7  94747328.549 7  23138247.711                    23138258.945
 109695164.655 7  85476924.86346  20874272.320                    20874280.898
 113107067.650 7  88135452.419 7  21523557.039                    21523564.836
 113867250.678 8  88727834.43645  21668192.578                    21668201.871
 115626146.307 7  90098400.479 7  22002907.742                    22002917.801
 127457757.785 6  99317766.838 6  24254405.734                    24254418.277
 124065168.491 7  96674228.44544  23608823.000                    23608834.734
 108491054.612 8  84538622.17146  20645130.664                    20645136.707
 127040687.112 6  98992792.80043  24175043.805                    24175054.344
 11  8 24  0  3  0.0000000  0  9G17G10G12G04G05G25G09G02G30
 121643342.597 7  94787082.838 7  23147956.531                    23147966.855
 109694757.184 7  85476607.38246  20874194.953                    20874203.273
 113044511.394 7  88086707.318 7  21511653.039                    21511661.246
 113943337.828 8  88787123.09345  21682671.594                    21682680.133
 115535868.632 7  90028054.356 7  21985728.797                    21985739.004
 127357410.815 6  99239574.505 6  24235309.938                    24235322.336
 124141741.897 7  96733895.93244  23623394.547                    23623405.457
 108490096.790 8  84537875.83846  20644948.531                    20644954.625
 126938474.512 6  98913146.68743  24155593.695                    24155604.098
 11  8 24  0  3 30.0000000  0  9G17G10G12G04G05G25G09G02G30
 121694515.941 7  94826958.086 7  23157694.453                    23157705.410
 109694979.174 7  85476780.38846  20874237.148                    20874245.914
 112982371.505 7  88038286.661 7  21499828.078                    21499836.320
 114019562.363 8  88846518.81645  21697177.109                    21697185.453
 115445891.113 7  89957942.118 7  21968606.828                    21968616.543
 127257224.782 6  99161507.563 6  24216244.664                    24216257.418
 124218492.840 7  96793701.79144  23637999.602                    23638011.395
 108489426.096 7  84537353.24746  20644820.875                    20644827.316
 126836480.518 6  98833670.93343  24136184.016                    24136194.695
 11  8 24  0  4  0.0000000  0  9G17G10G12G04G05G25G09G02G30
 121745845.716 7  94866955.266 6  23167462.328                    23167472.660
 109695831.067 7  85477444.22946  20874399.000                    20874407.730
 112920650.967 7  87990192.773 7  21488083.008                    21488091.387
 114095922.056 8  88906019.85045  21711707.719                    21711716.551
 115356216.191 7  89888065.682 7  21951541.922                    21951551.105
 127157202.101 6  99083567.927 6  24197210.820                    24197223.297
 124295417.979 7  96853643.35844  23652638.227                    23652649.977
 108489041.178 7  84537053.33946  20644747.758                    20644753.180
 126734707.883 6  98754367.60643  24116817.656                    24116828.141
 11  8 24  0  4 30.0000000  0  9G17G10G12G04G05G25G09G02G30
 121797332.395 7  94907074.678 6  23177259.766                    23177270.402
 109697313.153 7  85478599.13646  20874681.469                    20874689.832
 112859351.692 8  87942427.136 7  21476418.344                    21476426.078
 114172415.015 8  88965624.72745  21726263.305                    21726272.570
 115266846.962 7  89818427.452 7  21934535.422                    21934544.996
 127057345.457 6  99005757.658 6  24178209.406                    24178221.316
 124372513.904 7  96913718.01544  23667309.219                    23667321.172
 108488941.111 7  84536975.40846  20644728.391                    20644734.113
 126633159.387 7  98675238.97543  24097493.289                    24097504.301
 11  8 24  0  5  0.0000000  0  9G17G10G12G04G05G25G09G02G30
 121848976.383 7  94947316.674 6  23187087.680                    23187097.059
 109699425.232 7  85480244.94846  20875083.461                    20875091.559
 112798475.754 7  87894991.358 7  21464833.672                    21464841.813
 114249038.983 8  89025331.66945  21740844.594                    21740853.367
 115177785.799 7  89749029.260 7  21917587.211                    21917597.227
 126957657.360 7  98928078.696 6  24159238.563                    24159251.035
 124449777.156 7  96973923.06044  23682012.398                    23682023.676
 108489124.391 7  84537118.25046  20644763.594                    20644769.309
 126531837.744 6  98596287.12843  24078212.766                    24078223.586
 11  8 24  0  5 30.0000000  0  9G17G10G12G04G05G25G09G02G30
 121900778.227 7  94987681.686 6  23196945.500                    23196955.145
 109702167.642 7  85482381.91046  20875605.172                    20875613.512
 112738025.838 7  87847887.560 7  21453330.352                    21453338.313
 114325792.328 8  89085139.44645  21755450.617                    21755459.141
 115089036.277 7  89679873.890 7  21900699.000                    21900708.625
 126858140.691 7  98850533.326 6  24140301.461                    24140313.691
 124527204.679 7  97034256.10144  23696745.789                    23696757.434
 108489590.448 7  84537481.45046  20644852.055                    20644858.238
 126430746.131 6  98517514.57343  24058975.156                    24058986.711
 11  8 24  0  6  0.0000000  0  9G17G10G12G04G05G25G09G02G30
 121952738.618 7  95028170.245 6  23206832.695                    23206842.676
 109705540.975 8  85485010.51146  20876246.672                    20876255.148
 112678004.518 7  87801117.727 7  21441909.109                    21441916.676
 114402673.249 8  89145046.61845  21770080.414                    21770089.406
 115000601.174 7  89610963.540 7  21883870.023                    21883879.098
 126758798.060 7  98773123.580 6  24121397.711                    24121409.621
 124604792.880 7  97094714.34044  23711511.031                    23711522.414
 108490338.005 7  84538063.98646  20644994.500                    20645000.195
 126329887.263 6  98438923.38543  24039782.453                    24039793.141
 11  8 24  0  6 30.0000000  0  9G17G10G12G04G05G25G09G02G30
 122004858.020 7  95068782.703 6  23216750.906                    23216760.910
 109709545.103 8  85488130.62746  20877009.109                    20877017.730
 112618413.734 7  87754683.362 7  21430569.070                    21430577.176
 114479679.558 8  89205051.50945  21784734.203                    21784743.734
 114912483.058 7  89542300.204 7  21867101.625                    21867110.836
 126659631.921 7  98695851.341 6  24102527.078                    24102538.648
 124682538.475 7  97155295.22344  23726304.836                    23726317.082
 108491365.798 8  84538864.89046  20645189.930                    20645195.746
 126229263.887 6  98360515.69743  24020635.000                    24020644.941
 11  8 24  0  7  0.0000000  0  9G17G10G12G04G05G25G09G02G30
 122057137.208 7  95109519.694 6  23226698.867                    23226709.309
 109714179.861 8  85491742.14646  20877890.594                    20877899.281
 112559255.651 8  87708586.174 7  21419311.664                    21419319.844
 114556809.072 7  89265152.41945  21799411.859                    21799420.480
 114824684.930 7  89473886.181 7  21850394.172                    21850403.188
 126560644.722 7  98618718.553 7  24083689.977                    24083702.121
 124760437.957 6  97215996.00444  23741128.922                    23741140.727
 108492672.503 8  84539883.12846  20645438.484                    20645444.082
 126128878.553 6  98282293.46743  24001531.688                    24001541.656
 11  8 24  0  7 30.0000000  0  9G17G10G12G04G05G25G09G02G30
 122109576.772 7  95150381.669 6  23236678.133                    23236687.871
 109719444.933 8  85495844.82746  20878893.109                    20878901.070
 112500532.811 8  87662828.134 7  21408137.102                    21408144.633
 114634059.984 7  89325347.91945  21814112.078                    21814121.125
 114737209.482 7  89405723.618 7  21833747.906                    21833757.895
 126461839.098 7  98541727.252 7  24064887.930                    24064900.215
 124838487.739 6  97276813.91344  23755980.984                    23755993.781
 108494256.834 8  84541117.69146  20645739.875                    20645746.207
 126028734.205 6  98204259.04043  23982474.969                    23982484.691
 11  8 24  0  8  0.0000000  0  9G17G10G12G04G05G25G09G02G30
 122162177.126 7  95191368.944 6  23246687.672                    23246697.801
 109725341.007 8  85500439.20446  20880014.766                    20880022.914
 112442247.824 8  87617411.274 7  21397045.406                    21397053.723
 114711430.546 7  89385636.65845  21828835.156                    21828844.168
 114650059.560 7  89337814.707 7  21817163.734                    21817173.664
 126363217.957 7  98464879.691 7  24046120.492                    24046133.090
 124916684.878 7  97337746.62444  23770861.648                    23770874.258
 108496117.884 8  84542567.88446  20646094.273                    20646099.770
 125928833.894 6  98126414.73343  23963464.188                    23963474.473
 11  8 24  0  8 30.0000000  0  9G17G10G12G04G05G25G09G02G30
 122214938.848 7  95232481.920 6  23256728.766                    23256738.371
 109731867.984 8  85505525.19646  20881256.539                    20881265.223
 112384402.516 8  87572337.026 7  21386037.867                    21386045.613
 114788918.645 7  89446016.97645  21843580.445                    21843589.516
 114563238.322 7  89270161.885 7  21800642.750                    21800651.973
 126264783.734 7  98388177.763 6  24027389.422                    24027401.387
 124995025.888 7  97398791.43144  23785769.945                    23785781.895
 108498254.572 8  84544232.85146  20646500.648                    20646507.035
 125829180.252 6  98048762.61842  23944501.266                    23944510.340
 11  8 24  0  9  0.0000000  0  9G17G10G12G04G05G25G09G02G30
 122267862.647 7  95273721.212 6  23266798.648                    23266809.738
 109739025.601 8  85511102.56946  20882618.734                    20882627.020
 112326999.421 8  87527607.332 7  21375114.977                    21375121.824
 114866522.662 8  89506487.64045  21858348.180                    21858357.441
 114476748.147 7  89202767.047 7  21784183.703                    21784193.086
 126166538.991 7  98311623.488 6  24008694.164                    24008705.652
 125073507.424 7  97459945.77143  23800704.367                    23800716.203
 108500665.359 8  84546111.39746  20646959.586                    20646965.305
 125729776.144 6  97971304.99142  23925584.102                    23925594.719
 11  8 24  0  9 30.0000000  0  9G17G10G12G04G05G25G09G02G30
 122320949.423 7  95315087.504 6  23276901.188                    23276911.102
 109746814.161 8  85517171.58246  20884100.500                    20884108.957
 112270041.148 8  87483224.268 7  21364275.938                    21364283.777
 114944240.738 8  89567047.17445  21873136.945                    21873146.242
 114390592.116 7  89135632.583 7  21767788.703                    21767797.676
 126068487.015 7  98235219.412 6  23990035.477                    23990046.734
 125152126.206 7  97521207.06743  23815665.070                    23815676.477
 108503350.014 8  84548203.35746  20647470.344                    20647476.453
 125630624.769 6  97894044.27042  23906716.375                    23906726.996
 11  8 24  0 10  0.0000000  0  9G17G10G12G04G05G25G09G02G30
 122374199.431 7  95356580.992 6  23287034.289                    23287044.469
 109755233.127 8  85523731.82246  20885702.766                    20885711.590
 112213529.430 8  87439189.184 7  21353522.359                    21353529.969
 115022070.846 7  89627693.99445  21887947.773                    21887957.445
 114304773.081 7  89068760.710 7  21751457.508                    21751466.578
 125970629.901 7  98158967.167 6  23971413.641                    23971425.441
 125230878.827 6  97582572.65443  23830651.070                    23830662.754
 108506306.806 7  84550507.36846  20648032.852                    20648038.598
 125531728.700 6  97816982.47242  23887896.789                    23887908.082
 11  8 24  0 10 30.0000000  0  9G17G10G12G04G05G25G09G02G30
 122427613.315 7  95398202.138 6  23297199.211                    23297209.344
 109764282.398 8  85530783.21146  20887425.211                    20887433.426
 112157466.933 8  87395504.136 7  21342853.938                    21342861.383
 115100011.023 7  89688426.57245  21902779.766                    21902788.434
 114219293.971 8  89002153.706 7  21735192.016                    21735200.523
 125872970.433 7  98082868.922 6  23952829.836                    23952841.250
 125309761.656 7  97644039.72943  23845661.969                    23845674.750
 108509534.733 8  84553022.65046  20648647.391                    20648653.070
 125433090.839 6  97740121.81743  23869127.000                    23869137.547
 11  8 24  0 11  0.0000000  0  9G17G10G12G04G05G25G09G02G30
 122481191.157 7  95439951.045 6  23307394.188                    23307404.977
 109773961.897 8  85538325.71846  20889267.141                    20889275.156
 112101855.200 8  87352170.329 7  21332271.398                    21332278.820
 115178059.276 7  89749243.38145  21917631.500                    21917640.418
 114134157.100 8  88935813.390 7  21718990.688                    21718999.457
 125775511.118 7  98006926.633 6  23934283.727                    23934295.016
 125388771.504 7  97705605.80143  23860697.289                    23860709.379
 108513032.087 7  84555747.87146  20649312.836                    20649318.555
 125334713.894 6  97663464.50843  23850406.320                    23850416.758
 11  8 24  0 11 30.0000000  0  9G17G10G12G04G05G25G09G02G30
 122534933.694 7  95481828.306 6  23317621.461                    23317631.676
 109784271.281 8  85546359.03146  20891228.531                    20891237.086
 112046696.649 8  87309189.665 7  21321775.188                    21321782.922
 115256213.796 8  89810142.99845  21932503.430                    21932512.582
 114049365.282 8  88869741.933 7  21702854.875                    21702864.293
 125678254.508 7  97931142.279 6  23915776.820                    23915787.629
 125467905.085 7  97767268.27543  23875755.969                    23875767.645
 108516797.794 8  84558682.20146  20650029.570                    20650035.570
 125236600.624 6  97587012.67543  23831735.820                    23831746.227
 11  8 24  0 12  0.0000000  0  9G17G10G12G04G05G25G09G02G30
 122588841.731 7  95523834.502 6  23327879.914                    23327889.129
 109795210.783 8  85554883.35546  20893310.273                    20893318.754
 111991994.095 8  87266564.301 7  21311365.617                    21311373.027
 115334472.913 7  89871124.11145  21947396.211                    21947405.406
 113964921.636 7  88803941.789 7  21686785.703                    21686794.926
 125581203.512 7  97855518.150 6  23897308.289                    23897319.910
 125547159.069 6  97829024.52743  23890837.578                    23890848.551
 108520830.962 8  84561824.95646  20650796.828                    20650802.855
 125138754.053 6  97510768.64043  23813116.758                    23813126.766
 11  8 24  0 12 30.0000000  0  9G17G10G12G04G05G25G09G02G30
 122642915.595 7  95565969.907 6  23338169.883                    23338179.855
 109806779.567 8  85563897.99946  20895511.586                    20895520.285
 111937748.530 8  87224295.065 7  21301042.813                    21301050.605
 115412834.284 7  89932184.90845  21962307.969                    21962316.695
 113880828.287 8  88738414.598 7  21670783.617                    21670792.367
 125484360.424 7  97780056.060 6  23878879.633                    23878891.629
 125626529.620 6  97890871.68543  23905940.547                    23905953.152
 108525129.772 8  84565174.70146  20651614.578                    20651620.617
 125041176.563 6  97434734.28143  23794548.086                    23794557.879
 11  8 24  0 13  0.0000000  0  9G17G10G12G04G05G25G09G02G30
 122697155.973 7  95608235.080 6  23348491.734                    23348501.340
 109818978.028 8  85573403.33246  20897832.852                    20897841.316
 111883963.201 8  87182384.447 7  21290808.141                    21290815.457
 115491296.811 7  89993324.52445  21977238.320                    21977247.480
 113797088.609 8  88673162.980 7  21654847.922                    21654857.086
 125387728.437 7  97704758.447 6  23860491.055                    23860502.910
 125706014.045 6  97952807.54143  23921066.711                    23921079.031
 108529694.150 7  84568731.36446  20652483.305                    20652489.449
 124943871.775 6  97358912.45043  23776032.086                    23776041.957
 11  8 24  0 13 30.0000000  0  9G17G10G12G04G05G25G09G02G30
 122751563.351 7  95650630.375 6  23358845.086                    23358854.578
 109831805.579 8  85583398.85546  20900273.875                    20900282.215
 111830639.980 8  87140833.911 7  21280660.617                    21280668.227
 115569858.362 7  90054541.30045  21992188.320                    21992197.688
 113713705.301 8  88608189.064 7  21638981.242                    21638989.820
 125291309.953 7  97629627.224 6  23842142.961                    23842154.961
 125785608.823 6  98014829.30943  23936212.820                    23936226.168
 108534522.264 8  84572493.53946  20653402.258                    20653408.289
 124846842.074 6  97283304.97243  23757567.266                    23757577.840
 11  8 24  0 14  0.0000000  0  9G17G10G12G04G05G25G09G02G30
 122806138.359 7  95693156.264 6  23369230.328                    23369239.625
 109845261.815 8  85593884.25346  20902834.648                    20902843.402
 111777780.937 7  87099645.078 7  21270601.727                    21270609.914
 115648517.066 8  90115833.76745  22007156.695                    22007165.941
 113630680.765 8  88543494.715 7  21623181.609                    21623190.844
 125195107.561 7  97554664.413 7  23823836.172                    23823848.500
 125865310.442 6  98076934.36343  23951380.008                    23951392.457
 108539612.792 8  84576460.20846  20654370.711                    20654376.547
 124750090.263 6  97207914.00343  23739156.555                    23739166.309
 11  8 24  0 14 30.0000000  0  9G17G10G12G04G05G25G09G02G30
 122860881.506 7  95735813.188 6  23379647.484                    23379657.648
 109859345.986 8  85604858.94846  20905515.141                    20905523.188
 111725388.299 8  87058819.680 7  21260631.813                    21260639.613
 115727270.932 7  90177200.37745  22022143.102                    22022152.195
 113548018.172 8  88479082.388 7  21607451.656                    21607461.129
 125099124.076 7  97479872.189 7  23805571.172                    23805583.426
 125945115.549 6  98139120.09143  23966566.367                    23966578.836
 108544964.762 8  84580630.58746  20655389.117                    20655394.473
 124653619.270 6  97132741.89843  23720797.930                    23720807.773
 11  8 24  0 15  0.0000000  0  9G17G10G12G04G05G25G09G02G30
 122915793.265 7  95778601.532 6  23390097.242                    23390107.156
 109874058.060 8  85616322.93346  20908314.117                    20908322.281
 111673463.946 7  87018359.186 7  21250751.000                    21250758.840
 115806118.419 7  90238639.93145  22037147.078                    22037156.391
 113465719.958 8  88414954.007 7  21591790.516                    21591799.133
 125003361.873 7  97405252.402 7  23787348.742                    23787360.848
 126025020.934 7  98201383.90844  23981772.477                    23981784.438
 108550576.734 7  84585003.58146  20656457.156                    20656462.770
 124557431.773 6  97057790.73043  23702494.289                    23702504.527
 11  8 24  0 15 30.0000000  0  9G17G10G12G04G05G25G09G02G30
 122970873.994 7  95821521.474 6  23400578.203                    23400588.813
 109889397.623 8  85628275.85146  20911233.211                    20911241.551
 111622010.351 8  86978265.524 7  21240959.797                    21240967.441
 115885057.777 7  90300151.09545  22052169.094                    22052177.945
 113383788.825 8  88351111.665 7  21576199.828                    21576208.211
 124907823.932 7  97330807.376 7  23769167.117                    23769180.152
 126105023.671 7  98263723.59144  23996996.453                    23997008.922
 108556447.837 7  84589578.48246  20657574.141                    20657580.059
 124461530.896 6  96983062.82343  23684244.781                    23684254.242
 11  8 24  0 16  0.0000000  0  9G17G10G12G04G05G25G09G02G30
 123026124.423 7  95864573.673 6  23411092.352                    23411103.066
 109905364.029 8  85640717.21446  20914271.547                    20914280.055
 111571029.515 8  86938540.237 7  21231258.273                    21231266.203
 115964086.998 7  90361732.26845  22067207.492                    22067216.918
 113302227.578 7  88287557.546 7  21560678.922                    21560687.793
 124812512.807 7  97256539.086 7  23751030.211                    23751042.711
 126185120.137 7  98326136.33144  24012238.258                    24012251.043
 108562576.742 8  84594354.27246  20658740.930                    20658746.922
 124365919.281 6  96908560.32243  23666051.047                    23666059.938
 11  8 24  0 16 30.0000000  0  9G17G10G12G04G05G25G09G02G30
 123081544.916 7  95907758.370 6  23421638.266                    23421648.867
 109921956.698 8  85653646.58646  20917428.789                    20917437.336
 111520523.403 8  86899184.872 7  21221646.813                    21221654.980
 116043204.405 7  90423382.14945  22082263.750                    22082271.949
 113221038.758 7  88224293.605 7  21545229.156                    21545238.367
 124717431.078 7  97182449.539 6  23732936.852                    23732949.156
 126265306.875 7  98388619.37444  24027497.398                    24027509.852
 108568962.241 8  84599329.99646  20659955.602                    20659961.402
 124270599.783 7  96834285.45143  23647912.156                    23647921.328
 11  8 24  0 17  0.0000000  0  9G17G10G12G04G05G25G09G02G30
 123137135.936 7  95951075.980 6  23432216.758                    23432227.387
 109939175.319 8  85667063.70146  20920705.711                    20920714.199
 111470494.272 8  86860201.172 7  21212126.539                    21212134.023
 116122408.378 7  90485099.49445  22097335.563                    22097344.973
 113140225.060 8  88161321.980 7  21529851.070                    21529860.035
 124622581.574 7  97108540.944 6  23714887.586                    23714899.785
 126345580.609 7  98451170.19044  24042773.070                    24042785.980
 108575603.006 8  84604504.63346  20661219.430                    20661224.906
 124175575.250 7  96760240.40443  23629829.500                    23629837.926
 11  8 24  0 17 30.0000000  0  9G17G10G12G04G05G25G09G02G30
 123192898.275 7  95994527.098 6  23442828.805                    23442838.695
 109957019.282 8  85680968.09646  20924101.188                    20924109.813
 111420943.847 8  86821590.461 7  21202697.742                    21202705.160
 116201696.842 7  90546882.66645  22112423.484                    22112432.656
 113059789.305 7  88098644.856 7  21514544.172                    21514552.602
 124527966.819 7  97034815.258 6  23696883.211                    23696894.824
 126425938.013 6  98513786.23044  24058064.516                    24058077.543
 108582498.065 8  84609877.43146  20662531.578                    20662536.922
 124080848.440 7  96686427.37343  23611803.633                    23611812.352
 11  8 24  0 18  0.0000000  0  9G17G10G12G04G05G25G09G02G30
 123248832.260 7  96038111.973 6  23453472.258                    23453482.371
 109975488.226 8  85695359.48746  20927615.578                    20927624.426
 111371874.205 8  86783354.420 7  21193360.289                    21193367.887
 116281068.233 7  90608730.46945  22127527.492                    22127536.559
 112979733.954 8  88036264.145 7  21499310.063                    21499318.949
 124433589.445 7  96961274.522 6  23678923.016                    23678935.090
 126506375.956 7  98576465.01544  24073371.266                    24073384.035
 108589646.017 8  84615447.28746  20663891.703                    20663897.254
 123986422.160 7  96612848.54243  23593834.781                    23593844.035
 11  8 24  0 18 30.0000000  0  9G17G10G12G04G05G25G09G02G30
 123304938.181 7  96081830.794 6  23464149.328                    23464159.418
 109994581.149 8  85710237.08246  20931249.031                    20931257.070
 111323287.408 8  86745494.607 7  21184114.227                    21184122.375
 116360520.860 7  90670641.56845  22142646.922                    22142656.938
 112900061.466 7  87974181.771 7  21484149.016                    21484157.863
 124339452.159 7  96887920.883 6  23661009.438                    23661021.207
 126586891.194 6  98639204.00444  24088693.164                    24088706.012
 108597045.530 8  84621213.16646  20665299.609                    20665305.508
 123892299.201 7  96539506.03244  23575924.641                    23575932.672
 11  8 24  0 19  0.0000000  0  9G17G10G12G04G05G25G09G02G30
 123361216.754 6  96125684.160 6  23474858.484                    23474868.863
 110014297.512 8  85725600.49246  20935000.977                    20935009.117
 111275185.567 8  86708012.678 7  21174960.836                    21174968.645
 116440052.907 7  90732614.56445  22157780.914                    22157790.512
 112820774.508 8  87912399.820 7  21469060.969                    21469070.137
 124245557.737 7  96814756.471 6  23643142.016                    23643153.781
 126667480.247 6  98702000.52344  24104028.523                    24104041.699
 108604695.421 8  84627174.13446  20666755.508                    20666760.738
 123798482.516 7  96466402.21044  23558071.555                    23558080.320
 11  8 24  0 19 30.0000000  0  9G17G10G12G04G05G25G09G02G30
 123417668.352 6  96169672.351 6  23485600.242                    23485611.555
 110034636.744 8  85741449.24946  20938871.273                    20938880.023
 111227570.735 8  86670910.243 7  21165900.086                    21165907.750
 116519662.754 7  90794648.16145  22172930.516                    22172939.676
 112741876.113 8  87850920.642 7  21454047.070                    21454055.719
 124151908.796 7  96741783.360 6  23625321.688                    23625333.059
 126748139.938 6  98764852.08443  24119377.250                    24119390.750
 108612594.689 8  84633329.41646  20668258.664                    20668264.391
 123704974.835 7  96393539.15444  23540276.984                    23540286.578
 11  8 24  0 20  0.0000000  0  9G17G10G12G04G05G25G09G02G30
 123474293.646 6  96213795.911 6  23496376.617                    23496387.043
 110055598.329 8  85757782.93746  20942860.039                    20942868.844
 111180444.854 8  86634188.794 7  21156932.227                    21156939.840
 116599348.878 7  90856741.19345  22188094.320                    22188103.336
 112663368.857 8  87789746.244 7  21439107.766                    21439116.309
 124058508.137 7  96669003.731 6  23607547.477                    23607559.480
 126828867.088 6  98827756.22743  24134740.047                    24134752.898
 108620742.216 8  84639678.16746  20669809.016                    20669814.637
 123611779.185 7  96320919.26144  23522542.719                    23522551.750
 11  8 24  0 20 30.0000000  0  9G17G10G12G04G05G25G09G02G30
 123531092.961 7  96258055.038 6  23507184.891                    23507195.918
 110077181.656 8  85774601.12246  20946967.086                    20946975.996
 111133809.986 8  86597849.949 7  21148057.859                    21148066.078
 116679109.478 7  90918892.27345  22203272.164                    22203281.051
 112585255.521 8  87728878.800 7  21424243.102                    21424251.656
 123965358.414 7  96596419.653 6  23589821.594                    23589833.391
 126909658.480 6  98890710.42143  24150113.406                    24150126.543
 108629136.753 8  84646219.40046  20671406.242                    20671411.945
 123518898.228 7  96248544.60344  23504867.570                    23504876.887
 11  8 24  0 21  0.0000000  0  9G17G10G12G04G05G25G09G02G30
 123588066.737 7  96302450.088 6  23518027.016                    23518037.434
 110099385.760 8  85791903.01746  20951192.328                    20951201.223
 111087667.620 8  86561894.886 7  21139277.328                    21139284.625
 116758942.972 7  90981100.17545  22218464.430                    22218472.512
 112507538.054 8  87668319.821 7  21409453.633                    21409462.922
 123872462.242 7  96524033.141 6  23572143.797                    23572155.727
 126990510.600 6  98953711.95343  24165499.320                    24165512.840
 108637776.974 8  84652952.05546  20673050.563                    20673056.133
 123426334.794 7  96176417.34444  23487253.609                    23487262.770
 11  8 24  0 21 30.0000000  0  9G17G10G12G04G05G25G09G02G30
 123645215.575 6  96346981.580 6  23528902.125                    23528912.148
 110122209.950 8  85809688.08946  20955536.055                    20955544.594
 111042020.425 8  86526325.653 7  21130591.234                    21130598.219
 116838847.564 7  91043363.45545  22233669.500                    22233678.453
 112430219.447 8  87608071.642 7  21394740.461                    21394749.281
 123779822.496 7  96451846.440 7  23554515.469                    23554527.168
 127071420.531 6  99016758.53443  24180896.586                    24180909.527
 108646662.026 8  84659875.49146  20674741.219                    20674746.730
 123334091.915 6  96104539.90444  23469699.539                    23469709.316
 11  8 24  0 22  0.0000000  0  9G17G10G12G04G05G25G09G02G30
 123702539.928 6  96391649.869 6  23539810.563                    23539820.906
 110145652.945 8  85827955.37046  20959997.227                    20960005.711
 110996869.794 8  86491143.357 7  21121999.023                    21122006.781
 116918821.500 7  91105680.75945  22248888.305                    22248897.129
 112353301.928 8  87548135.993 7  21380103.734                    21380112.531
 123687441.561 7  96379861.429 7  23536935.719                    23536947.656
 127152384.541 6  99079847.25743  24196303.156                    24196316.668
 108655790.083 8  84666988.27446  20676478.227                    20676484.188
 123242172.031 6  96032914.13444  23452207.969                    23452217.926
 11  8 24  0 22 30.0000000  0  9G17G10G12G04G05G25G09G02G30
 123760040.046 6  96436455.092 6  23550752.352                    23550763.004
 110169714.194 8  85846704.40346  20964576.047                    20964584.191
 110952217.574 8  86456349.435 7  21113501.938                    21113509.355
 116998863.087 7  91168050.79345  22264119.922                    22264128.410
 112276788.138 8  87488514.942 7  21365543.375                    21365551.992
 123595322.029 7  96308080.108 7  23519406.055                    23519417.836
 127233399.519 6  99142975.68743  24211720.352                    24211732.848
 108665159.775 8  84674289.35546  20678261.422                    20678266.934
 123150577.846 7  95961542.15844  23434777.922                    23434787.613
 11  8 24  0 23  0.0000000  0  9G17G10G12G04G05G25G09G02G30
 123817716.334 6  96481397.644 6  23561728.109                    23561738.012
 110194393.135 8  85865934.76346  20969272.219                    20969281.039
 110908065.822 7  86421945.491 7  21105099.898                    21105108.031
 117078970.886 7  91230472.44245  22279363.500                    22279372.676
 112200680.871 8  87429210.660 7  21351060.766                    21351069.406
 123503466.782 7  96236504.712 7  23501926.156                    23501938.047
 127314462.602 6  99206141.62243  24227146.289                    24227159.078
 108674770.363 8  84681778.15046  20680089.789                    20680095.563
 123059312.423 7  95890426.35544  23417411.109                    23417420.359
 11  8 24  0 23 30.0000000  0  9G17G10G12G04G05G25G09G02G30
 123875569.291 6  96526477.830 6  23572738.078                    23572748.180
 110219688.716 8  85885645.60746  20974085.844                    20974094.082
 110864416.714 8  86387933.220 7  21096794.258                    21096801.621
 117159143.168 7  91292944.32845  22294619.852                    22294629.316
 112124982.811 8  87370225.250 7  21336655.922                    21336664.609
 123411878.600 7  96165137.423 7  23484498.203                    23484509.715
 127395570.405 6  99269342.42943  24242581.117                    24242593.504
 108684620.709 8  84689453.76646  20681964.352                    20681970.277
 122968378.667 7  95819569.00444  23400106.797                    23400115.930
 11  8 24  0 24  0.0000000  0  9G17G10G12G04G05G25G09G02G30
 123933599.539 6  96571696.172 6  23583779.789                    23583790.313
 110245600.061 8  85905836.27246  20979016.523                    20979024.582
 110821271.934 8  86354313.921 7  21088583.844                    21088591.512
 117239378.462 7  91355465.30745  22309887.930                    22309897.223
 112049696.162 8  87311560.392 7  21322328.977                    21322337.543
 123320560.154 7  96093980.293 7  23467120.148                    23467131.832
 127476719.519 6  99332575.41043  24258022.953                    24258035.754
 108694709.687 8  84697315.32246  20683884.414                    20683890.109
 122877779.384 7  95748972.29144  23382866.672                    23382875.379
 11  8 24  0 24 30.0000000  0  9G17G10G12G04G05G25G09G02G30
 123991807.152 6  96617052.692 6  23594857.273                    23594866.336
 110272125.809 8  85926505.70746  20984063.969                    20984072.414
 110778632.651 8  86321088.529 7  21080469.852                    21080477.328
 117319675.013 7  91418034.04345  22325168.023                    22325177.039
 111974823.325 8  87253218.007 7  21308081.102                    21308089.555
 123229513.689 7  96023035.080 6  23449794.594                    23449805.699
 127557906.733 6  99395838.06043  24273472.602                    24273484.707
 108705035.368 8  84705361.32046  20685849.250                    20685854.781
 122787516.920 6  95678638.03744  23365689.469                    23365698.859
 11  8 24  0 25  0.0000000  0  9G17G10G12G04G05G25G09G02G30
 124050192.888 6  96662548.055 6  23605967.063                    23605977.352
 110299265.492 8  85947653.54246  20989228.594                    20989236.777
 110736501.247 8  86288258.903 7  21072452.328                    21072460.207
 117400031.143 7  91480649.19445  22340459.391                    22340468.156
 111900366.851 8  87195200.070 7  21293912.453                    21293920.816
 123138742.254 7  95952304.167 7  23432521.289                    23432532.324
 127639128.922 6  99459127.96543  24288927.977                    24288941.199
 108715596.937 8  84713591.11646  20687859.313                    20687864.832
 122697594.310 6  95608568.58743  23348578.211                    23348586.676
 11  8 24  0 25 30.0000000  0  9G17G10G12G04G05G25G09G02G30
 124108757.052 6  96708182.415 6  23617111.742                    23617122.109
 110327017.979 8  85969278.90046  20994509.797                    20994517.797
 110694879.552 7  86255826.416 7  21064532.500                    21064539.395
 117480445.403 7  91543309.64444  22355761.625                    22355770.531
 111826329.503 7  87137508.711 7  21279823.383                    21279832.379
 123048248.372 7  95881789.512 6  23415301.328                    23415312.270
 127720382.963 6  99522442.68543  24304390.625                    24304403.383
 108726393.117 8  84722003.72846  20689913.703                    20689919.348
 122608014.366 6  95538766.13043  23331531.273                    23331539.973
 11  8 24  0 26  0.0000000  0  9G17G10G12G04G05G25G09G02G30
 124167500.244 7  96753956.294 6  23628290.336                    23628300.340
 110355382.161 7  85991380.89745  20999906.805                    20999915.160
 110653769.559 8  86223792.674 7  21056709.063                    21056716.555
 117560916.350 7  91606014.25945  22371075.219                    22371084.523
 111752713.623 7  87080145.766 7  21265814.727                    21265823.641
 122958034.979 7  95811493.399 6  23398133.063                    23398144.688
 127801665.619 6  99585779.68643  24319858.055                    24319872.094
 108737423.248 8  84730598.64446  20692012.586                    20692018.277
 122518779.997 6  95469232.98943  23314550.281                    23314559.145
 11  8 24  0 26 30.0000000  0  9G17G10G12G04G05G25G09G02G30
 124226422.806 7  96799869.950 6  23639502.852                    23639512.949
 110384357.496 8  86013959.10746  21005420.883                    21005429.180
 110613172.699 8  86192158.798 7  21048983.688                    21048991.480
 117641442.414 7  91668761.83045  22386398.078                    22386407.551
 111679521.572 8  87023113.064 7  21251886.938                    21251895.469
 122868104.697 7  95741417.887 6  23381020.023                    23381031.820
 127882973.695 6  99649136.48543  24335330.742                    24335344.102
 108748685.834 8  84739374.69246  20694155.672                    20694161.219
 122429893.944 6  95399971.20743  23297636.180                    23297645.234
 11  8 24  0 27  0.0000000  0  9G17G10G12G04G05G25G09G02G30
 124285524.935 6  96845923.491 6  23650750.047                    23650760.180
 110413942.296 8  86037012.22546  21011050.656                    21011059.137
 110573090.610 8  86160926.026 7  21041356.320                    21041364.055
 117722021.849 7  91731550.98345  22401732.469                    22401741.805
 111606755.690 8  86966412.473 7  21238039.813                    21238048.246
 122778459.992 7  95671564.888 6  23363961.945                    23363973.469
 127964304.035 6  99712510.66643  24350807.164                    24350820.598
 108760179.219 8  84748330.57546  20696343.070                    20696348.258
 122341358.780 6  95330982.85243  23280788.250                    23280796.789
 11  8 24  0 27 30.0000000  0  9G17G10G12G04G05G25G09G02G30
 124344807.316 7  96892117.472 6  23662030.563                    23662040.668
 110444135.407 8  86060539.33746  21016796.477                    21016804.766
 110533525.591 8  86130096.168 7  21033827.469                    21033834.387
 117802652.979 7  91794380.41645  22417076.352                    22417084.633
 111534418.283 8  86910045.739 7  21224274.758                    21224282.996
 122689103.543 7  95601936.478 6  23346957.430                    23346968.758
 128045653.560 6  99775899.77243  24366288.297                    24366301.141
 108771902.549 8  84757465.64146  20698573.727                    20698579.367
 122253177.292 6  95262270.09144  23264007.281                    23264017.195
 11  8 24  0 28  0.0000000  0  9G17G10G12G04G05G25G09G02G30
 124404269.900 6  96938451.895 6  23673345.625                    23673356.742
 110474935.979 8  86084539.81546  21022657.766                    21022665.961
 110494478.800 8  86099670.128 7  21026396.961                    21026404.309
 117883334.597 7  91857249.21745  22432429.000                    22432438.426
 111462512.179 8  86854015.086 7  21210591.094                    21210599.855
 122600038.193 7  95532534.904 7  23330009.344                    23330020.625
 128127018.920 6  99839301.20943  24381771.281                    24381784.879
 108783854.564 8  84766778.89746  20700848.070                    20700853.473
 122165352.336 6  95193835.13444  23247295.344                    23247304.797
 11  8 24  0 28 30.0000000  0  9G17G10G12G04G05G25G09G02G30
 124463913.264 6  96984927.145 6  23684695.125                    23684706.383
 110506342.749 7  86109012.65346  21028633.727                    21028642.109
 110455952.049 8  86069649.310 7  21019065.273                    21019072.832
 117964065.057 7  91920156.05145  22447790.945                    22447800.613
 111391039.591 8  86798322.239 7  21196990.398                    21196999.063
 122511266.451 7  95463362.082 6  23313116.688                    23313127.996
 128208396.804 6  99902712.39843  24397257.609                    24397270.422
 108796033.982 8  84776269.35246  20703165.781                    20703171.023
 122077886.544 7  95125680.01644  23230650.617                    23230660.609
 11  8 24  0 29  0.0000000  0  9G17G10G12G04G05G25G09G02G30
 124523737.540 6  97031543.379 6  23696079.109                    23696090.914
 110538354.700 7  86133957.04546  21034725.820                    21034733.902
 110417947.151 8  86040035.132 7  21011833.133                    21011841.391
 118044842.948 7  91983099.83944  22463163.031                    22463171.953
 111320003.541 8  86742969.547 7  21183472.680                    21183481.238
 122422791.239 7  95394420.334 6  23296280.234                    23296291.090
 128289784.327 6  99966131.10643  24412745.125                    24412758.160
 108808439.750 8  84785936.17646  20705526.516                    20705532.082
 121990782.780 7  95057806.98844  23214075.445                    23214085.324
 11  8 24  0 29 30.0000000  0  9G17G10G12G04G05G25G09G02G30
 124583743.414 6  97078301.111 6  23707498.352                    23707509.262
 110570970.055 8  86159371.63046  21040932.063                    21040940.395
 110380465.388 8  86010828.597 7  21004701.000                    21004708.402
 118125666.441 7  92046079.18344  22478543.500                    22478552.230
 111249405.085 8  86687957.832 7  21170037.906                    21170046.500
 122334614.841 7  95325711.423 6  23279501.148                    23279512.234
 128371178.137 6 100029554.71543  24428233.219                    24428246.875
 108821070.223 8  84795778.09746  20707929.953                    20707935.781
 121904043.535 7  94990217.95944  23197569.836                    23197579.270
 11  8 24  0 30  0.0000000  0  9G17G10G12G04G05G25G09G02G30
 124643931.137 6  97125200.545 6  23718951.430                    23718962.891
 110604188.097 8  86185255.84146  21047252.844                    21047261.344
 110343508.661 8  85982031.162 7  20997668.406                    20997675.609
 118206534.168 7  92109092.98244  22493931.656                    22493940.969
 111179247.398 8  86633289.593 7  21156687.703                    21156695.828
 122246740.166 7  95257237.649 7  23262779.023                    23262790.109
 128452575.315 6 100092980.94043  24443722.688                    24443736.293
 108833924.603 8  84805794.49946  20710376.164                    20710381.570
 121817671.769 7  94922915.27844  23181133.906                    23181142.680
 11  8 24  0 30 30.0000000  0  9G17G10G12G04G05G25G09G02G30
 124704301.030 6  97172241.945 6  23730440.023                    23730450.273
 110638007.558 8  86211608.67446  21053688.828                    21053697.344
 110307078.481 8  85953644.025 7  20990735.875                    20990743.680
 118287444.724 7  92172140.16244  22509328.398                    22509337.703
 111109532.301 8  86578966.214 7  21143420.844                    21143429.477
 122159169.762 7  95189001.002 7  23246114.695                    23246126.625
 128533972.673 6 100156407.29943  24459212.539                    24459225.996
 108847001.391 8  84815984.20346  20712864.695                    20712869.863
 121731670.064 7  94855900.95044  23164768.609                    23164777.426
 11  8 24  0 31  0.0000000  0  9G17G10G12G04G05G25G09G02G30
 124764853.394 6  97219425.542 6  23741962.328                    23741974.219
 110672427.157 8  86238429.16146  21060238.430                    21060247.199
 110271176.290 8  85925668.322 7  20983904.031                    20983911.676
 118368396.519 7  92235219.44444  22524733.711                    22524742.555
 111040262.439 8  86524989.754 7  21130239.656                    21130247.855
 122071906.275 7  95121003.534 7  23229509.547                    23229520.637
 128615367.167 6 100219831.45243  24474701.289                    24474714.785
 108860299.487 8  84826346.34846  20715395.359                    20715400.523
 121646041.171 7  94789177.13544  23148473.438                    23148482.582
 11  8 24  0 31 30.0000000  0  9G17G10G12G04G05G25G09G02G30
 124825589.030 6  97266751.947 6  23753520.445                    23753531.707
 110707445.547 8  86265716.22446  21066902.188                    21066910.711
 110235804.131 8  85898105.617 7  20977172.906                    20977180.133
 118449388.244 7  92298329.86444  22540145.125                    22540154.680
 110971440.188 8  86471362.097 7  21117143.094                    21117151.484
 121984952.646 7  95053247.517 6  23212961.898                    23212973.402
 128696755.351 6 100283250.69543  24490189.578                    24490202.934
 108873817.952 8  84836880.21246  20717967.477                    20717973.066
 121560787.919 7  94722746.01744  23132250.570                    23132259.711
 11  8 24  0 32  0.0000000  0  9G17G10G12G04G05G25G09G02G30
 124886508.020 6  97314221.239 6  23765112.195                    23765124.293
 110743060.974 8  86293468.50946  21073679.922                    21073687.809
 110200963.376 8  85870956.994 7  20970542.867                    20970550.047
 118530418.077 7  92361469.97544  22555564.430                    22555574.648
 110903067.610 8  86418084.850 7  21104131.586                    21104139.891
 121898311.184 7  94985734.764 7  23196474.953                    23196485.883
 128778134.353 6 100346662.78443  24505675.586                    24505688.809
 108887555.084 8  84847584.46446  20720581.766                    20720587.352
 121475912.901 7  94656609.65044  23116099.172                    23116108.422
 11  8 24  0 32 30.0000000  0  9G17G10G12G04G05G25G09G02G30
 124947610.343 6  97361833.342 6  23776740.164                    23776751.445
 110779272.595 8  86321685.37746  21080570.586                    21080578.727
 110166655.582 8  85844223.656 7  20964014.281                    20964021.566
 118611485.282 7  92424639.17644  22570991.516                    22571001.121
 110835147.410 8  86365160.081 7  21091207.172                    21091215.266
 121811984.837 7  94918467.571 7  23180047.070                    23180058.793
 128859501.087 6 100410065.32343  24521158.383                    24521172.238
 108901510.055 8  84858458.44546  20723237.297                    20723243.223
 121391419.117 7  94590770.38144  23100020.016                    23100029.277
 11  8 24  0 33  0.0000000  0  9G17G10G12G04G05G25G09G02G30
 125008896.563 6  97409588.768 6  23788403.477                    23788413.367
 110816078.986 8  86350365.70346  21087574.750                    21087582.809
 110132882.099 8  85817906.673 7  20957587.617                    20957594.906
 118692588.125 7  92487836.14844  22586424.820                    22586434.688
 110767681.737 8  86312589.483 7  21078368.836                    21078377.254
 121725976.094 7  94851447.874 6  23163680.656                    23163691.723
 128940852.648 6 100473456.04843  24536640.000                    24536653.477
 108915681.716 8  84869501.30246  20725934.109                    20725940.344
 121307309.080 6  94525230.13043  23084014.211                    23084023.297
 11  8 24  0 33 30.0000000  0  9G17G10G12G04G05G25G09G02G30
 125070367.160 6  97457487.900 6  23800099.570                    23800111.453
 110853478.489 8  86379508.18746  21094691.664                    21094699.660
 110099644.411 8  85792007.189 7  20951262.563                    20951269.879
 118773724.976 7  92551059.62944  22601864.688                    22601873.961
 110700673.004 8  86260374.948 7  21065617.422                    21065625.836
 121640287.541 7  94784677.673 7  23147374.516                    23147385.617
 129022185.592 6 100536832.24843  24552117.422                    24552130.875
 108930068.539 8  84880711.80346  20728671.836                    20728677.293
 121223585.341 6  94459990.91643  23068082.102                    23068091.176
 11  8 24  0 34  0.0000000  0  9G17G10G12G04G05G25G09G02G30
 125132022.403 6  97505530.883 6  23811832.906                    23811844.188
 110891469.862 8  86409111.87946  21101920.828                    21101929.141
 110066944.747 8  85766526.946 7  20945039.859                    20945047.125
 118854894.603 7  92614308.62944  22617310.945                    22617320.270
 110634122.946 8  86208517.835 7  21052953.023                    21052961.145
 121554921.950 7  94718159.118 7  23131129.625                    23131141.145
 129103497.254 6 100600191.89143  24567590.047                    24567603.496
 108944669.529 8  84892089.19346  20731450.258                    20731455.887
 121140250.816 6  94395054.97643  23052224.359                    23052233.535
 11  8 24  0 34 30.0000000  0  9G17G10G12G04G05G25G09G02G30
 125193862.507 6  97553717.950 6  23823601.250                    23823611.492
 110930051.603 8  86439175.57945  21109262.555                    21109270.980
 110034783.702 8  85741466.395 7  20938919.906                    20938927.344
 118936095.467 7  92677581.98044  22632763.070                    22632772.352
 110568033.775 8  86157019.842 7  21040376.570                    21040385.148
 121469881.843 7  94651894.182 7  23114947.414                    23114958.500
 129184784.127 6 100663532.26443  24583058.273                    24583072.063
 108959483.429 8  84903632.48646  20734269.344                    20734274.977
 121057308.082 7  94330424.32044  23036441.273                    23036449.910
 11  8 24  0 35  0.0000000  0  9G17G10G12G04G05G25G09G02G30
 125255887.507 6  97602049.062 6  23835404.273                    23835414.645
 110969222.127 8  86469698.07545  21116716.656                    21116724.938
 110003162.326 8  85716826.360 7  20932902.156                    20932909.926
 119017326.334 7  92740878.72644  22648221.336                    22648230.559
 110502407.682 8  86105882.695 8  21027888.750                    21027896.633
 121385169.745 7  94585884.843 7  23098826.797                    23098838.184
 129266043.105 6 100726850.88243  24598521.922                    24598535.113
 108974508.965 8  84915340.68846  20737128.602                    20737134.176
 120974759.642 7  94266100.92844  23020732.531                    23020741.898
 11  8 24  0 35 30.0000000  0  9G17G10G12G04G05G25G09G02G30
 125318097.915 7  97650524.656 6  23847242.328                    23847253.441
 111008980.165 8  86500678.37546  21124282.438                    21124290.734
 109972083.216 8  85692608.874 7  20926988.656                    20926995.938
 119098585.971 7  92804197.86544  22663683.750                    22663692.973
 110437247.345 8  86055108.468 7  21015489.023                    21015497.422
 121300788.600 7  94520133.375 7  23082769.484                    23082780.699
 129347271.478 6 100790145.63543  24613977.992                    24613992.328
 108989745.199 8  84927213.07446  20740027.875                    20740033.500
 120892608.447 7  94202087.09444  23005099.391                    23005108.738
 11  8 24  0 36  0.0000000  0  9G17G10G12G04G05G25G09G02G30
 125380493.983 6  97699144.883 6  23859115.836                    23859126.648
 111049323.571 8  86532114.79745  21131959.758                    21131967.672
 109941546.851 8  85668814.317 7  20921177.031                    20921184.871
 119179872.612 7  92867538.03744  22679151.719                    22679161.480
 110372554.652 8  86004698.647 7  21003177.727                    21003186.355
 121216740.705 7  94454641.580 7  23066775.813                    23066787.105
 129428466.194 6 100853414.13043  24629429.477                    24629443.051
 109005190.699 8  84939248.52846  20742967.078                    20742973.070
 120810856.830 7  94138384.58244  22989543.000                    22989551.480
 11  8 24  0 36 30.0000000  0  9G17G10G12G04G05G25G09G02G30
 125443076.211 6  97747910.220 5  23871024.836                    23871035.059
 111090251.190 8  86564006.46546  21139747.883                    21139755.859
 109911555.323 8  85645444.311 7  20915470.398                    20915477.586
 119261185.084 7  92930898.35844  22694625.617                    22694634.781
 110308331.754 8  85954654.898 7  20990957.133                    20990965.453
 121133028.780 7  94389411.579 7  23050846.023                    23050857.523
 129509624.146 6 100916654.00843  24644873.516                    24644887.285
 109020844.284 8  84951446.13246  20745945.703                    20745951.590
 120729507.471 7  94074995.53044  22974062.672                    22974071.398
 11  8 24  0 37  0.0000000  0  9G17G10G12G04G05G25G09G02G30
 125505844.642 6  97796820.636 6  23882969.289                    23882979.121
 111131761.504 8  86596352.16945  21147646.945                    21147655.754
 109882109.238 8  85622499.315 7  20909866.875                    20909873.816
 119342522.039 7  92994277.75144  22710103.656                    22710113.441
 110244580.598 8  85904978.737 7  20978825.594                    20978833.582
 121049655.442 7  94324445.406 7  23034980.563                    23034991.703
 129590741.981 6 100979862.61643  24660309.852                    24660323.516
 109036704.654 8  84963804.87546  20748963.992                    20748969.828
 120648563.161 7  94011922.09944  22958659.383                    22958668.445
 11  8 24  0 37 30.0000000  0  9G17G10G12G04G05G25G09G02G30
 125568799.732 6  97845876.448 6  23894950.055                    23894959.762
 111173853.103 7  86629150.82246  21155656.422                    21155665.023
 109853210.532 8  85599980.863 7  20904367.516                    20904375.063
 119423882.475 7  93057675.43544  22725585.945                    22725595.883
 110181303.515 8  85855671.988 7  20966784.453                    20966792.535
 120966623.383 7  94259745.160 7  23019179.773                    23019190.727
 129671817.033 6 101043037.89143  24675738.539                    24675751.734
 109052771.067 8  84976324.16946  20752021.227                    20752027.105
 120568026.522 7  93949166.35244  22943333.313                    22943342.891
 11  8 24  0 38  0.0000000  0  9G17G10G12G04G05G25G09G02G30
 125631941.563 7  97895077.800 6  23906965.250                    23906975.535
 111216524.143 8  86662400.99845  21163777.055                    21163785.035
 109824860.295 8  85577889.786 7  20898972.719                    20898980.234
 119505264.804 7  93121090.18544  22741072.867                    22741082.180
 110118502.563 8  85806736.254 7  20954833.586                    20954841.543
 120883935.198 7  94195312.863 7  23003444.617                    23003455.496
 129752846.438 6 101106177.58843  24691157.938                    24691171.953
 109069042.136 8  84989002.93946  20755117.320                    20755123.156
 120487900.155 7  93886730.29744  22928085.086                    22928095.035
 11  8 24  0 38 30.0000000  0  9G17G10G12G04G05G25G09G02G30
 125695270.457 6  97944424.924 6  23919016.445                    23919026.980
 111259773.148 8  86696101.53146  21172006.641                    21172015.148
 109797060.248 8  85556227.431 7  20893682.414                    20893689.938
 119586667.700 7  93184520.97444  22756563.719                    22756572.445
 110056179.971 8  85758173.248 8  20942973.734                    20942982.520
 120801593.637 7  94131150.647 7  22987775.336                    22987786.355
 129833827.014 6 101169279.24943  24706568.781                    24706581.855
 109085516.748 8  85001840.32246  20758252.602                    20758258.258
 120408186.815 7  93824616.05444  22912916.875                    22912925.875
 11  8 24  0 39  0.0000000  0  9G17G10G12G04G05G25G09G02G30
 125758786.591 6  97993917.956 6  23931102.172                    23931113.523
 111303598.006 7  86730250.77346  21180346.477                    21180354.668
 109769811.237 8  85534994.444 7  20888497.266                    20888504.594
 119668089.936 7  93247966.83644  22772056.859                    22772066.738
 109994337.648 8  85709984.485 7  20931205.688                    20931214.160
 120719601.103 7  94067260.376 6  22972173.063                    22972183.711
 129914755.784 6 101232340.52843  24721968.594                    24721982.480
 109102193.597 8  85014835.28546  20761425.914                    20761431.551
 120328888.916 6  93762825.54344  22897826.602                    22897835.918
 11  8 24  0 39 30.0000000  0  9G17G10G12G04G05G25G09G02G30
 125822490.301 6  98043557.146 6  23943224.906                    23943236.309
 111347997.244 8  86764847.58645  21188795.336                    21188803.590
 109743114.382 8  85514191.706 7  20883416.992                    20883424.023
 119749529.970 7  93311426.55044  22787554.734                    22787564.457
 109932977.559 8  85662171.492 7  20919529.539                    20919537.219
 120637960.065 7  94003643.987 7  22956636.813                    22956647.789
 129995629.724 6 101295359.06743  24737357.914                    24737372.402
 109119071.397 8  85027986.83646  20764637.734                    20764642.914
 120250008.846 6  93701360.63044  22882816.289                    22882825.840
 11  8 24  0 40  0.0000000  0  9G17G10G12G04G05G25G09G02G30
 125886381.479 6  98093342.383 6  23955383.188                    23955394.367
 111392969.028 7  86799890.52945  21197352.844                    21197361.227
 109716970.814 8  85493820.109 7  20878442.133                    20878449.516
 119830986.495 7  93374899.13344  22803055.672                    22803064.859
 109872101.661 8  85614735.794 7  20907944.781                    20907952.836
 120556673.071 7  93940303.488 7  22941168.695                    22941179.832
 130076445.946 6 101358332.65043  24752737.914                    24752751.254
 109136148.656 8  85041293.82646  20767887.219                    20767893.000
 120171549.221 7  93640223.32744  22867886.031                    22867895.414
 11  8 24  0 40 30.0000000  0  9G17G10G12G04G05G25G09G02G30
 125950460.624 6  98143274.134 6  23967577.680                    23967587.730
 111438511.865 7  86835378.45646  21206019.719                    21206027.828
 109691381.885 8  85473880.717 7  20873572.438                    20873580.043
 119912458.589 7  93438383.85544  22818559.219                    22818568.750
 109811712.378 8  85567679.262 8  20896452.922                    20896461.359
 120475742.866 7  93877241.010 7  22925768.344                    22925779.438
 130157201.273 6 101421258.78343  24768104.500                    24768118.363
 109153424.484 8  85054755.54046  20771174.813                    20771180.520
 120093512.710 7  93579415.71644  22853035.938                    22853045.426
 11  8 24  0 41  0.0000000  0  9G17G10G12G04G05G25G09G02G30
 126014727.988 6  98193352.525 6  23979807.102                    23979818.746
 111484623.886 8  86871309.90246  21214794.859                    21214803.055
 109666349.289 8  85454374.803 7  20868809.141                    20868816.273
 119993944.860 7  93501879.63444  22834065.547                    22834074.453
 109751811.338 8  85521003.182 8  20885054.344                    20885062.863
 120395172.064 7  93814458.583 6  22910436.086                    22910446.586
 130237893.125 6 101484135.42243  24783459.281                    24783473.277
 109170897.987 8  85068371.28346  20774499.594                    20774505.730
 120015901.947 7  93518939.82944  22838267.555                    22838276.512
 11  8 24  0 41 30.0000000  0  9G17G10G12G04G05G25G09G02G30
 126079183.619 6  98243577.617 6  23992071.664                    23992084.488
 111531303.018 8  86907683.25646  21223676.969                    21223685.152
 109641873.203 8  85435302.548 7  20864151.086                    20864158.852
 120075443.796 7  93565385.30944  22849574.328                    22849583.152
 109692399.850 8  85474708.577 7  20873748.750                    20873756.992
 120314963.053 7  93751958.075 7  22895173.008                    22895183.707
 130318518.069 6 101546959.97943  24798801.563                    24798816.051
 109188567.847 8  85082140.02246  20777862.281                    20777868.125
 119938719.324 7  93458797.57244  22823580.508                    22823589.121
 11  8 24  0 42  0.0000000  0  9G17G10G12G04G05G25G09G02G30
 126143827.783 6  98293949.616 6  24004373.672                    24004386.137
 111578547.916 8  86944497.46145  21232667.633                    21232675.617
 109617955.626 8  85416665.490 7  20859599.914                    20859607.082
 120156954.676 7  93628900.22844  22865085.430                    22865094.996
 109633480.948 8  85428797.791 7  20862536.664                    20862544.500
 120235118.715 7  93689741.740 7  22879978.711                    22879990.125
 130399073.523 6 101609730.31343  24814130.914                    24814145.508
 109206432.963 8  85096060.91046  20781261.883                    20781267.355
 119861967.618 7  93398991.10044  22808974.578                    22808984.086
 11  8 24  0 42 30.0000000  0  9G17G10G12G04G05G25G09G02G30
 126208660.565 6  98344468.613 6  24016710.484                    24016722.859
 111626356.674 8  86981751.05046  21241764.938                    21241773.141
 109594597.300 8  85398464.213 7  20855155.000                    20855162.652
 120238475.987 7  93692423.29344  22880598.195                    22880607.477
 109575056.344 8  85383272.180 7  20851418.641                    20851426.617
 120155641.400 7  93627811.422 7  22864855.211                    22864865.750
 130479556.508 6 101672444.21443  24829446.859                    24829460.922
 109224491.960 8  85110132.87646  20784698.328                    20784703.797
 119785649.168 7  93339522.23044  22794451.289                    22794460.914
 11  8 24  0 43  0.0000000  0  9G17G10G12G04G05G25G09G02G30
 126273682.279 6  98395134.802 6  24029084.430                    24029095.320
 111674727.267 8  87019442.41145  21250969.586                    21250978.105
 109571799.303 8  85380699.550 7  20850816.711                    20850824.277
 120320006.393 7  93755953.48044  22896112.898                    22896122.094
 109517127.696 8  85338133.029 7  20840395.344                    20840403.266
 120076533.663 7  93566169.075 7  22849801.406                    22849811.805
 130559964.162 6 101735099.42543  24844747.813                    24844761.844
 109242743.846 8  85124355.14746  20788171.711                    20788177.203
 119709766.542 7  93280392.95344  22780012.250                    22780020.414
 11  8 24  0 43 30.0000000  0  9G17G10G12G04G05G25G09G02G30
 126338893.067 6  98445948.351 6  24041492.992                    24041505.676
 111723657.944 7  87057570.19545  21260281.313                    21260289.301
 109549562.582 8  85363372.250 7  20846585.273                    20846592.309
 120401544.816 6  93819489.85444  22911628.672                    22911638.922
 109459697.165 8  85293382.021 7  20829466.539                    20829474.758
 119997797.995 7  93504816.660 7  22834818.000                    22834828.789
 130640293.402 6 101797693.51443  24860033.758                    24860048.156
 109261187.319 8  85138726.70446  20791681.281                    20791687.043
 119634322.136 7  93221605.17944  22765654.867                    22765664.102
 11  8 24  0 44  0.0000000  0  8G17G10G12G04G05G25G02G30
 126404293.890 6  98496910.008 6  24053939.984                    24053950.168
 111773147.042 8  87096133.13145  21269698.602                    21269706.801
 109527888.881 8  85346483.666 7  20842460.875                    20842467.418
 120483090.572 7  93883032.00444  22927146.969                    22927155.602
 109402766.921 8  85249020.839 7  20818633.195                    20818640.914
 119919437.411 7  93443756.534 7  22819906.492                    22819917.152
 109279821.698 8  85153247.01446  20795227.234                    20795233.102
 119559318.916 7  93163161.15444  22751382.000                    22751391.117
 11  8 24  0 44 30.0000000  0  8G17G10G12G04G05G25G02G30
 126469884.252 6  98548019.342 6  24066421.188                    24066432.000
 111823192.467 7  87135129.56445  21279222.070                    21279230.547
 109506778.950 8  85330034.376 7  20838443.602                    20838450.762
 120564642.086 7  93946578.59344  22942665.602                    22942675.191
 109346338.556 8  85205050.730 7  20807895.102                    20807902.750
 119841454.304 7  93382990.563 7  22805066.859                    22805077.777
 109298645.941 8  85167915.27146  20798809.242                    20798815.148
 119484759.286 7  93105062.79644  22737194.016                    22737202.715
 11  8 24  0 45  0.0000000  0  8G17G10G12G04G05G25G02G30
 126535663.895 6  98599276.173 6  24078938.797                    24078949.371
 111873792.028 8  87174557.79545  21288850.750                    21288858.766
 109486233.155 8  85314024.684 7  20834533.914                    20834541.168
 120646197.935 7  94010128.55544  22958185.125                    22958194.953
 109290413.627 8  85161472.924 7  20797252.813                    20797260.906
 119763850.673 7  93322520.294 7  22790299.203                    22790310.691
 109317657.997 8  85182729.87846  20802427.180                    20802432.641
 119410645.119 7  93047311.54544  22723090.148                    22723099.641
 11  8 24  0 45 30.0000000  0  8G17G10G12G04G05G25G02G30
 126601633.058 6  98650680.687 6  24091491.570                    24091502.758
 111924944.076 7  87214416.52145  21298584.102                    21298592.898
 109466252.863 8  85298455.634 7  20830731.648                    20830738.852
 120727756.845 7  94073680.87644  22973705.789                    22973714.867
 109234993.836 8  85118288.733 7  20786706.828                    20786714.484
 119686629.155 7  93262347.767 7  22775604.867                    22775615.719
 109336856.792 8  85197690.00446  20806080.617                    20806086.113
 119336979.028 7  92989909.46544  22709072.117                    22709081.066
 11  8 24  0 46  0.0000000  0  8G17G10G12G04G05G25G02G30
 126667792.014 7  98702233.105 6  24104082.023                    24104092.551
 111976646.537 8  87254704.15345  21308422.984                    21308431.512
 109446838.983 8  85283327.957 7  20827037.422                    20827044.715
 120809317.831 7  94137234.85144  22989226.242                    22989235.746
 109180081.092 8  85075499.615 7  20776257.375                    20776265.102
 119609792.193 7  93202474.887 7  22760982.867                    22760993.758
 109356241.438 8  85212794.93846  20809769.406                    20809775.273
 119263763.483 7  92932858.45544  22695139.766                    22695148.547
 11  8 24  0 46 30.0000000  0  8G17G10G12G04G05G25G02G30
 126734141.010 7  98753933.570 6  24116707.539                    24116718.469
 112028897.272 8  87295419.02845  21318366.313                    21318374.254
 109427992.263 8  85268642.211 7  20823451.156                    20823458.605
 120890879.910 7  94200789.67144  23004746.555                    23004756.340
 109125677.313 8  85033107.116 7  20765904.555                    20765912.500
 119533342.500 7  93142903.758 7  22746435.063                    22746445.336
 109375811.112 8  85228044.06346  20813493.453                    20813499.316
 119191001.058 7  92876160.51244  22681293.938                    22681302.559
 11  8 24  0 47  0.0000000  0  8G17G10G12G04G05G25G02G30
 126800679.848 7  98805781.954 6  24129369.680                    24129380.602
 112081694.360 8  87336559.63145  21328413.602                    21328421.020
 109409713.646 8  85254399.146 7  20819972.641                    20819980.121
 120972441.632 6  94264344.18844  23020267.984                    23020277.563
 109071783.984 8  84991112.363 8  20755648.883                    20755656.766
 119457282.469 7  93083636.263 7  22731961.094                    22731971.508
 109395564.207 8  85243436.09646  20817252.922                    20817258.398
 119118694.061 7  92819817.45344  22667533.938                    22667542.535
 11  8 24  0 47 30.0000000  0  8G17G10G12G04G05G25G02G30
 126867408.918 6  98857778.569 6  24142067.227                    24142078.586
 112135035.762 8  87378124.36145  21338563.508                    21338572.164
 109392004.175 8  85240599.568 7  20816602.516                    20816609.910
 121054002.177 7  94327897.83844  23035788.133                    23035797.066
 109018403.176 8  84949516.990 7  20745490.891                    20745498.480
 119381614.600 7  93024674.350 7  22717562.141                    22717572.613
 109415499.941 8  85258970.45446  20821045.617                    20821051.371
 119046844.938 7  92763831.17344  22653861.867                    22653870.285
 11  8 24  0 48  0.0000000  0  8G17G10G12G04G05G25G02G30
 126934328.465 6  98909923.611 6  24154802.383                    24154813.148
 112188919.366 8  87420111.58145  21348817.422                    21348825.938
 109374865.161 8  85227244.503 7  20813341.133                    20813348.238
 121135560.245 7  94391449.51644  23051308.203                    23051317.781
 108965536.492 8  84908322.225 8  20735430.422                    20735438.230
 119306341.366 7  92966019.933 6  22703237.773                    22703248.441
 109435617.160 8  85274646.20946  20824874.117                    20824879.930
 118975456.084 7  92708203.53744  22640276.930                    22640284.988
 11  8 24  0 48 30.0000000  0  8G17G10G12G04G05G25G02G30
 127001438.208 6  98962216.915 6  24167572.102                    24167583.734
 112243342.954 7  87462519.55945  21359174.039                    21359181.816
 109358296.417 8  85214333.801 7  20810188.547                    20810195.438
 121217114.871 7  94454998.53144  23066827.266                    23066837.348
 108913185.689 8  84867529.435 8  20725468.703                    20725476.504
 119231465.130 7  92907674.876 7  22688988.992                    22689000.059
 109455914.499 8  85290462.34046  20828736.422                    20828742.242
 118904529.772 7  92652936.33244  22626779.734                    22626788.066
 11  8 24  0 49  0.0000000  0  8G17G10G12G04G05G25G02G30
 127068738.454 6  99014658.649 6  24180378.758                    24180390.500
 112298304.690 8  87505346.88145  21369632.898                    21369641.176
 109342299.379 8  85201868.582 7  20807143.938                    20807151.379
 121298665.050 7  94518544.06744  23082346.266                    23082355.395
 108861352.391 8  84827139.914 8  20715604.789                    20715612.988
 119156988.431 7  92849641.133 7  22674816.938                    22674827.289
 109476391.041 8  85306418.09346  20832633.125                    20832638.953
 118834068.456 7  92598031.43745  22613371.523                    22613379.641
 11  8 24  0 49 30.0000000  0  8G17G10G12G04G05G25G02G30
 127136229.185 6  99067248.822 6  24193222.977                    24193233.320
 112353802.508 7  87548591.93845  21380193.984                    21380201.625
 109326875.014 8  85189849.602 7  20804208.961                    20804216.160
 121380209.729 7  94582085.33944  23097863.258                    23097872.660
 108810038.464 8  84787155.074 7  20705840.328                    20705848.141
 119082913.836 7  92791920.727 7  22660721.117                    22660731.578
 109497045.733 8  85322512.66146  20836563.414                    20836568.871
 118764074.549 7  92543490.76144  22600052.008                    22600060.355
 11  8 24  0 50  0.0000000  0  8G17G10G12G04G05G25G02G30
 127203910.526 6  99119987.486 6  24206102.273                    24206113.355
 112409833.853 8  87592252.73445  21390855.938                    21390864.070
 109312023.553 8  85178277.037 7  20801382.820                    20801390.273
 121461747.362 7  94645621.13944  23113379.641                    23113389.816
 108759245.137 8  84747575.909 7  20696174.383                    20696182.371
 119009243.413 7  92734515.253 7  22646701.625                    22646712.715
 109517877.062 8  85338744.88346  20840527.586                    20840533.031
 118694550.114 7  92489315.92445  22586821.438                    22586830.695
 11  8 24  0 50 30.0000000  0  8G17G10G12G04G05G25G02G30
 127271782.599 6  99172874.795 6  24219016.430                    24219028.723
 112466397.065 8  87636327.97445  21401619.234                    21401627.531
 109297746.056 8  85167151.719 7  20798666.086                    20798673.164
 121543277.449 7  94709151.05343  23128893.633                    23128904.652
 108708974.433 8  84708403.996 8  20686608.242                    20686615.836
 118935980.009 7  92677426.938 7  22632760.438                    22632770.922
 109538884.515 8  85355114.33446  20844525.078                    20844531.000
 118625497.843 7  92435509.01044  22573681.898                    22573690.121
 11  8 24  0 51  0.0000000  0  8G17G10G12G04G05G25G02G30
 127339845.294 6  99225910.633 5  24231968.281                    24231980.266
 112523489.750 7  87680815.78245  21412483.281                    21412492.055
 109284043.070 8  85156474.078 7  20796058.586                    20796065.590
 121624798.706 7  94772674.09943  23144406.953                    23144416.957
 108659227.391 8  84669640.116 8  20677141.750                    20677149.219
 118863125.815 7  92620657.485 7  22618896.758                    22618907.270
 109560066.331 8  85371619.64646  20848555.797                    20848561.340
 118556919.773 7  92382071.59744  22560631.281                    22560640.543
 11  8 24  0 51 30.0000000  0  8G17G10G12G04G05G25G02G30
 127408098.775 6  99279095.141 6  24244957.719                    24244969.023
 112581109.894 7  87725714.59145  21423448.273                    21423456.680
 109270915.190 8  85146244.564 7  20793560.406                    20793567.359
 121706310.091 7  94836189.41743  23159917.992                    23159928.156
 108610006.124 8  84631285.927 7  20667775.320                    20667782.961
 118790683.302 7  92564208.826 7  22605111.000                    22605121.695
 109581421.876 8  85388260.32846  20852619.805                    20852625.668
 118488818.387 7  92329005.65644  22547672.070                    22547681.031
 11  8 24  0 52  0.0000000  0  8G17G10G12G04G05G25G02G30
 127476543.262 5  99332428.446 6  24257981.086                    24257993.422
 112639255.219 7  87771022.61745  21434513.578                    21434521.906
 109258363.156 8  85136463.763 7  20791171.508                    20791178.934
 121787810.465 7  94899696.17444  23175427.203                    23175436.926
 108561311.665 8  84593342.244 8  20658508.734                    20658516.469
 118718654.882 7  92508082.822 7  22591404.375                    22591415.305
 109602949.834 8  85405035.35146  20856716.344                    20856722.465
 118421195.849 7  92276312.81645  22534804.063                    22534812.902
 11  8 24  0 52 30.0000000  0  8G17G10G12G04G05G25G02G30
 127545178.493 6  99385910.489 6  24271042.117                    24271053.941
 112697923.143 8  87816737.89045  21445677.523                    21445686.191
 109246387.799 8  85127132.309 7  20788892.703                    20788900.137
 121869298.879 6  94963193.62843  23190933.891                    23190944.215
 108513145.618 8  84555810.319 8  20649343.414                    20649350.895
 118647042.837 7  92452281.273 7  22577777.625                    22577788.109
 109624649.126 8  85421943.88946  20860845.516                    20860851.555
 118354054.444 7  92223994.89745  22522027.398                    22522037.066
 11  8 24  0 53  0.0000000  0  8G17G10G12G04G05G25G02G30
 127614004.680 6  99439541.252 6  24284139.914                    24284151.352
 112757111.737 8  87862858.87345  21456940.750                    21456949.027
 109234989.721 8  85118250.698 7  20786724.063                    20786731.523
 121950774.537 6  95026681.11543  23206438.742                    23206447.887
 108465509.800 8  84518691.545 8  20640278.273                    20640285.957
 118575849.677 7  92396806.119 7  22564229.906                    22564240.867
 109646518.918 8  85438985.27546  20865007.453                    20865013.320
 118287396.421 7  92172053.63644  22509342.242                    22509351.668
 11  8 24  0 53 30.0000000  0  8G17G10G12G04G05G25G02G30
 127683021.714 6  99493320.755 6  24297273.680                    24297284.977
 112816818.874 8  87909383.91545  21468302.672                    21468310.805
 109224169.345 8  85109819.244 7  20784664.531                    20784671.984
 122032236.171 6  95090157.70243  23221940.227                    23221948.754
 108418405.781 8  84481987.157 8  20631314.500                    20631322.469
 118505077.788 7  92341659.238 7  22550762.016                    22550773.625
 109668557.986 8  85456158.56446  20869201.383                    20869207.031
 118221224.109 7  92120490.86545  22496750.359                    22496759.418
 11  8 24  0 54  0.0000000  0  8G17G10G12G04G05G25G02G30
 127752229.680 6  99547249.025 6  24310444.055                    24310454.875
 112877042.188 8  87956311.16445  21479762.555                    21479771.254
 109213927.141 8  85101838.316 7  20782715.578                    20782723.105
 122113682.965 6  95153622.75043  23237439.195                    23237447.875
 108371834.853 8  84445698.172 8  20622452.578                    20622460.418
 118434729.309 7  92286842.296 7  22537375.086                    22537385.844
 109690765.162 7  85473462.84446  20873427.188                    20873432.340
 118155539.522 7  92069308.12445  22484251.172                    22484259.492
 11  8 24  0 54 30.0000000  0  8G17G10G12G04G05G25G02G30
 127821628.608 6  99601326.060 6  24323649.500                    24323660.586
 112937779.283 7  88003638.75645  21491320.898                    21491328.746
 109204263.494 8  85094308.221 7  20780876.805                    20780884.059
 122195113.462 6  95217075.03943  23252934.086                    23252944.043
 108325798.061 8  84409825.393 8  20613691.820                    20613699.426
 118364806.444 7  92232356.979 7  22524069.000                    22524079.773
 109713138.974 8  85490896.96846  20877684.813                    20877690.582
 118090344.760 7  92018507.04745  22471845.438                    22471852.672
 11  8 24  0 55  0.0000000  0  8G17G10G12G04G05G25G02G30
 127891218.211 6  99655551.687 6  24336892.102                    24336903.563
 112999028.160 7  88051365.14645  21502975.695                    21502984.477
 109195179.320 8  85087229.663 7  20779147.938                    20779155.516
 122276527.575 7  95280514.56343  23268427.242                    23268436.430
 108280297.431 8  84374370.399 8  20605033.391                    20605040.922
 118295312.160 7  92178205.630 7  22510844.836                    22510855.285
 109735679.237 7  85508460.79846  20881974.188                    20881979.730
 118025642.535 7  91968089.76145  22459532.797                    22459540.906
 11  8 24  0 55 30.0000000  0  9G17G10G12G04G05G25G29G02G30
 127960998.800 6  99709926.169 6  24350170.383                    24350182.359
 113060786.415 8  88099488.46045  21514728.109                    21514736.059
 109186675.252 8  85080603.132 7  20777529.828                    20777537.137
 122357923.721 7  95343940.09344  23283916.555                    23283926.125
 108235334.045 8  84339334.032 8  20596476.977                    20596484.449
 118226248.417 7  92124389.769 7  22497702.289                    22497712.867
 129593646.05317 100982117.86516  24660858.938                    24660869.219
 109758384.481 8  85526153.18946  20886294.977                    20886300.461
 117961434.723 7  91918057.75745  22447313.922                    22447322.266
 11  8 24  0 56  0.0000000  0  9G17G10G12G04G05G25G29G02G30
 128030970.638 6  99764449.629 6  24363486.344                    24363498.047
 113123052.081 7  88148007.16045  21526577.211                    21526585.160
 109178751.974 8  85074429.178 7  20776021.930                    20776029.191
 122439301.749 7  95407351.51244  23299402.438                    23299411.777
 108190909.772 8  84304717.756 8  20588023.320                    20588031.164
 118157618.113 7  92070911.649 7  22484642.172                    22484652.813
 129513959.654 7 100920024.630 6  24645695.570                    24645705.449
 109781254.266 8  85543973.78846  20890646.609                    20890652.434
 117897724.021 7  91868413.11544  22435190.383                    22435199.148
 11  8 24  0 56 30.0000000  0  9G17G10G12G04G05G25G29G02G30
 128101133.697 7  99819122.150 6  24376838.273                    24376849.453
 113185822.488 7  88196919.16845  21538521.758                    21538530.066
 109171409.519 8  85068707.796 7  20774624.836                    20774631.902
 122520660.243 6  95470747.72744  23314884.422                    23314893.922
 108147026.005 8  84270522.649 8  20579672.648                    20579680.117
 118089423.202 7  92017772.781 7  22471665.328                    22471675.566
 129434192.103 7 100857868.185 6  24630516.055                    24630526.387
 109804287.188 8  85561921.51046  20895029.906                    20895035.098
 117834512.191 7  91819157.18145  22423161.477                    22423170.336
 11  8 24  0 57  0.0000000  0  9G17G10G12G04G05G25G29G02G30
 128171487.375 7  99873943.228 6  24390226.805                    24390237.199
 113249094.883 7  88246222.31345  21550562.273                    21550570.277
 109164648.190 8  85063439.249 7  20773337.875                    20773344.953
 122601998.087 7  95534127.80044  23330362.500                    23330371.773
 108103683.566 8  84236749.353 8  20571424.813                    20571432.281
 118021665.736 7  91964974.764 7  22458772.031                    22458782.340
 129354343.818 7 100795648.829 6  24615321.414                    24615331.895
 109827481.961 8  85579995.35246  20899443.531                    20899449.555
 117771801.192 7  91770291.51645  22411228.352                    22411236.301
 11  8 24  0 57 30.0000000  0  9G17G10G12G04G05G25G29G02G30
 128242031.767 7  99928912.911 6  24403649.898                    24403661.902
 113312866.970 8  88295914.84345  21562697.961                    21562706.184
 109158468.266 8  85058623.752 7  20772161.883                    20772169.160
 122683314.310 6  95597491.02444  23345837.047                    23345846.012
 108060883.512 8  84203398.696 8  20563280.180                    20563287.715
 117954347.757 7  91912519.241 7  22445961.422                    22445972.070
 129274415.192 6 100733366.852 6  24600111.539                    24600121.488
 109850837.294 8  85598194.30146  20903887.953                    20903893.859
 117709592.923 7  91721817.60345  22399389.844                    22399398.750
 11  8 24  0 58  0.0000000  0  9G17G10G12G04G05G25G29G02G30
 128312766.804 6  99984031.144 6  24417109.945                    24417122.277
 113377136.677 8  88345995.12045  21574927.758                    21574935.723
 109152870.079 8  85054261.544 7  20771096.609                    20771104.004
 122764607.999 6  95660836.73044  23361306.039                    23361316.133
 108018627.302 8  84170471.822 8  20555238.945                    20555246.695
 117887471.737 7  91860408.095 7  22433235.352                    22433245.996
 129194406.918 6 100671022.841 6  24584886.375                    24584896.484
 109874352.191 8  85616517.58846  20908363.039                    20908368.449
 117647889.610 7  91673737.14145  22387648.406                    22387657.156
 11  8 24  0 58 30.0000000  0  9G17G10G12G04G05G25G29G02G30
 128383692.423 6 100039297.862 6  24430607.008                    24430618.113
 113441901.078 7  88396460.86945  21587252.227                    21587260.246
 109147853.587 8  85050352.618 7  20770142.063                    20770149.328
 122845878.075 6  95724163.99744  23376771.273                    23376781.734
 107976916.183 8  84137969.695 8  20547301.414                    20547309.164
 117821039.573 8  91808642.801 7  22420593.711                    22420604.523
 129114319.369 6 100608617.053 5  24569646.180                    24569656.219
 109898025.301 8  85634964.16246  20912867.625                    20912873.391
 117586692.879 7  91626051.40445  22376002.805                    22376011.570
 11  8 24  0 59  0.0000000  0  9G17G10G12G04G05G25G29G02G30
 128454808.576 6 100094713.015 6  24444139.789                    24444151.398
 113507158.879 8  88447311.10345  21599670.133                    21599678.348
 109143420.065 8  85046897.952 7  20769298.430                    20769305.844
 122927124.400 6  95787472.73644  23392231.836                    23392241.352
 107935751.721 8  84105893.524 8  20539468.203                    20539475.945
 117755054.405 7  91757225.822 7  22408037.414                    22408047.305
 129034153.639 6 100546150.299 5  24554391.328                    24554400.922
 109921856.690 8  85653534.07146  20917402.203                    20917408.012
 117526005.836 7  91578762.82445  22364454.477                    22364463.859
 11  8 24  0 59 30.0000000  0  9G17G10G12G04G05G25G29G02G30
 128526114.971 6 100150276.438 6  24457709.156                    24457719.750
 113572906.890 8  88498543.30445  21612181.266                    21612190.176
 109139569.334 8  85043897.388 7  20768565.742                    20768572.547
 123008345.561 6  95850761.83444  23407688.023                    23407697.781
 107895134.861 8  84074244.052 8  20531738.750                    20531746.852
 117689517.942 7  91706158.467 7  22395566.297                    22395575.746
 128953910.227 6 100483623.091 5  24539120.648                    24539130.707
 109945844.719 7  85672226.03346  20921967.125                    20921972.555
 117465829.983 7  91531872.58245  22353003.508                    22353012.277
 11  8 24  1  0  0.0000000  0  9G17G10G12G04G05G25G29G02G30
 128597611.555 6 100205988.020 6  24471314.086                    24471325.992
 113639142.158 8  88550155.17145  21624785.406                    21624794.246
 109136301.783 7  85041351.245 7  20767943.930                    20767950.887
 123089540.543 6  95914030.57944  23423138.781                    23423148.754
 107855066.752 8  84043022.186 8  20524114.320                    20524121.973
 117624432.147 7  91655442.267 7  22383180.813                    22383190.566
 128873589.449 6 100421035.543 5  24523836.313                    24523845.543
 109969987.958 7  85691038.94446  20926561.133                    20926567.191
 117406167.066 7  91485382.04045  22341650.555                    22341659.195
 11  8 24  1  0 30.0000000  0  9G17G10G12G04G05G25G29G02G30
 128669298.567 6 100261847.981 6  24484955.805                    24484968.188
 113705862.632 7  88602145.11745  21637482.414                    21637490.625
 109133617.065 7  85039259.272 7  20767433.063                    20767440.176
 123170708.847 6  95977278.52543  23438584.523                    23438594.328
 107815548.449 8  84012228.749 8  20516594.141                    20516602.125
 117559799.517 7  91605079.197 7  22370881.555                    22370891.762
 128793192.055 6 100358388.314 5  24508537.031                    24508546.551
 109994286.049 8  85709972.52746  20931185.469                    20931191.195
 117347019.303 7  91439292.90645  22330394.578                    22330403.172
 11  8 24  1  1  0.0000000  0  9G17G10G12G04G05G25G29G02G30
 128741175.634 6 100317856.094 6  24498633.016                    24498645.313
 113773065.884 8  88654511.27345  21650270.836                    21650278.770
 109131515.550 8  85037621.734 7  20767033.273                    20767040.109
 123251849.444 7  96040504.90843  23454025.484                    23454034.734
 107776581.221 8  83981864.707 8  20509179.094                    20509186.730
 117495622.122 7  91555070.865 7  22358668.508                    22358679.180
 128712718.741 6 100295681.915 6  24493223.367                    24493233.117
 110018737.614 8  85729025.71146  20935838.320                    20935844.121
 117288388.670 7  91393606.73945  22319237.578                    22319245.613
 11  8 24  1  1 30.0000000  0  8G10G12G04G05G25G29G02G30
 113840751.138 7  88707253.02345  21663151.180                    21663159.066
 109129999.406 8  85036440.316 7  20766744.773                    20766751.953
 123332963.319 7  96103710.43344  23469460.695                    23469470.934
 107738167.961 8  83951932.324 8  20501869.070                    20501876.984
 117431903.943 7  91505420.369 7  22346543.563                    22346554.254
 128632171.964 6 100232918.247 6  24477896.180                    24477905.906
 110043343.587 8  85748199.20846  20940520.586                    20940526.082
 117230278.910 7  91348326.43044  22308179.414                    22308187.715
 11  8 24  1  2  0.0000000  0  8G10G12G04G05G25G29G02G30
 113908914.464 7  88760367.26045  21676121.859                    21676130.480
 109129066.937 8  85035713.706 8  20766567.180                    20766574.371
 123414048.137 6  96166893.32743  23484891.117                    23484901.348
 107700308.009 8  83922431.095 8  20494664.844                    20494672.125
 117368645.459 7  91456128.067 7  22334505.992                    22334516.426
 128551550.490 6 100170096.389 6  24462554.391                    24462564.438
 110068101.259 8  85767490.89846  20945232.039                    20945237.602
 117172690.244 7  91303452.16345  22297220.648                    22297229.133
 11  8 24  1  2 30.0000000  0  8G10G12G04G05G25G29G02G30
 113977552.941 7  88813851.75545  21689182.773                    21689191.668
 109128718.263 8  85035442.017 7  20766501.039                    20766507.777
 123495102.566 6  96230052.52344  23500315.203                    23500324.996
 107663002.563 8  83893361.951 8  20487565.695                    20487573.102
 117305848.588 7  91407195.467 7  22322556.266                    22322566.871
 128470855.014 6 100107216.889 6  24447197.852                    24447208.230
 110093009.540 8  85786899.95946  20949971.609                    20949977.391
 117115624.392 7  91258985.28245  22286361.711                    22286369.762
 11  8 24  1  3  0.0000000  0  8G10G12G04G05G25G29G02G30
 114046663.932 8  88867704.45045  21702334.820                    21702343.027
 109128953.275 8  85035625.140 7  20766545.711                    20766552.777
 123576125.676 6  96293187.31643  23515732.977                    23515743.266
 107626252.081 8  83864725.258 8  20480572.352                    20480579.703
 117243515.311 7  91358624.112 7  22310694.508                    22310704.668
 128390085.810 6 100044279.900 6  24431828.320                    24431838.090
 110118066.834 8  85806425.13746  20954739.859                    20954745.336
 117059083.115 7  91214927.16545  22275602.094                    22275610.406
 11  8 24  1  3 30.0000000  0  8G10G12G04G05G25G29G02G30
 114116244.602 7  88921923.13945  21715575.625                    21715584.098
 109129772.146 8  85036263.208 7  20766701.063                    20766708.180
 123657116.926 6  96356297.37043  23531145.250                    23531155.074
 107590057.728 8  83836521.899 8  20473685.094                    20473692.316
 117181647.724 7  91310415.619 7  22298921.477                    22298931.367
 128309243.606 6  99981286.049 6  24416444.594                    24416454.445
 110143272.448 7  85826065.88046  20959536.500                    20959542.148
 117003068.269 7  91171279.26645  22264942.695                    22264950.648
 11  8 24  1  4  0.0000000  0  8G10G12G04G05G25G29G02G30
 114186292.840 7  88976506.15445  21728905.414                    21728913.594
 109131175.064 8  85037356.381 7  20766968.063                    20766975.559
 123738075.655 6  96419382.06143  23546551.414                    23546561.016
 107554420.937 8  83808752.996 8  20466903.328                    20466911.238
 117120248.366 7  91262571.970 7  22287237.789                    22287247.711
 128228329.449 7  99918236.152 6  24401047.555                    24401056.594
 110168625.827 8  85845821.77046  20964360.945                    20964366.742
 116947582.231 7  91128043.40845  22254383.945                    22254392.023
 11  8 24  1  4 30.0000000  0  8G10G12G04G05G25G29G02G30
 114256805.642 7  89031451.18345  21742323.711                    21742331.344
 109133161.447 8  85038904.203 7  20767346.328                    20767353.633
 123819000.968 7  96482440.72843  23561950.883                    23561961.223
 107519342.039 8  83781418.824 8  20460228.047                    20460235.395
 117059318.866 8  91215094.463 7  22275643.063                    22275652.914
 128147343.646 6  99855130.391 6  24385636.391                    24385645.828
 110194125.462 8  85865691.61146  20969213.602                    20969219.320
 116892626.224 7  91085220.56145  22243926.117                    22243934.375
 11  8 24  1  5  0.0000000  0  8G10G12G04G05G25G29G02G30
 114327780.909 7  89086756.56045  21755829.234                    21755837.629
 109135731.698 8  85040906.981 7  20767835.742                    20767842.547
 123899892.011 7  96545472.66543  23577344.094                    23577353.887
 107484822.386 8  83754520.443 8  20453659.328                    20453666.441
 116998861.446 8  91167984.813 7  22264138.367                    22264148.445
 128066287.245 7  99791969.630 6  24370211.492                    24370221.051
 110219770.640 8  85885674.86546  20974093.367                    20974099.109
 116838202.399 7  91042812.40445  22233569.484                    22233578.285
 11  8 24  1  5 30.0000000  0  8G10G12G04G05G25G29G02G30
 114399216.570 7  89142420.70045  21769422.961                    21769431.395
 109138886.278 7  85043365.094 7  20768435.672                    20768442.832
 123980748.621 7  96608477.78743  23592730.609                    23592740.637
 107450863.267 8  83728058.823 8  20447196.805                    20447203.891
 116938878.759 8  91121245.080 7  22252723.820                    22252734.328
 127985161.152 6  99728754.545 6  24354773.078                    24354783.109
 110245561.131 8  85905771.35446  20979001.203                    20979007.070
 116784312.978 7  91000820.66745  22223314.633                    22223323.133
 11  8 24  1  6  0.0000000  0  8G10G12G04G05G25G29G02G30
 114471109.382 7  89198441.06945  21783104.102                    21783111.961
 109142624.544 8  85046278.007 7  20769146.969                    20769154.164
 124061569.581 7  96671455.15143  23608110.938                    23608120.219
 107417465.101 8  83702034.304 8  20440841.102                    20440848.895
 116879372.304 7  91074876.444 7  22241400.203                    22241410.172
 127903965.963 6  99665485.639 6  24339322.789                    24339332.398
 110271495.172 8  85925979.70246  20983936.063                    20983941.867
 116730959.408 7  90959246.46444  22213161.922                    22213169.840
 11  8 24  1  6 30.0000000  0  8G10G12G04G05G25G29G02G30
 114543456.582 7  89254815.49945  21796871.352                    21796879.609
 109146946.602 8  85049645.823 7  20769969.672                    20769976.730
 124142354.104 7  96734404.12743  23623483.289                    23623492.746
 107384628.874 8  83676447.674 8  20434592.875                    20434600.199
 116820344.111 7  91028880.494 7  22230167.250                    22230177.867
 127822702.280 6  99602163.338 6  24323858.711                    24323868.340
 110297571.855 8  85946299.18046  20988899.195                    20988904.254
 116678143.341 7  90918091.11045  22203111.813                    22203119.672
 11  8 24  1  7  0.0000000  0  8G10G12G04G05G25G29G02G30
 114616255.976 7  89311542.29545  21810724.711                    21810732.754
 109151852.741 8  85053468.795 7  20770903.398                    20770910.527
 124223101.753 7  96797324.39543  23638848.922                    23638859.422
 107352355.682 8  83651299.754 8  20428451.344                    20428458.969
 116761796.572 7  90983259.057 7  22219026.109                    22219036.777
 127741371.181 6  99538788.482 6  24308382.398                    24308391.262
 110323790.764 8  85966729.51246  20993887.969                    20993893.719
 116625866.908 7  90877356.25045  22193163.297                    22193171.723
 11  8 24  1  7 30.0000000  0  8G10G12G04G05G25G29G02G30
 114689504.443 7  89368619.02345  21824663.438                    21824671.063
 109157342.134 8  85057746.240 7  20771948.031                    20771955.172
 124303811.462 7  96860215.08144  23654207.555                    23654217.473
 107320645.992 8  83626590.939 8  20422417.125                    20422424.609
 116703730.973 7  90938013.159 7  22207976.484                    22207986.980
 127659972.658 6  99475361.163 6  24292891.813                    24292902.141
 110350150.057 8  85987269.21046  20998903.781                    20998909.629
 116574131.116 7  90837042.67145  22183318.383                    22183326.637
 11  8 24  1  8  0.0000000  0  8G10G12G04G05G25G29G02G30
 114763199.752 7  89426043.93045  21838686.281                    21838695.770
 109163414.720 8  85062478.110 7  20773103.609                    20773110.293
 124384482.787 7  96923075.85843  23669559.000                    23669569.180
 107289500.937 8  83602322.107 8  20416490.227                    20416497.883
 116646149.813 7  90893144.755 7  22197019.164                    22197029.574
 127578508.140 6  99411882.380 6  24277390.008                    24277399.715
 110376649.517 8  86007918.13546  21003946.727                    21003952.398
 116522938.233 7  90797152.13045  22173576.867                    22173585.031
 11  8 24  1  8 30.0000000  0  8G10G12G04G05G25G29G02G30
 114837339.530 7  89483815.16945  21852795.102                    21852803.871
 109170071.131 8  85067664.926 7  20774370.031                    20774377.723
 124465115.405 7  96985906.47443  23684902.602                    23684912.543
 107258921.604 8  83578494.079 8  20410671.523                    20410678.742
 116589055.480 7  90848655.705 7  22186154.547                    22186165.445
 127496978.769 6  99348353.050 6  24261875.188                    24261885.277
 110403288.897 8  86028676.08346  21009015.680                    21009021.746
 116472290.426 7  90757686.31445  22163939.430                    22163947.285
 11  8 24  1  9  0.0000000  0  8G10G12G04G05G25G29G02G30
 114911920.284 7  89541930.04345  21866987.781                    21866995.695
 109177310.163 8  85073305.728 7  20775747.469                    20775754.750
 124545707.825 7  97048705.72343  23700238.734                    23700249.316
 107228907.850 8  83555106.769 8  20404960.109                    20404967.750
 116532449.056 7  90804546.837 7  22175382.523                    22175393.168
 127415384.377 6  99284773.050 6  24246348.164                    24246357.750
 110430065.739 8  86049541.14046  21014111.359                    21014116.930
 116422188.347 7  90718645.75545  22154405.328                    22154413.504
 11  8 24  1  9 30.0000000  0  8G10G12G04G05G25G29G02G30
 114986939.689 8  89600386.71545  21881263.547                    21881271.449
 109185131.693 8  85079400.422 7  20777236.031                    20777243.137
 124626259.754 7  97111473.42543  23715567.063                    23715578.027
 107199460.465 8  83532160.780 8  20399356.078                    20399363.582
 116476332.670 7  90760819.821 7  22164704.484                    22164714.703
 127333726.320 6  99221143.435 5  24230809.609                    24230818.289
 110456979.700 8  86070513.04946  21019233.039                    21019238.387
 116372633.902 7  90680031.93345  22144974.898                    22144983.566
 11  8 24  1 10  0.0000000  0  8G10G12G04G05G25G29G02G30
 115062395.815 7  89659183.68845  21895621.898                    21895630.023
 109193536.371 8  85085949.525 7  20778835.430                    20778842.723
 124706770.876 6  97174209.36743  23730888.391                    23730898.145
 107170581.128 8  83509657.445 8  20393860.453                    20393868.121
 116420709.024 8  90717476.766 7  22154119.008                    22154129.410
 127252005.703 6  99157465.081 5  24215258.344                    24215267.422
 110484030.744 8  86091591.78346  21024381.164                    21024386.473
 116323629.488 7  90641846.72645  22135649.719                    22135658.383
 11  8 24  1 10 30.0000000  0  8G10G12G04G05G25G29G02G30
 115138284.957 7  89718318.06045  21910063.109                    21910071.516
 109202522.481 8  85092951.693 7  20780545.211                    20780552.684
 124787239.912 6  97236912.48243  23746200.625                    23746210.777
 107142269.399 8  83487596.386 8  20388473.102                    20388480.680
 116365578.944 8  90674518.286 7  22143628.695                    22143638.723
 127170222.308 6  99093737.847 5  24199694.938                    24199704.340
 110511216.503 8  86112775.49146  21029554.008                    21029559.336
 116275175.681 7  90604090.53445  22126428.992                    22126437.578
 11  8 24  1 11  0.0000000  0  8G10G12G04G05G25G29G02G30
 115214605.393 7  89777788.50145  21924586.234                    21924595.383
 109212090.788 8  85100407.533 7  20782366.164                    20782373.695
 124867666.829 6  97299582.79543  23761504.289                    23761516.395
 107114527.011 7  83465978.963 8  20383193.484                    20383201.234
 116310945.262 7  90631946.619 7  22133231.961                    22133241.879
 127088378.397 6  99029963.411 6  24184121.086                    24184130.055
 110538537.613 8  86134064.66846  21034752.930                    21034758.668
 116227275.006 7  90566765.35945  22117313.734                    22117322.164
 11  8 24  1 11 30.0000000  0  8G10G12G04G05G25G29G02G30
 115291353.623 7  89837592.31745  21939191.672                    21939200.074
 109222240.691 8  85108316.553 7  20784297.414                    20784304.508
 124948050.704 6  97362219.51544  23776801.727                    23776812.340
 107087354.112 8  83444805.311 8  20378023.070                    20378030.406
 116256809.360 7  90589762.839 7  22122930.320                    22122940.629
 127006473.871 6  98966141.753 6  24168534.492                    24168544.879
 110565992.459 8  86155458.04846  21039977.672                    21039983.512
 116179928.490 7  90529872.00145  22108303.586                    22108312.969
 11  8 24  1 12  0.0000000  0  8G10G12G04G05G25G29G02G30
 115368527.175 7  89897727.55945  21953877.375                    21953885.168
 109232972.045 8  85116678.652 7  20786339.563                    20786346.773
 125028391.162 6  97424822.39343  23792089.555                    23792100.602
 107060751.554 8  83424076.081 8  20372960.617                    20372968.148
 116203173.498 8  90547968.685 7  22112723.453                    22112734.289
 126924510.024 6  98902273.899 6  24152938.258                    24152947.348
 110593580.571 8  86176955.27546  21045227.758                    21045233.051
 116133138.030 7  90493411.93245  22099400.289                    22099408.684
 11  8 24  1 12 30.0000000  0  8G10G12G04G05G25G29G02G30
 115446123.359 7  89958192.11845  21968643.172                    21968651.188
 109244284.028 8  85125493.204 7  20788492.602                    20788499.512
 125108687.283 6  97487390.71543  23807370.391                    23807381.277
 107034719.419 8  83403791.332 8  20368006.984                    20368014.195
 116150039.071 8  90506565.247 7  22102612.797                    22102622.672
 126842487.725 6  98838360.469 6  24137329.734                    24137338.918
 110621300.706 8  86198555.38346  21050502.133                    21050508.129
 116086904.799 7  90457386.07245  22090602.188                    22090610.453
 11  8 24  1 13  0.0000000  0  8G10G12G04G05G25G29G02G30
 115524139.418 7  90018983.83945  21983488.875                    21983497.672
 109256176.340 8  85134759.953 7  20790755.469                    20790762.523
 125188938.368 7  97549923.97243  23822641.688                    23822652.883
 107009258.352 8  83383951.568 8  20363161.945                    20363169.160
 116097407.947 8  90465553.995 7  22092596.969                    22092606.590
 126760407.546 7  98774401.947 6  24121709.547                    24121719.367
 110649151.848 8  86220257.56946  21055802.234                    21055808.059
 116041230.338 7  90421795.61545  22081910.688                    22081918.688
 11  8 24  1 13 30.0000000  0  8G10G12G04G05G25G29G02G30
 115602572.382 7  90080100.42345  21998414.367                    21998423.129
 109268648.271 8  85144478.350 7  20793128.766                    20793135.773
 125269143.867 6  97612421.67743  23837904.820                    23837915.465
 106984369.187 8  83364557.441 8  20358425.781                    20358432.797
 116045281.789 8  90424936.235 7  22082677.852                    22082687.926
 126678269.989 7  98710398.734 6  24106079.633                    24106089.297
 110677133.110 8  86242061.14646  21061126.773                    21061132.316
 115996115.873 7  90386641.52145  22073325.531                    22073334.059
 11  8 24  1 14  0.0000000  0  8G10G12G04G05G25G29G02G30
 115681419.745 7  90141539.91945  22013418.672                    22013427.691
 109281699.952 8  85154648.498 7  20795612.508                    20795619.414
 125349303.453 6  97674883.62843  23853158.500                    23853168.297
 106960051.867 8  83345608.916 8  20353798.406                    20353805.766
 115993662.529 8  90384713.453 7  22072854.992                    22072864.816
 126596076.609 7  98646352.021 6  24090439.023                    24090448.672
 110705243.935 8  86263965.67646  21066476.344                    21066481.617
 115951563.179 7  90351925.14845  22064847.680                    22064856.020
 11  8 24  1 14 30.0000000  0  8G10G12G04G05G25G29G02G30
 115760678.968 7  90203300.33745  22028500.781                    22028509.156
 109295330.275 8  85165269.535 7  20798205.922                    20798213.375
 125429416.523 7  97737309.30944  23868403.430                    23868414.449
 106936307.526 8  83327106.858 8  20349279.500                    20349287.176
 115942552.236 8  90344887.261 7  22063129.039                    22063138.887
 126513828.092 6  98582262.354 6  24074787.508                    24074796.676
 110733483.567 8  86285970.57846  21071849.961                    21071855.359
 115907573.840 7  90317647.76545  22056476.359                    22056485.402
 11  8 24  1 15  0.0000000  0  8G10G12G04G05G25G29G02G30
 115840346.832 7  90265379.19945  22043661.375                    22043669.508
 109309538.625 8  85176340.993 7  20800910.055                    20800917.055
 125509482.285 7  97799698.17143  23883639.570                    23883649.730
 106913136.221 8  83309051.330 8  20344870.352                    20344877.566
 115891952.182 7  90305458.664 7  22053499.664                    22053510.031
 126431525.180 6  98518130.317 6  24059125.625                    24059134.816
 110761850.726 8  86308074.85246  21077247.930                    21077254.160
 115864148.845 7  90283810.12545  22048212.805                    22048221.652
 11  8 24  1 15 30.0000000  0  8G10G12G04G05G25G29G02G30
 115920420.372 7  90327774.15845  22058899.180                    22058907.352
 109324324.918 8  85187862.786 7  20803723.688                    20803730.520
 125589500.019 7  97862049.62343  23898866.328                    23898876.277
 106890537.957 8  83291442.332 8  20340570.352                    20340577.660
 115841864.038 8  90266428.966 7  22043968.445                    22043978.633
 126349168.984 6  98453956.746 6  24043452.844                    24043462.773
 110790344.547 8  86330277.82346  21082670.406                    21082676.023
 115821289.452 7  90250413.20645  22040057.250                    22040065.371
 11  8 24  1 16  0.0000000  0  8G10G12G04G05G25G29G02G30
 116000897.441 7  90390483.58445  22074213.055                    22074220.910
 109339688.371 8  85199834.302 7  20806647.336                    20806654.363
 125669469.522 7  97924363.45743  23914085.070                    23914093.738
 106868513.695 8  83274280.596 8  20336378.742                    20336386.031
 115792289.724 8  90227799.648 7  22034535.078                    22034544.934
 126266760.462 6  98389742.409 6  24027771.516                    24027780.922
 110818964.589 8  86352579.15446  21088116.641                    21088122.418
 115778997.364 7  90217458.34245  22032009.258                    22032018.098
 11  8 24  1 16 30.0000000  0  8G10G12G04G05G25G29G02G30
 116081775.159 7  90453505.17845  22089603.656                    22089612.035
 109355628.674 8  85212255.316 7  20809680.453                    20809687.660
 125749390.300 6  97986639.34743  23929292.969                    23929302.227
 106847064.025 8  83257566.601 8  20332296.930                    20332304.789
 115743231.175 8  90189572.225 7  22025199.469                    22025209.488
 126184300.694 6  98325488.107 6  24012080.188                    24012089.289
 110847710.252 8  86374978.37646  21093586.945                    21093592.836
 115737273.987 7  90184946.63545  22024069.406                    22024077.906
 11  8 24  1 17  0.0000000  0  8G10G12G04G05G25G29G02G30
 116163050.672 7  90516836.71844  22105069.320                    22105077.980
 109372144.786 8  85225125.023 7  20812823.273                    20812830.379
 125829261.936 7  98048876.92443  23944492.211                    23944502.512
 106826189.293 8  83241300.607 8  20328324.781                    20328332.027
 115694690.042 8  90151747.983 7  22015962.344                    22015972.340
 126101790.672 6  98261194.679 6  23996379.047                    23996388.383
 110876580.696 8  86397474.83346  21099080.430                    21099086.082
 115696120.718 7  90152879.15845  22016238.219                    22016247.141
 11  8 24  1 17 30.0000000  0  8G10G12G04G05G25G29G02G30
 116244720.158 7  90580475.25345  22120611.063                    22120619.480
 109389235.560 8  85238442.496 7  20816075.734                    20816082.703
 125909083.062 6  98111075.17843  23959681.430                    23959691.367
 106805888.866 8  83225482.132 8  20324461.531                    20324468.820
 115646667.116 8  90114327.546 7  22006824.000                    22006833.664
 126019230.451 6  98196862.125 6  23980668.563                    23980676.695
 110905573.829 8  86420066.87646  21104597.664                    21104603.379
 115655538.028 7  90121256.30745  22008515.695                    22008524.082
 11  8 24  1 18  0.0000000  0  8G10G12G04G05G25G29G02G30
 116326781.826 7  90644419.39845  22136226.969                    22136235.238
 109406901.369 8  85252208.058 7  20819437.523                    20819444.398
 125988853.964 6  98173234.27543  23974861.219                    23974871.164
 106786163.937 8  83210112.098 8  20320707.961                    20320715.270
 115599164.854 8  90077312.823 7  21997784.242                    21997794.230
 125936622.150 6  98132492.065 6  23964948.211                    23964957.262
 110934690.394 8  86442755.11646  21110138.539                    21110143.566
 115615527.932 7  90090079.62545  22000902.141                    22000910.430
 11  8 24  1 18 30.0000000  0  8G10G12G04G05G25G29G02G30
 116409233.074 7  90708667.11345  22151916.805                    22151925.344
 109425141.314 8  85266420.988 7  20822908.375                    20822915.684
 126068574.187 6  98235353.89143  23990031.320                    23990041.273
 106767015.080 8  83195190.931 8  20317064.406                    20317071.305
 115552185.104 8  90040705.243 7  21988844.156                    21988854.180
 125853966.407 7  98068085.050 6  23949219.719                    23949228.230
 110963929.508 8  86465538.84846  21115702.203                    21115708.395
 115576091.838 7  90059350.20345  21993397.797                    21993406.109
 11  8 24  1 19  0.0000000  0  8G10G12G04G05G25G29G02G30
 116492070.882 7  90773216.03144  22167680.211                    22167688.367
 109443954.371 8  85281080.503 7  20826488.219                    20826495.770
 126148242.983 6  98297433.45543  24005192.008                    24005202.316
 106748442.057 8  83180718.478 8  20313529.938                    20313537.082
 115505729.070 8  90004505.753 7  21980004.008                    21980014.441
 125771264.168 7  98003641.764 6  23933481.789                    23933490.664
 110993290.066 8  86488417.20146  21121289.719                    21121294.902
 115537230.675 7  90029068.78645  21986002.500                    21986011.539
 11  8 24  1 19 30.0000000  0  8G10G12G04G05G25G29G02G30
 116575291.955 7  90838063.61345  22183517.016                    22183525.246
 109463339.495 8  85296185.785 7  20830177.211                    20830184.477
 126227859.600 6  98359472.31843  24020341.664                    24020352.887
 106730444.594 8  83166694.520 8  20310104.656                    20310112.074
 115459797.905 8  89968715.269 7  21971263.563                    21971274.457
 125688515.938 7  97939162.654 6  23917734.508                    23917744.238
 111022770.657 8  86511389.10246  21126899.508                    21126905.215
 115498945.165 7  89999235.94345  21978717.156                    21978725.727
 11  8 24  1 20  0.0000000  0  8G10G12G04G05G25G29G02G30
 116658894.119 7  90903208.14045  22199425.516                    22199434.117
 109483296.101 8  85311736.379 7  20833974.734                    20833981.914
 126307424.098 6  98421470.56643  24035483.008                    24035493.313
 106713023.621 8  83153119.773 8  20306789.609                    20306797.324
 115414393.796 8  89933335.477 7  21962623.578                    21962633.887
 125605723.051 7  97874648.747 6  23901980.211                    23901989.555
 111052371.256 8  86534454.50746  21132532.359                    21132538.012
 115461237.150 7  89969853.09745  21971541.352                    21971549.883
 11  8 24  1 20 30.0000000  0  8G10G12G04G05G25G29G02G30
 116742874.342 7  90968647.26045  22215406.742                    22215414.844
 109503823.679 8  85327731.893 7  20837881.344                    20837888.113
 126386935.744 6  98483427.60843  24050613.867                    24050624.426
 106696179.105 8  83139994.191 8  20303584.211                    20303591.934
 115369518.113 8  89898367.445 7  21954083.836                    21954093.879
 125522886.699 7  97810100.970 6  23886216.852                    23886226.555
 111082090.964 8  86557612.72646  21138187.727                    21138193.453
 115424107.633 7  89940921.02945  21964475.930                    21964483.930
 11  8 24  1 21  0.0000000  0  8G10G12G04G05G25G29G02G30
 116827229.416 7  91034378.46945  22231459.078                    22231468.023
 109524920.870 8  85344171.242 7  20841895.906                    20841902.723
 126466393.840 6  98545342.95343  24065733.680                    24065744.449
 106679910.855 8  83127317.658 8  20300488.719                    20300496.395
 115325172.022 7  89863812.086 7  21945645.188                    21945655.047
 125440007.866 7  97745520.099 6  23870446.070                    23870454.508
 111111928.669 8  86580862.89446  21143865.664                    21143871.465
 115387557.310 7  89912440.29245  21957520.945                    21957529.145
 11  8 24  1 21 30.0000000  0  8G10G12G04G05G25G29G02G30
 116911956.480 7  91100399.53945  22247581.984                    22247590.250
 109546586.725 8  85361053.714 7  20846018.797                    20846025.965
 126545798.008 6  98607216.26143  24080844.250                    24080854.668
 106664219.077 7  83115090.324 8  20297502.633                    20297509.836
 115281357.118 7  89829670.645 7  21937307.344                    21937317.305
 125357087.673 7  97680906.995 6  23854666.609                    23854675.820
 111141883.661 8  86604204.46246  21149565.930                    21149571.418
 115351587.370 7  89884411.79045  21950675.539                    21950684.098
 11  8 24  1 22  0.0000000  0  8G10G12G04G05G25G29G02G30
 116997053.052 7  91166708.52545  22263775.469                    22263783.875
 109568820.774 8  85378378.940 7  20850249.438                    20850256.855
 126625147.974 6  98669047.36543  24095943.531                    24095954.762
 106649104.375 8  83103312.657 8  20294626.141                    20294633.301
 115238074.967 8  89795944.331 7  21929071.008                    21929081.051
 125274127.137 7  97616262.469 6  23838879.594                    23838888.270
 111171955.503 8  86627637.06346  21155288.695                    21155294.266
 115316199.052 7  89856836.51645  21943941.523                    21943950.199
 11  8 24  1 22 30.0000000  0  8G10G12G04G05G25G29G02G30
 117082516.671 7  91233303.50545  22280038.445                    22280047.289
 109591622.589 8  85396146.581 7  20854588.813                    20854595.613
 126704443.813 6  98730836.22143  24111032.992                    24111044.828
 106634566.760 8  83091984.669 8  20291859.945                    20291867.352
 115195327.634 8  89762634.763 7  21920936.391                    21920946.430
 125191127.592 7  97551587.569 6  23823085.305                    23823094.309
 111202144.233 8  86651160.76146  21161033.414                    21161038.625
 115281393.969 7  89829715.70945  21937318.609                    21937326.980
 11  8 24  1 23  0.0000000  0  8G10G12G04G05G25G29G02G30
 117168343.724 7  91300181.72344  22296370.500                    22296379.566
 109614990.412 8  85414355.270 7  20859035.273                    20859042.590
 126783684.279 6  98792581.95843  24126113.750                    24126122.969
 106620605.808 8  83081106.017 8  20289203.273                    20289210.598
 115153115.667 8  89729742.342 7  21912903.789                    21912913.609
 125108089.614 7  97486882.735 6  23807283.281                    23807292.898
 111232447.863 8  86674773.98346  21166799.500                    21166805.023
 115247172.219 7  89803049.42945  21930806.461                    21930814.227
 11  8 24  1 23 30.0000000  0  8G10G12G04G05G25G29G02G30
 117254531.267 7  91367340.81445  22312772.086                    22312780.363
 109638923.284 8  85433004.250 7  20863589.406                    20863596.930
 126862869.082 6  98854284.33944  24141181.297                    24141191.656
 106607221.417 8  83070676.646 8  20286656.086                    20286663.488
 115111440.534 8  89697268.234 7  21904973.219                    21904983.820
 125025014.118 7  97422148.668 6  23791474.445                    23791483.738
 111262865.738 8  86698476.23146  21172587.922                    21172593.258
 115213534.956 7  89776838.60545  21924405.320                    21924413.684
 11  8 24  1 24  0.0000000  0  8G10G12G04G05G25G29G02G30
 117341076.996 7  91434779.01144  22329240.703                    22329248.992
 109663420.351 8  85452092.858 7  20868251.508                    20868258.801
 126941997.989 6  98915943.18244  24156239.430                    24156249.910
 106594413.938 8  83060696.807 8  20284218.820                    20284225.930
 115070303.958 8  89665213.795 7  21897144.898                    21897155.496
 124941902.852 7  97357386.728 6  23775659.023                    23775668.105
 111293397.634 8  86722267.33446  21178397.852                    21178403.664
 115180483.357 7  89751084.14345  21918115.852                    21918123.715
 11  8 24  1 24 30.0000000  0  8G10G12G04G05G25G29G02G30
 117427977.417 7  91502493.60744  22345777.227                    22345785.531
 109688480.542 8  85471620.267 7  20873020.461                    20873027.598
 127021070.588 7  98977558.15644  24171286.055                    24171296.191
 106582183.101 8  83051166.311 8  20281891.477                    20281899.117
 115029707.008 8  89633579.828 7  21889419.625                    21889430.094
 124858756.517 7  97292597.455 6  23759837.031                    23759845.750
 111324042.627 8  86746146.54746  21184229.453                    21184235.211
 115148018.059 7  89725786.54545  21911938.078                    21911945.945
 11  8 24  1 25  0.0000000  0  8G10G12G04G05G25G29G02G30
 117515230.003 7  91570482.61544  22362381.305                    22362389.688
 109714102.936 8  85491585.767 7  20877895.883                    20877903.039
 127100086.500 7  99039128.97743  24186322.367                    24186332.211
 106570529.040 8  83042085.248 8  20279673.930                    20279681.176
 114989651.251 8  89602367.571 7  21881797.281                    21881807.871
 124775576.303 7  97227781.783 6  23744007.836                    23744017.555
 111354800.127 8  86770113.44446  21190082.570                    21190088.570
 115116140.270 7  89700946.71545  21905871.719                    21905879.547
 11  8 24  1 25 30.0000000  0  9G26G10G12G04G05G25G29G02G30
 130548758.24615 101726358.27452  24842604.977                    24842616.824
 117602831.679 6  91638743.63044  22379051.219                    22379059.930
 109740286.447 8  85511988.500 7  20882878.273                    20882885.570
 127179044.955 7  99100655.01443  24201347.500                    24201358.418
 106559451.369 8  83033453.321 8  20277566.078                    20277573.305
 114950137.540 8  89571577.681 7  21874277.883                    21874288.160
 124692362.830 7  97162940.155 6  23728173.422                    23728182.176
 111385668.887 8  86794167.02946  21195956.477                    21195962.113
 115084850.393 7  89676565.00845  21899917.516                    21899925.191
 11  8 24  1 26  0.0000000  0  9G26G10G12G04G05G25G29G02G30
 130457403.38414 101655172.74752  24825219.523                    24825233.328
 117690780.744 7  91707275.34145  22395787.242                    22395796.277
 109767030.540 7  85532828.054 7  20887967.594                    20887975.297
 127257946.776 6  99162136.91743  24216361.922                    24216372.473
 106548951.120 8  83025271.331 8  20275567.523                    20275575.094
 114911168.496 8  89541212.217 7  21866862.609                    21866872.313
 124609118.378 7  97098074.405 6  23712332.023                    23712341.344
 111416650.070 8  86818308.22346  21201852.445                    21201857.625
 115054150.577 7  89652643.10845  21894075.102                    21894083.395
 11  8 24  1 26 30.0000000  0  9G26G10G12G04G05G25G29G02G30
 130365906.86315 101583876.98252  24807809.781                    24807821.965
 117779073.411 7  91776074.76745  22412589.203                    22412598.063
 109794333.378 7  85554102.984 7  20893163.320                    20893170.844
 127336790.711 6  99223573.70943  24231364.414                    24231376.383
 106539027.220 8  83017538.440 8  20273678.984                    20273686.434
 114872744.406 8  89511271.386 7  21859550.719                    21859560.996
 124525843.781 7  97033185.142 6  23696485.773                    23696494.305
 111447741.286 8  86842535.15946  21207768.516                    21207774.484
 115024040.631 7  89629180.83145  21888345.367                    21888353.367
 11  8 24  1 27  0.0000000  0  9G26G10G12G04G05G25G29G02G30
 130274271.447 5 101512472.97942  24790371.688                    24790383.949
 117867706.674 7  91845139.62944  22429455.375                    22429464.070
 109822193.911 8  85575812.485 7  20898464.844                    20898472.668
 127415576.498 6  99284965.20343  24246358.195                    24246368.184
 106529679.583 8  83010254.595 8  20271900.242                    20271907.852
 114834866.516 8  89481756.161 7  21852342.867                    21852352.715
 124442539.897 7  96968273.047 6  23680633.203                    23680642.355
 111478942.158 8  86866847.53746  21213705.664                    21213711.555
 114994521.422 7  89606178.86245  21882728.172                    21882736.238
 11  8 24  1 27 30.0000000  0  9G26G10G12G04G05G25G29G02G30
 130182500.092 6 101440962.95042  24772907.461                    24772919.941
 117956677.671 7  91914467.65944  22446386.266                    22446393.613
 109850610.857 8  85597955.550 7  20903872.445                    20903879.746
 127494303.790 6  99346311.15343  24261339.813                    24261350.145
 106520908.105 8  83003419.697 8  20270231.234                    20270238.859
 114797536.158 8  89452667.573 7  21845238.883                    21845249.453
 124359207.840 7  96903338.986 6  23664775.734                    23664784.945
 111510251.924 8  86891244.75946  21219663.930                    21219669.789
 114965593.839 7  89583637.89445  21877223.266                    21877232.035
 11  8 24  1 28  0.0000000  0  9G26G10G12G04G05G25G29G02G30
 130090595.640 6 101369349.20342  24755419.211                    24755430.691
 118045983.743 7  91984056.78944  22463380.141                    22463388.020
 109879583.413 8  85620531.566 7  20909385.648                    20909393.023
 127572972.235 6  99407611.21843  24276308.922                    24276320.352
 106512712.569 8  82997033.580 8  20268671.719                    20268679.105
 114760754.621 8  89424006.638 7  21838240.078                    21838249.867
 124275848.738 7  96838383.819 6  23648913.117                    23648921.238
 111541670.414 7  86915726.70546  21225642.484                    21225648.348
 114937258.695 7  89561558.57745  21871831.430                    21871839.668
 11  8 24  1 28 30.0000000  0  9G26G10G12G04G05G25G29G02G30
 129998560.659 6 101297633.86242  24737905.570                    24737916.438
 118135621.601 7  92053904.45744  22480438.133                    22480446.859
 109909109.953 7  85643539.261 7  20915004.523                    20915012.020
 127651581.248 6  99468865.01143  24291268.164                    24291278.672
 106505092.148 8  82991095.609 8  20267221.773                    20267228.723
 114724522.729 8  89395774.007 7  21831345.125                    21831355.535
 124192464.012 7  96773408.741 6  23633045.367                    23633054.465
 111573196.570 7  86940292.55946  21231641.961                    21231647.418
 114909516.329 7  89539941.15145  21866552.250                    21866560.094
 11  8 24  1 29  0.0000000  0  9G26G10G12G04G05G25G29G02G30
 129906398.235 6 101225819.06642  24720366.961                    24720378.285
 118225588.759 7  92124008.68044  22497558.188                    22497566.914
 109939189.506 8  85666977.875 7  20920728.656                    20920735.895
 127730130.799 6  99530072.35642  24306215.625                    24306226.008
 106498047.330 8  82985606.149 8  20265880.969                    20265888.527
 114688842.017 8  89367970.861 7  21824555.047                    21824565.344
 124109054.764 7  96708414.530 6  23617173.313                    23617181.980
 111604830.001 8  86964941.99646  21237661.711                    21237667.734
 114882367.832 7  89518786.49045  21861386.188                    21861394.523
 11  8 24  1 29 30.0000000  0  9G26G10G12G04G05G25G29G02G30
 129814111.014 6 101153907.09343  24702805.805                    24702816.656
 118315882.182 7  92194367.17144  22514740.758                    22514748.715
 109969820.644 8  85690846.292 7  20926557.453                    20926564.691
 127808620.467 6  99591233.08742  24321152.016                    24321162.605
 106491577.492 8  82980564.751 8  20264649.438                    20264656.984
 114653713.484 7  89340597.976 7  21817870.523                    21817880.926
 124025622.061 7  96643402.029 6  23601296.703                    23601304.730
 111636569.822 8  86989674.34246  21243701.555                    21243707.027
 114855813.700 7  89498094.97945  21856332.648                    21856341.313
 11  8 24  1 30  0.0000000  0  9G26G10G12G04G05G25G29G02G30
 129721701.988 6 101081900.25243  24685220.250                    24685231.516
 118406498.790 7  92264977.47844  22531984.211                    22531992.926
 110001002.089 8  85715143.508 7  20932491.102                    20932498.551
 127887049.918 6  99652346.92042  24336076.141                    24336086.820
 106485682.384 8  82975971.165 8  20263527.953                    20263535.566
 114619138.255 8  89313656.238 7  21811291.039                    21811301.145
 123942167.226 7  96578372.334 6  23585415.523                    23585424.340
 111668415.584 8  87014489.23046  21249761.711                    21249767.402
 114829854.635 7  89477867.13645  21851393.211                    21851401.027
 11  8 24  1 30 30.0000000  0  9G26G10G12G04G05G25G29G02G30
 129629174.201 6 101009800.81243  24667613.172                    24667624.672
 118497435.909 7  92335837.54444  22549289.359                    22549297.676
 110032732.885 8  85739868.801 7  20938529.320                    20938537.172
 127965419.279 6  99713413.90942  24350989.453                    24351000.297
 106480362.243 8  82971825.621 8  20262515.625                    20262522.516
 114585117.662 8  89287146.693 7  21804817.070                    21804827.293
 123858691.626 7  96513326.468 6  23569530.070                    23569539.313
 111700366.756 8  87039386.25946  21255841.758                    21255847.152
 114804491.432 7  89458103.61045  21846566.203                    21846574.430
 11  8 24  1 31  0.0000000  0  9G26G10G12G04G05G25G29G02G30
 129536530.137 6 100937610.71743  24649983.813                    24649995.820
 118588690.288 6  92406944.80944  22566654.242                    22566662.871
 110065011.000 7  85765020.574 7  20944671.438                    20944679.203
 128043727.634 6  99774433.33442  24365892.063                    24365901.801
 106475615.676 8  82968127.007 8  20261612.141                    20261619.633
 114551652.340 8  89261069.824 7  21798448.961                    21798458.887
 123775196.293 7  96448265.236 6  23553642.078                    23553650.230
 111732422.403 7  87064364.70146  21261941.508                    21261947.063
 114779724.323 7  89438804.57945  21841853.156                    21841861.852
 11  8 24  1 31 30.0000000  0  9G26G10G12G04G05G25G29G02G30
 129443772.890 6 100865332.44843  24632332.289                    24632344.621
 118680259.219 7  92478297.19544  22584078.734                    22584087.590
 110097835.465 8  85790598.074 7  20950917.789                    20950925.355
 128121974.931 6  99835405.25443  24380781.703                    24380792.082
 106471442.731 8  82964875.383 8  20260818.289                    20260825.375
 114518743.538 8  89235426.605 7  21792186.656                    21792196.543
 123691682.616 6  96383189.691 6  23537749.906                    23537758.398
 111764582.175 8  87089424.27446  21268061.008                    21268066.980
 114755554.077 7  89419970.61345  21837254.031                    21837262.449
 11  8 24  1 32  0.0000000  0  9G26G10G12G04G05G25G29G02G30
 129350905.376 6 100792968.31543  24614660.641                    24614670.973
 118772139.974 7  92549892.52844  22601563.625                    22601571.770
 110131204.745 8  85816600.096 7  20957267.742                    20957275.090
 128200160.915 6  99896329.34743  24395658.844                    24395671.246
 106467843.173 8  82962070.546 8  20260133.148                    20260140.547
 114486392.392 8  89210217.905 7  21786030.398                    21786040.469
 123608151.871 7  96318100.866 6  23521854.008                    23521863.191
 111796845.434 8  87114564.48946  21274200.648                    21274206.125
 114731981.254 7  89401602.17145  21832768.242                    21832776.301
 11  8 24  1 32 30.0000000  0  9G26G10G12G04G05G25G29G02G30
 129257930.481 6 100720520.49243  24596967.125                    24596978.641
 118864329.514 7  92621728.50444  22619106.398                    22619114.918
 110165117.777 7  85843025.834 7  20963721.172                    20963728.621
 128278285.494 6  99957205.56343  24410526.297                    24410537.012
 106464816.358 8  82959712.007 8  20259557.133                    20259564.320
 114454599.790 8  89185444.448 7  21779980.531                    21779990.719
 123524605.310 6  96252999.731 6  23505955.648                    23505964.910
 111829211.782 7  87139785.02946  21280359.695                    21280365.559
 114709006.267 7  89383699.59345  21828396.313                    21828404.934
 11  8 24  1 33  0.0000000  0  9G26G10G12G04G05G25G29G02G30
 129164851.097 6 100647991.25643  24579254.398                    24579266.289
 118956824.914 6  92693802.81144  22636708.047                    22636716.520
 110199572.711 8  85869873.820 7  20970277.820                    20970284.852
 128356348.158 6 100018033.54643  24425382.383                    24425391.266
 106462361.701 8  82957799.311 8  20259090.102                    20259097.219
 114423366.607 7  89161106.900 7  21774036.734                    21774046.824
 123441044.113 7  96187887.205 6  23490054.633                    23490063.539
 111861680.237 7  87165085.12046  21286538.211                    21286544.074
 114686629.657 7  89366263.26545  21824138.406                    21824147.113
 11  8 24  1 33 30.0000000  0  9G26G10G12G04G05G25G29G02G30
 129071670.251 5 100575382.92443  24561522.172                    24561533.883
 119049623.423 6  92766113.29644  22654367.320                    22654375.770
 110234568.385 8  85897143.166 7  20976937.094                    20976945.035
 128434348.661 6 100078813.13343  24440224.594                    24440235.070
 106460479.079 8  82956332.347 8  20258731.875                    20258738.785
 114392694.013 8  89137206.174 7  21768200.156                    21768210.188
 123357469.915 7  96122764.536 6  23474150.648                    23474159.582
 111894250.365 7  87190464.44946  21292736.469                    21292741.805
 114664851.881 7  89349293.56845  21819994.203                    21820002.297
 11  8 24  1 34  0.0000000  0  9G26G10G12G04G05G25G29G02G30
 128978390.913 5 100502697.89743  24543772.344                    24543783.461
 119142722.136 7  92838657.70844  22672083.109                    22672091.855
 110270103.349 8  85924832.745 7  20983699.578                    20983706.641
 128512287.133 7 100139544.38743  24455055.242                    24455065.980
 106459167.887 8  82955310.667 8  20258482.125                    20258489.406
 114362582.948 8  89113743.002 7  21762470.383                    21762480.195
 123273883.671 7  96057632.475 6  23458244.977                    23458254.027
 111926921.979 7  87215922.86546  21298953.305                    21298959.109
 114643673.482 7  89332790.93245  21815963.938                    21815972.426
 11  8 24  1 34 30.0000000  0  9G26G10G12G04G05G25G29G02G30
 128885016.099 5 100429938.42643  24526003.469                    24526015.027
 119236117.809 7  92911433.52044  22689855.203                    22689864.293
 110306175.859 7  85952941.186 7  20990563.531                    20990571.086
 128590162.984 7 100200226.82343  24469874.828                    24469885.336
 106458427.567 8  82954733.819 8  20258341.172                    20258348.695
 114333034.188 8  89090717.986 7  21756847.273                    21756856.949
 123190286.784 7  95992492.131 6  23442337.047                    23442345.773
 111959693.790 7  87241459.34646  21305189.695                    21305195.250
 114623094.718 8  89316755.53645  21812047.828                    21812056.297
 11  8 24  1 35  0.0000000  0  9G26G10G12G04G05G25G29G02G30
 128791548.644 6 100357106.75143  24508216.625                    24508229.270
 119329808.045 7  92984438.83444  22707684.414                    22707693.742
 110342784.419 8  85981467.321 7  20997529.938                    20997537.504
 128667976.196 7 100260860.44244  24484682.266                    24484692.992
 106458257.632 8  82954601.428 8  20258309.242                    20258316.141
 114304048.698 8  89068131.897 7  21751331.742                    21751341.641
 123106680.743 7  95927344.625 6  23426426.531                    23426435.797
 111992565.713 7  87267073.82746  21311445.148                    21311450.180
 114603116.011 8  89301187.71445  21808246.023                    21808254.340
 11  8 24  1 35 30.0000000  0  9G26G10G12G04G05G25G29G02G30
 128697991.661 6 100284205.27742  24490413.711                    24490425.117
 119423789.854 7  93057671.37944  22725568.609                    22725577.070
 110379927.829 8  86010410.218 7  21004598.344                    21004605.695
 128745726.372 7 100321444.96143  24499477.469                    24499488.320
 106458657.378 8  82954912.943 8  20258385.000                    20258392.449
 114275627.283 7  89045985.351 7  21745923.250                    21745933.223
 123023066.648 7  95862190.858 6  23410516.266                    23410525.035
 112025537.518 7  87292766.14346  21317719.367                    21317724.879
 114583737.763 7  89286087.77445  21804558.789                    21804566.832
 11  8 24  1 36  0.0000000  0  9G26G10G12G04G05G25G29G02G30
 128604348.052 6 100211236.35543  24472594.336                    24472604.613
 119518060.112 6  93131128.69144  22743507.633                    22743516.199
 110417604.202 8  86039768.436 7  21011767.969                    21011775.434
 128823413.278 7 100381980.21643  24514260.930                    24514271.645
 106459626.222 8  82955667.913 8  20258569.531                    20258576.570
 114247770.827 8  89024279.018 7  21740622.039                    21740632.191
 122939445.789 6  95797031.842 6  23394603.023                    23394611.637
 112058608.456 7  87318535.70446  21324012.547                    21324018.406
 114564960.275 8  89271455.95045  21800985.422                    21800993.746
 11  8 24  1 36 30.0000000  0  9G26G10G12G04G05G25G29G02G30
 128510620.708 6 100138202.17042  24454758.320                    24454769.289
 119612615.898 6  93204808.48744  22761501.188                    22761509.816
 110455811.680 8  86069540.494 7  21019038.570                    21019045.469
 128901036.785 6 100442466.01643  24529032.547                    24529042.863
 106461163.307 7  82956865.669 8  20258861.625                    20258869.254
 114220479.817 8  89003013.301 7  21735428.734                    21735438.605
 122855819.568 6  95731868.603 6  23378689.352                    23378697.941
 112091777.652 7  87344381.81846  21330324.609                    21330330.324
 114546783.487 7  89257292.22145  21797526.422                    21797534.992
 11  8 24  1 37  0.0000000  0  9G26G10G12G04G05G25G29G02G30
 128416812.750 6 100065105.09342  24436907.008                    24436918.156
 119707454.300 6  93278708.51744  22779548.313                    22779556.715
 110494549.145 8  86099725.509 7  21026410.375                    21026417.484
 128978596.595 6 100502902.20043  24543792.203                    24543802.223
 106463268.053 8  82958505.759 8  20259262.375                    20259269.734
 114193755.368 8  88982189.064 7  21730343.477                    21730353.984
 122772189.389 6  95666702.296 6  23362774.953                    23362783.766
 112125044.668 7  87370304.15946  21336655.266                    21336660.699
 114529208.055 8  89243597.08545  21794182.070                    21794190.578
 11  8 24  1 37 30.0000000  0  9G26G10G12G04G05G25G29G02G30
 128322927.235 6  99991947.63643  24419041.633                    24419051.883
 119802572.458 6  93352826.55144  22797648.180                    22797656.793
 110533814.754 8  86130322.078 7  21033882.023                    21033889.656
 129056092.734 6 100563288.74643  24558538.594                    24558549.059
 106465940.174 8  82960587.972 8  20259770.820                    20259777.785
 114167598.285 8  88961806.921 7  21725365.930                    21725375.543
 122688556.664 6  95601533.973 6  23346860.141                    23346869.156
 112158409.115 7  87396302.42146  21343004.109                    21343009.496
 114512234.187 8  89230370.69145  21790952.000                    21790959.820
 11  8 24  1 38  0.0000000  0  9G26G10G12G04G05G25G29G02G30
 128228967.264 6  99918732.17543  24401161.625                    24401171.152
 119897967.333 6  93427160.19144  22815801.484                    22815810.117
 110573606.656 8  86161328.751 7  21041454.125                    21041461.746
 129133524.898 6 100623625.48043  24573273.148                    24573283.875
 106469178.657 8  82963111.494 8  20260386.750                    20260394.383
 114142009.077 8  88941867.293 7  21720496.570                    21720506.191
 122604922.647 6  95536364.649 6  23330945.133                    23330954.094
 112191870.365 8  87422376.11646  21349371.766                    21349377.270
 114495861.922 8  89217613.09245  21787836.516                    21787844.234
 11  8 24  1 38 30.0000000  0  9G26G10G12G04G05G25G29G02G30
 128134935.822 6  99845461.05143  24383268.102                    24383278.395
 119993636.288 6  93501707.39544  22834006.930                    22834015.594
 110613923.313 8  86192744.326 7  21049126.234                    21049133.820
 129210893.052 6 100683912.33442  24587995.023                    24588006.898
 106472982.820 8  82966075.812 8  20261110.820                    20261117.820
 114116988.627 8  88922370.846 7  21715735.398                    21715745.313
 122521289.019 6  95471195.632 6  23315030.094                    23315038.957
 112225428.000 7  87448524.91846  21355756.961                    21355762.770
 114480091.561 8  89205324.50445  21784835.406                    21784843.617
 11  8 24  1 39  0.0000000  0  9G26G10G12G04G05G25G29G02G30
 128040835.913 6  99772136.60243  24365360.414                    24365372.223
 120089576.360 6  93576465.87544  22852263.102                    22852272.652
 110654763.279 8  86224567.673 7  21056897.930                    21056905.504
 129288197.013 5 100744149.15542  24602706.266                    24602717.234
 106477351.897 8  82969480.313 8  20261942.352                    20261949.363
 114092537.546 8  88903318.083 7  21711082.234                    21711092.668
 122437657.025 6  95406027.876 6  23299115.789                    23299124.234
 112259081.638 8  87474748.52046  21362161.305                    21362167.141
 114464923.271 8  89193505.06945  21781948.977                    21781956.555
 11  8 24  1 39 30.0000000  0  9G26G10G12G04G05G25G29G02G30
 127946670.751 6  99698761.26343  24347441.297                    24347452.805
 120185784.659 7  93651433.35444  22870571.602                    22870580.242
 110696124.621 8  86256797.276 7  21064768.656                    21064776.184
 129365436.373 6 100804335.69243  24617404.047                    24617416.039
 106482285.096 8  82973324.398 8  20262881.109                    20262888.266
 114068656.516 8  88884709.517 7  21706538.086                    21706548.016
 122354028.245 7  95340862.633 6  23283201.477                    23283210.738
 112292830.659 7  87501046.44846  21368583.852                    21368589.039
 114450357.132 8  89182154.84045  21779177.250                    21779185.410
 11  8 24  1 40  0.0000000  0  9G26G10G12G04G05G25G29G02G30
 127852443.397 6  99625337.52843  24329510.477                    24329521.512
 120282258.464 6  93726607.71644  22888930.148                    22888938.676
 110738005.588 8  86289431.786 7  21072738.289                    21072745.797
 129442611.031 6 100864471.79042  24632089.430                    24632101.348
 106487781.630 8  82977607.440 8  20263927.086                    20263934.277
 114045346.237 8  88866545.681 7  21702102.227                    21702112.188
 122270403.903 7  95275700.830 6  23267288.867                    23267296.816
 112326674.890 7  87527418.56646  21375024.055                    21375029.594
 114436393.302 8  89171273.93645  21776520.133                    21776527.738
 11  8 24  1 40 30.0000000  0  9G26G10G12G04G05G25G29G02G30
 127758156.770 6  99551867.63543  24311567.859                    24311579.043
 120378994.345 7  93801986.30344  22907338.391                    22907346.926
 110780404.161 8  86322469.623 7  21080806.453                    21080813.891
 129519720.693 6 100924557.22242  24646763.938                    24646775.098
 106493840.303 8  82982328.511 8  20265079.813                    20265087.016
 114022607.034 8  88848826.836 7  21697774.844                    21697785.129
 122186785.458 7  95210543.637 6  23251376.648                    23251384.953
 112360613.334 7  87553864.08445  21381482.063                    21381487.965
 114423031.553 8  89160862.19145  21773977.164                    21773985.289
 11  8 24  1 41  0.0000000  0  9G26G10G12G04G05G25G29G02G30
 127663814.180 7  99478354.07943  24293615.906                    24293626.629
 120475989.920 6  93877567.23344  22925796.086                    22925804.816
 110823319.080 8  86355909.818 7  21088972.820                    21088980.547
 129596765.735 6 100984592.30642  24661425.156                    24661436.250
 106500461.040 8  82987487.547 8  20266340.008                    20266346.855
 114000439.784 8  88831553.667 7  21693556.648                    21693566.574
 122103174.464 7  95145392.272 6  23235465.781                    23235474.918
 112394645.840 8  87580382.91646  21387958.695                    21387963.738
 114410272.289 7  89150919.92245  21771549.086                    21771557.457
 11  8 24  1 41 30.0000000  0  9G26G10G12G04G05G25G29G02G30
 127569419.113 7  99404799.56943  24275652.969                    24275663.820
 120573242.524 6  93953348.49244  22944301.719                    22944311.141
 110866749.071 8  86389751.365 7  21097237.367                    21097244.441
 129673746.121 6 101044577.00043  24676073.695                    24676085.563
 106507643.005 8  82993083.901 8  20267706.813                    20267713.832
 113978845.424 8  88814726.917 7  21689447.414                    21689457.457
 122019572.898 6  95080248.249 6  23219556.719                    23219565.238
 112428772.574 8  87606975.19046  21394452.508                    21394458.199
 114398115.827 8  89141447.36245  21769235.695                    21769243.824
 11  8 24  1 42  0.0000000  0  8G26G10G12G05G25G29G02G30
 127474974.659 7  99331206.61943  24257681.227                    24257690.457
 120670749.516 6  94029327.92644  22962857.391                    22962866.027
 110910691.436 8  86423992.151 7  21105599.063                    21105606.699
 106515385.527 8  82999117.060 8  20269179.555                    20269186.918
 113957824.504 8  88798347.011 7  21685446.977                    21685457.000
 121935981.884 7  95015112.426 6  23203650.289                    23203658.578
 112462993.049 8  87633640.49746  21400964.797                    21400970.613
 114386562.196 8  89132444.53345  21767037.211                    21767045.480
 11  8 24  1 42 30.0000000  0  8G26G10G12G05G25G29G02G30
 127380483.350 7  99257577.15243  24239700.406                    24239708.320
 120768507.127 7  94105502.69344  22981459.789                    22981468.941
 110955143.979 8  86458630.483 7  21114058.219                    21114065.961
 106523686.604 8  83005585.450 8  20270759.422                    20270766.613
 113937376.786 8  88782413.742 7  21681555.906                    21681565.684
 121852402.375 6  94949985.580 6  23187744.406                    23187753.801
 112497305.939 8  87660377.83346  21407494.305                    21407499.789
 114375610.662 7  89123910.87845  21764953.148                    21764961.473
 11  8 24  1 43  0.0000000  0  8G26G10G12G05G25G29G02G30
 127285948.300 6  99183913.50643  24221710.070                    24221719.531
 120866512.644 6  94181870.60144  23000109.984                    23000119.434
 111000105.017 8  86493665.047 7  21122613.977                    21122621.391
 106532545.626 8  83012488.598 8  20272445.008                    20272452.488
 113917502.906 8  88766927.616 7  21677774.219                    21677784.547
 121768836.321 7  94884869.255 6  23171842.727                    23171851.453
 112531711.091 8  87687187.04846  21414041.508                    21414046.195
 114365261.212 8  89115846.39345  21762983.758                    21762991.676
 11  8 24  1 43 30.0000000  0  8G26G10G12G05G25G29G02G30
 127191372.794 6  99110218.40543  24203712.453                    24203722.066
 120964763.474 6  94258429.65144  23018806.422                    23018815.527
 111045573.024 8  86529094.642 7  21131266.336                    21131273.805
 106541961.798 8  83019825.887 8  20274237.148                    20274244.266
 113898203.566 8  88751889.203 7  21674101.523                    21674111.508
 121685285.004 7  94819764.368 6  23155943.852                    23155951.809
 112566208.335 8  87714068.03046  21420605.672                    21420610.992
 114355514.030 8  89108251.20345  21761128.891                    21761136.836
 11  8 24  1 44  0.0000000  0  8G26G10G12G05G25G29G02G30
 127096760.337 6  99036494.57943  24185706.758                    24185718.375
 121063256.637 6  94335177.53344  23037549.594                    23037558.285
 111091546.145 8  86564917.842 7  21140014.844                    21140021.887
 106551934.276 8  83027596.655 8  20276134.563                    20276141.875
 113879479.039 8  88737298.683 7  21670538.539                    21670548.188
 121601750.029 7  94754672.227 6  23140047.281                    23140055.777
 112600796.926 8  87741020.18546  21427187.617                    21427193.344
 114346368.849 8  89101125.09545  21759388.672                    21759396.625
 11  8 24  1 44 30.0000000  0  8G26G10G12G05G25G29G02G30
 127002113.825 6  98962744.19343  24167697.391                    24167708.668
 121161989.176 6  94412111.95344  23056337.891                    23056346.449
 111138022.208 8  86601132.944 7  21148858.836                    21148866.414
 106562461.937 8  83035800.035 8  20278138.031                    20278145.258
 113861329.955 8  88723156.552 7  21667084.898                    21667094.590
 121518233.092 7  94689594.141 6  23124155.273                    23124163.055
 112635476.755 8  87768043.43546  21433786.883                    21433792.477
 114337825.712 8  89094468.12145  21757762.938                    21757771.672
 11  8 24  1 45  0.0000000  0  8G26G10G12G05G25G29G02G30
 126907436.425 6  98888969.74744  24149681.211                    24149691.797
 121260957.978 6  94489230.49743  23075169.883                    23075178.801
 111184999.153 8  86637738.342 7  21157798.469                    21157805.543
 106573543.495 8  83044435.025 8  20280246.844                    20280253.848
 113843756.354 8  88709462.851 7  21663740.547                    21663750.887
 121434735.314 7  94624530.986 7  23108266.219                    23108274.469
 112670247.039 8  87795137.18246  21440403.680                    21440408.734
 114329884.086 7  89088279.85345  21756251.656                    21756259.891
 11  8 24  1 45 30.0000000  0  8G26G10G12G05G25G29G02G30
 126812731.307 6  98815173.68344  24131658.836                    24131669.203
 121360160.549 6  94566531.16043  23094047.844                    23094057.105
 111232475.336 8  86674732.734 7  21166832.984                    21166840.203
 106585178.099 8  83053500.971 8  20282460.820                    20282467.551
 113826758.564 8  88696217.842 7  21660506.172                    21660516.246
 121351258.141 7  94559483.881 7  23092380.750                    23092389.211
 112705107.605 8  87822301.27446  21447037.555                    21447042.809
 114322543.799 8  89082560.15845  21754855.008                    21754863.148
 11  8 24  1 46  0.0000000  0  8G26G10G12G05G25G29G02G30
 126718001.494 7  98741358.35544  24113633.156                    24113642.762
 121459593.766 6  94644011.57343  23112969.305                    23112978.199
 111280448.354 8  86712114.287 7  21175961.594                    21175969.773
 106597364.647 8  83062996.994 8  20284779.969                    20284787.305
 113810337.129 8  88683421.918 7  21657381.125                    21657390.367
 121267803.670 7  94494454.459 6  23076499.508                    23076508.145
 112740057.942 8  87849535.32246  21453688.094                    21453694.016
 114315804.722 8  89077308.93445  21753572.664                    21753580.145
 11  8 24  1 46 30.0000000  0  8G26G10G12G05G25G29G02G30
 126623250.391 6  98667526.44943  24095600.969                    24095612.320
 121559254.778 6  94721669.48543  23131934.563                    23131943.035
 111328916.103 8  86749881.355 7  21185184.859                    21185192.371
 106610101.794 8  83072922.044 8  20287203.656                    20287210.805
 113794492.005 8  88671075.064 7  21654365.703                    21654375.801
 121184372.898 7  94429443.527 6  23060623.625                    23060631.855
 112775097.722 8  87876839.06946  21460355.984                    21460361.273
 114309666.282 7  89072525.74345  21752404.227                    21752412.809
 11  8 24  1 47  0.0000000  0  8G26G10G12G05G25G29G02G30
 126528481.564 6  98593680.69843  24077567.250                    24077577.910
 121659141.097 6  94799502.98543  23150942.359                    23150951.090
 111377876.939 8  86788032.647 7  21194501.742                    21194509.086
 106623388.986 8  83083275.707 8  20289732.078                    20289739.414
 113779224.033 8  88659177.961 7  21651460.531                    21651470.195
 121100967.807 7  94364452.597 7  23044751.469                    23044759.820
 112810227.001 8  87904212.55146  21467040.922                    21467045.988
 114304128.819 8  89068210.83845  21751350.539                    21751358.879
 11  8 24  1 47 30.0000000  0  8G26G10G12G05G25G29G02G30
 126433697.834 6  98519823.37143  24059530.391                    24059541.000
 121759249.752 7  94877509.69844  23169992.508                    23170001.641
 111427328.749 8  86826566.506 7  21203912.125                    21203919.590
 106637224.455 8  83094056.618 8  20292364.922                    20292371.742
 113764533.133 8  88647730.518 7  21648664.969                    21648674.660
 121017589.801 7  94299482.758 7  23028885.383                    23028894.293
 112845444.684 8  87931654.90946  21473742.922                    21473748.625
 114299191.632 7  89064363.67745  21750411.148                    21750419.219
 11  8 24  1 48  0.0000000  0  8G26G10G12G05G25G29G02G30
 126338902.834 6  98445957.25643  24041492.281                    24041502.109
 121859577.708 7  94955687.28443  23189084.086                    23189092.984
 111477269.686 8  86865481.508 7  21213415.914                    21213423.477
 106651607.643 8  83105264.309 8  20295101.891                    20295109.090
 113750419.682 8  88636733.018 7  21645979.016                    21645989.305
 120934240.695 7  94234535.457 7  23013024.070                    23013033.438
 112880751.101 8  87959166.40346  21480460.984                    21480466.465
 114294854.497 8  89060984.08545  21749585.547                    21749593.688
 11  8 24  1 48 30.0000000  0  8G26G10G12G05G25G29G02G30
 126244099.593 7  98372084.70443  24023450.992                    24023461.355
 121960122.348 7  95034033.75343  23208217.422                    23208226.520
 111527697.709 8  86904776.064 7  21223011.867                    21223019.543
 106666537.207 8  83116897.746 8  20297943.117                    20297950.211
 113736883.847 8  88626185.614 7  21643403.391                    21643413.703
 120850921.896 7  94169611.758 6  22997169.352                    22997177.977
 112916145.602 8  87986746.53746  21487196.453                    21487201.652
 114291116.994 7  89058071.73845  21748874.508                    21748883.039
 11  8 24  1 49  0.0000000  0  8G26G10G12G05G25G29G02G30
 126149291.257 6  98298208.18144  24005410.094                    24005419.645
 122060880.672 7  95112546.71444  23227391.117                    23227399.934
 111578609.977 8  86944447.952 7  21232700.102                    21232707.328
 106682012.070 8  83128956.088 8  20300887.531                    20300894.707
 113723925.689 7  88616088.357 7  21640937.453                    21640947.293
 120767635.327 7  94104713.159 6  22981319.930                    22981328.656
 112951627.987 8  88014395.15046  21493948.406                    21493954.105
 114287978.664 8  89055626.29045  21748277.375                    21748285.711
 11  8 24  1 49 30.0000000  0  8G26G10G12G05G25G29G02G30
 126054481.088 6  98224330.23344  23987368.516                    23987378.449
 122161849.670 7  95191223.83844  23246604.586                    23246612.973
 111630004.804 8  86984495.860 7  21242480.289                    21242487.770
 106698030.464 8  83141437.969 8  20303935.875                    20303943.023
 113711545.345 8  88606441.341 7  21638581.555                    21638591.660
 120684382.154 7  94039840.574 6  22965477.867                    22965485.871
 112987197.795 8  88042111.87746  21500716.961                    21500723.195
 114285439.019 8  89053647.34445  21747794.117                    21747802.406
 11  8 24  1 50  0.0000000  0  8G26G10G12G05G25G29G02G30
 125959672.480 6  98150453.50143  23969327.242                    23969336.930
 122263026.699 7  95270063.05744  23265857.547                    23265866.914
 111681879.948 8  87024918.047 7  21252351.547                    21252359.176
 106714591.524 8  83154342.709 8  20307087.586                    20307094.578
 113699742.930 8  88597244.662 7  21636335.586                    21636345.609
 120601164.262 7  93974995.493 6  22949642.000                    22949650.203
 113022854.623 8  88069896.42446  21507502.688                    21507508.117
 114283497.543 8  89052134.51145  21747424.727                    21747432.852
 11  8 24  1 50 30.0000000  0  8G26G10G12G05G25G29G02G30
 125864868.932 6  98076580.73543  23951285.570                    23951296.008
 122364409.035 7  95349062.28244  23285150.211                    23285159.270
 111734233.398 8  87065712.924 7  21262314.242                    21262322.109
 106731694.159 8  83167669.451 8  20310341.719                    20310348.957
 113688518.740 8  88588498.553 7  21634200.172                    21634209.410
 120517983.262 7  93910179.106 6  22933813.555                    22933821.477
 113058598.487 8  88097748.78746  21514304.320                    21514309.648
 114282154.031 7  89051087.62645  21747168.969                    21747177.520
 11  8 24  1 51  0.0000000  0  8G26G10G12G05G25G29G02G30
 125770073.406 6  98002714.21443  23933247.391                    23933257.148
 122465993.680 7  95428219.13744  23304480.813                    23304490.582
 111787062.880 8  87106878.745 7  21272367.641                    21272374.613
 106749336.439 8  83181416.700 8  20313699.039                    20313706.078
 113677872.641 8  88580202.896 7  21632174.234                    21632183.727
 120434840.570 7  93845392.572 6  22917991.656                    22918000.398
 113094428.683 8  88125668.41746  21521122.719                    21521128.254
 114281407.725 8  89050506.10045  21747026.883                    21747035.281
 11  8 24  1 51 30.0000000  0  8G26G10G12G05G25G29G02G30
 125675289.359 6  97928856.60243  23915209.773                    23915219.078
 122567777.950 7  95507531.51644  23323850.430                    23323859.297
 111840366.599 8  87148414.097 7  21282510.672                    21282517.926
 106767517.440 8  83195583.736 8  20317158.609                    20317166.109
 113667804.744 8  88572357.798 7  21630257.883                    21630267.754
 120351738.099 7  93780637.417 6  22902177.758                    22902186.563
 113130345.080 8  88153655.21246  21527957.195                    21527962.898
 114281258.190 8  89050389.58645  21746998.625                    21747006.773
 11  8 24  1 52  0.0000000  0  8G26G10G12G05G25G29G02G30
 125580520.157 7  97855010.51643  23897175.727                    23897184.887
 122669759.302 7  95586997.46043  23343257.539                    23343265.582
 111894141.635 8  87190316.709 7  21292743.938                    21292751.445
 106786236.048 8  83210169.676 8  20320720.500                    20320727.832
 113658315.066 8  88564963.254 7  21628452.063                    21628461.973
 120268677.531 7  93715914.911 6  22886372.180                    22886380.285
 113166347.275 8  88181708.86646  21534808.289                    21534814.047
 114281704.808 8  89050737.60345  21747083.695                    21747091.984
 11  8 24  1 52 30.0000000  0  8G26G10G12G05G25G29G02G30
 125485769.112 7  97781178.59643  23879145.430                    23879155.090
 122771934.510 7  95666614.43643  23362700.320                    23362709.422
 111948386.092 8  87232585.103 7  21303066.555                    21303073.746
 106805490.996 8  83225173.555 8  20324384.820                    20324392.207
 113649403.707 8  88558019.333 7  21626756.344                    21626766.602
 120185660.724 7  93651226.498 6  22870574.672                    22870582.512
 113202435.489 8  88209829.54345  21541675.906                    21541680.953
 114282747.066 7  89051549.76945  21747281.719                    21747289.879
 11  8 24  1 53  0.0000000  0  8G26G10G12G05G25G29G02G30
 125391039.469 6  97707363.42243  23861119.008                    23861129.488
 122874300.682 6  95746380.29243  23382178.836                    23382188.145
 112003097.470 7  87275217.340 7  21313477.313                    21313485.070
 106825280.267 8  83240593.775 8  20328150.664                    20328157.469
 113641070.254 8  88551525.754 7  21625170.680                    21625180.777
 120102688.840 7  93586573.128 6  22854785.500                    22854793.563
 113238608.563 8  88238016.34945  21548558.930                    21548564.559
 114284383.981 8  89052825.28345  21747593.070                    21747601.219
 11  8 24  1 53 30.0000000  0  8G26G10G12G05G25G29G02G30
 125296334.816 6  97633567.72443  23843097.078                    23843107.719
 122976855.429 7  95826293.05643  23401694.648                    23401703.859
 112058274.214 8  87318212.190 7  21323977.492                    21323985.152
 106845603.289 8  83256429.913 8  20332017.906                    20332025.102
 113633315.243 8  88545482.907 7  21623694.680                    21623704.598
 120019764.161 7  93521956.501 7  22839005.125                    22839014.027
 113274867.333 8  88266269.92946  21555458.789                    21555464.063
 114286615.557 8  89054564.18745  21748018.125                    21748025.742
 11  8 24  1 54  0.0000000  0  8G26G10G12G05G25G29G02G30
 125201658.419 6  97559794.04843  23825079.797                    23825090.961
 123079595.730 7  95906350.42043  23421245.914                    23421255.203
 112113913.548 8  87361567.489 7  21334565.125                    21334572.625
 106866457.984 8  83272680.339 8  20335986.305                    20335993.801
 113626138.165 8  88539890.386 7  21622329.109                    21622338.906
 119936888.017 7  93457377.721 7  22823234.211                    22823243.234
 113311210.846 8  88294589.53046  21562375.375                    21562380.918
 114289440.593 8  89056765.52145  21748555.672                    21748563.488
 11  8 24  1 54 30.0000000  0  8G26G10G12G05G25G29G02G30
 125107013.616 6  97486044.93843  23807070.383                    23807079.906
 123182518.899 7  95986550.24743  23440831.219                    23440840.055
 112170013.080 8  87405281.392 7  21345240.297                    21345247.848
 106887843.376 8  83289344.289 8  20340055.883                    20340062.957
 113619539.134 8  88534748.289 7  21621073.250                    21621083.719
 119854062.616 7  93392838.487 7  22807473.539                    22807481.953
 113347638.923 8  88322975.04745  21569306.922                    21569312.789
 114292858.689 7  89059428.97145  21749205.836                    21749214.129
 11  8 24  1 55  0.0000000  0  8G26G10G12G05G25G29G02G30
 125012403.737 6  97412323.02443  23789067.141                    23789076.211
 123285622.574 6  96066890.74043  23460450.453                    23460460.703
 112226570.787 7  87449352.314 7  21356003.117                    21356010.711
 106909758.175 8  83306420.772 8  20344225.961                    20344233.164
 113613518.031 8  88530056.535 7  21619927.648                    21619937.605
 119771289.332 7  93328339.872 7  22791721.805                    22791730.566
 113384151.690 8  88351426.54846  21576255.164                    21576260.766
 114296869.089 7  89062553.97045  21749969.172                    21749977.547
 11  8 24  1 55 30.0000000  0  8G26G10G12G05G25G29G02G30
 124917832.121 6  97338630.95143  23771070.133                    23771079.191
 123388903.462 7  96147369.36644  23480105.664                    23480114.273
 112283583.909 7  87493778.116 7  21366852.461                    21366859.949
 106932200.363 8  83323908.214 8  20348496.922                    20348503.910
 113608074.225 8  88525814.606 7  21618891.609                    21618901.500
 119688569.589 7  93263882.974 6  22775981.086                    22775989.367
 113420748.529 8  88379943.54946  21583219.844                    21583224.848
 114301470.573 7  89066139.55145  21750844.781                    21750852.789
 11  8 24  1 56  0.0000000  0  8G26G10G12G05G25G29G02G30
 124823302.138 6  97264971.31843  23753081.258                    23753091.570
 123492358.507 7  96227983.58543  23499792.422                    23499801.730
 112341050.484 7  87538557.257 7  21377788.055                    21377795.176
 106955168.544 8  83341805.508 8  20352867.492                    20352874.898
 113603207.780 8  88522022.571 7  21617965.445                    21617975.797
 119605905.611 7  93199469.529 6  22760250.180                    22760258.297
 113457429.127 7  88408525.83546  21590199.328                    21590205.219
 114306662.567 7  89070185.26745  21751832.531                    21751840.934
 11  8 24  1 56 30.0000000  0  8G26G10G12G05G25G29G02G30
 124728817.439 6  97191346.99843  23735101.109                    23735111.672
 123595985.638 7  96308732.00443  23519511.219                    23519520.563
 112398968.124 7  87583687.867 7  21388809.219                    21388816.824
 106978661.675 8  83360111.851 8  20357338.164                    20357345.148
 113598918.749 8  88518680.477 7  21617149.438                    21617159.590
 119523299.201 7  93135100.942 6  22744531.023                    22744538.910
 113494193.734 8  88437173.57846  21597195.305                    21597201.191
 114312444.565 7  89074690.71745  21752932.781                    21752941.172
 11  8 24  1 57  0.0000000  0  9G26G10G12G15G05G25G29G02G30
 124634381.255 6  97117760.44843  23717130.875                    23717140.918
 123699781.687 7  96389612.02143  23539264.203                    23539272.215
 112457334.361 7  87629168.042 7  21399915.898                    21399923.559
 129397759.10616 100829472.07916  24623581.469                    24623590.965
 107002677.665 8  83378825.628 8  20361907.922                    20361914.949
 113595206.536 8  88515787.849 7  21616443.141                    21616452.805
 119440751.743 7  93070778.282 6  22728822.859                    22728830.613
 113531041.660 8  88465886.24645  21604207.516                    21604213.051
 114318815.410 8  89079655.01345  21754145.180                    21754153.512
 11  8 24  1 57 30.0000000  0  9G26G10G12G15G05G25G29G02G30
 124539996.875 6  97044214.26944  23699170.531                    23699179.285
 123803744.320 7  96470621.86844  23559047.484                    23559055.793
 112516146.867 7  87674995.949 7  21411108.055                    21411115.422
 129304990.666 6 100757185.136 6  24605926.727                    24605938.320
 107027215.180 8  83397945.783 8  20366577.492                    20366584.793
 113592071.007 8  88513344.570 7  21615846.125                    21615856.059
 119358265.271 7  93006503.163 6  22713126.008                    22713134.777
 113567972.901 8  88494663.83345  21611234.977                    21611240.211
 114325774.283 8  89085077.52145  21755469.633                    21755477.715
 11  8 24  1 58  0.0000000  0  9G26G10G12G15G05G25G29G02G30
 124445667.978 6  96970711.33144  23681220.297                    23681229.582
 123907870.283 7  96551758.91643  23578862.117                    23578870.422
 112575403.021 8  87721169.539 7  21422383.766                    21422391.773
 129212089.040 6 100684794.400 6  24588248.063                    24588258.969
 107052272.670 7  83417471.110 8  20371345.836                    20371352.566
 113589511.791 8  88511350.374 7  21615359.430                    21615369.746
 119275841.776 7  92942277.104 6  22697440.859                    22697449.309
 113604987.145 8  88523506.10045  21618278.648                    21618283.984
 114333320.274 8  89090957.51245  21756905.422                    21756913.730
 11  8 24  1 58 30.0000000  0  9G26G10G12G15G05G25G29G02G30
 124351398.012 6  96897254.30644  23663280.156                    23663290.574
 124012157.070 7  96633021.36444  23598707.633                    23598716.086
 112635100.768 7  87767687.252 7  21433743.844                    21433751.492
 129119056.757 5 100612301.842 6  24570545.039                    24570555.836
 107077848.752 8  83437400.530 8  20376212.805                    20376219.336
 113587528.718 8  88509805.117 7  21614981.938                    21614992.051
 119193482.583 7  92878101.144 7  22681768.531                    22681776.852
 113642084.513 8  88552413.13845  21625338.070                    21625343.680
 114341452.595 7  89097294.39745  21758452.648                    21758461.176
 11  8 24  1 59  0.0000000  0  9G26G10G12G15G05G25G29G02G30
 124257190.446 6  96823845.89544  23645353.563                    23645363.594
 124116602.287 7  96714407.24743  23618582.633                    23618590.590
 112695237.484 7  87814547.027 7  21445187.742                    21445194.828
 129025896.242 6 100539709.370 6  24552817.109                    24552827.414
 107103942.051 8  83457732.979 8  20381178.117                    20381185.063
 113586121.505 7  88508708.582 7  21614713.984                    21614724.465
 119111189.905 7  92813977.052 7  22666108.758                    22666117.766
 113679264.750 8  88581384.75745  21632413.344                    21632418.770
 114350170.398 7  89104087.48045  21760111.750                    21760120.504
 11  8 24  1 59 30.0000000  0  9G26G10G12G15G05G25G29G02G30
 124163048.595 7  96750488.68444  23627439.047                    23627448.457
 124221202.980 6  96795914.26143  23638486.195                    23638496.316
 112755810.623 7  87861746.863 7  21456714.242                    21456721.594
 128932609.829 6 100467018.816 6  24535065.266                    24535076.227
 107130550.659 8  83478466.972 8  20386241.469                    20386248.500
 113585289.540 7  88508060.285 7  21614556.055                    21614566.059
 119028965.258 7  92749905.923 7  22650462.203                    22650470.617
 113716527.418 8  88610420.61846  21639503.938                    21639509.242
 114359472.384 7  89111335.77945  21761881.656                    21761890.563
 11  8 24  2  0  0.0000000  0  9G26G10G12G15G05G25G29G02G30
 124068975.790 7  96677185.31444  23609537.031                    23609546.523
 124325956.123 6  96877540.05843  23658420.531                    23658429.984
 112816817.779 7  87909284.884 7  21468323.758                    21468331.289
 128839199.798 6 100394231.897 6  24517289.648                    24517300.902
 107157672.702 8  83499601.042 8  20391403.016                    20391409.582
 113585032.530 8  88507860.016 7  21614507.125                    21614517.191
 118946810.683 7  92685889.421 7  22634828.922                    22634836.609
 113753872.728 8  88639520.84646  21646610.813                    21646616.469
 114369357.693 7  89119038.60545  21763763.211                    21763771.234
 11  8 24  2  0 30.0000000  0  9G26G10G12G15G05G25G29G02G30
 123974975.421 6  96603938.35544  23591650.016                    23591659.129
 124430859.114 6  96959282.55644  23678383.422                    23678392.805
 112878256.077 7  87957158.864 7  21480014.883                    21480022.273
 128745668.668 6 100321350.621 6  24499490.953                    24499501.789
 107185306.364 8  83521133.775 8  20396661.297                    20396667.867
 113585349.748 7  88508107.198 7  21614567.219                    21614577.125
 118864727.971 7  92621928.906 7  22619208.867                    22619217.277
 113791300.000 8  88668684.97645  21653732.898                    21653738.469
 114379825.030 7  89127194.96145  21765755.094                    21765763.215
 11  8 24  2  1  0.0000000  0  9G26G10G12G15G05G25G29G02G30
 123881051.104 6  96530750.66944  23573776.484                    23573786.059
 124535909.380 6  97041139.85743  23698373.102                    23698382.488
 112940123.387 7  88005367.139 7  21491787.602                    21491795.508
 128652019.284 6 100248377.234 6  24481670.406                    24481680.832
 107213450.325 8  83543064.124 8  20402016.688                    20402023.836
 113586241.006 8  88508801.677 7  21614737.313                    21614746.730
 118782718.788 7  92558025.677 7  22603603.102                    22603611.184
 113828809.340 8  88697913.03445  21660870.977                    21660876.000
 114390873.506 7  89135804.16445  21767857.664                    21767865.809
 11  8 24  2  1 30.0000000  0  9G26G10G12G15G05G25G29G02G30
 123787206.460 7  96457625.03844  23555918.453                    23555927.816
 124641104.442 6  97123110.00143  23718391.727                    23718400.328
 113002417.374 8  88053907.884 7  21503642.008                    21503649.340
 128558254.168 6 100175313.653 6  24463827.180                    24463838.137
 107242103.048 8  83565390.932 8  20407469.414                    20407476.188
 113587705.816 8  88509943.086 7  21615015.945                    21615025.855
 118700785.156 7  92494181.320 7  22588011.289                    22588019.699
 113866400.844 8  88727205.13445  21668024.109                    21668029.652
 114402502.172 8  89144865.46045  21770070.383                    21770078.602
 11  8 24  2  2  0.0000000  0  9G26G10G12G15G05G25G29G02G30
 123693444.908 6  96384564.19444  23538076.016                    23538085.406
 124746441.401 7  97205190.75043  23738436.836                    23738444.859
 113065135.225 8  88102778.929 7  21515576.742                    21515584.426
 128464375.574 6 100102161.645 6  24445962.602                    24445973.043
 107271262.639 8  83588112.708 8  20413018.180                    20413024.766
 113589743.507 8  88511530.894 7  21615403.156                    21615413.059
 118618928.908 7  92430397.261 7  22572434.539                    22572442.938
 113904073.852 8  88756560.75045  21675193.070                    21675198.109
 114414709.650 8  89154377.78745  21772393.734                    21772401.605
 11  8 24  2  2 30.0000000  0  9G26G10G12G15G05G25G29G02G30
 123599769.951 6  96311570.81143  23520249.227                    23520259.391
 124851917.537 7  97287379.95343  23758507.625                    23758516.676
 113128274.849 7  88151978.605 7  21527591.797                    21527599.543
 128370386.353 6 100028923.408 5  24428076.844                    24428086.594
 107300927.467 8  83611228.159 8  20418662.883                    20418670.402
 113592353.801 8  88513564.880 7  21615900.203                    21615910.195
 118537151.804 7  92366674.869 7  22556872.922                    22556881.313
 113941828.749 8  88785980.13745  21682377.625                    21682382.723
 114427495.074 8  89164340.43945  21774826.117                    21774834.570
 11  8 24  2  3  0.0000000  0  9G26G10G12G15G05G25G29G02G30
 123506184.940 6  96238647.50943  23502441.281                    23502450.836
 124957530.379 7  97369675.59943  23778605.805                    23778614.387
 113191833.061 7  88201504.477 7  21539685.969                    21539694.133
 128276288.636 6  99955600.662 5  24410171.648                    24410180.371
 107331095.764 8  83634735.915 8  20424403.711                    20424410.898
 113595535.999 8  88516044.512 7  21616505.578                    21616515.910
 118455455.959 7  92303015.833 7  22541326.469                    22541334.988
 113979665.158 8  88815463.06745  21689577.656                    21689583.277
 114440857.172 8  89174752.46145  21777368.953                    21777377.285
 11  8 24  2  3 30.0000000  0  9G26G10G12G15G05G25G29G02G30
 123412693.312 7  96165796.96344  23484650.891                    23484659.672
 125063277.025 7  97452075.59843  23798728.422                    23798737.324
 113255807.355 8  88251354.557 7  21551860.258                    21551867.918
 128182085.144 6  99882195.488 6  24392244.258                    24392254.125
 107361765.547 8  83658634.450 8  20430240.203                    20430247.152
 113599289.265 8  88518969.119 7  21617219.969                    21617230.387
 118373843.043 7  92239421.405 7  22525796.016                    22525804.492
 114017582.912 8  88845009.38345  21696792.945                    21696798.660
 114454794.461 8  89185612.67545  21780021.555                    21780029.434
 11  8 24  2  4  0.0000000  0  9G26G10G12G15G05G25G29G02G30
 123319298.817 7  96093022.11243  23466878.039                    23466887.051
 125169155.066 7  97534577.90643  23818876.523                    23818885.504
 113320195.465 7  88301527.091 7  21564113.328                    21564120.684
 128087778.325 6  99808709.787 6  24374298.531                    24374308.949
 107392935.231 7  83682922.523 8  20436171.422                    20436178.578
 113603613.294 8  88522338.487 7  21618042.828                    21618052.945
 118292314.906 7  92175893.051 7  22510281.422                    22510290.168
 114055582.018 8  88874619.08645  21704024.078                    21704029.344
 114469306.056 8  89196920.41445  21782782.789                    21782790.492
 11  8 24  2  4 30.0000000  0  9G26G10G12G15G05G25G29G02G30
 123226004.949 6  96020325.67143  23449124.227                    23449134.289
 125275161.619 7  97617180.47843  23839049.078                    23839057.051
 113384994.441 7  88352019.779 7  21576444.227                    21576451.695
 127993370.942 6  99735145.718 6  24356333.234                    24356343.719
 107424603.179 8  83707598.843 8  20442197.688                    20442204.438
 113608507.335 8  88526152.017 7  21618973.891                    21618984.016
 118210873.706 7  92112432.451 7  22494783.750                    22494792.215
 114093662.265 7  88904292.01145  21711270.781                    21711275.887
 114484390.635 8  89208674.63545  21785653.438                    21785661.121
 11  8 24  2  5  0.0000000  0  9G26G10G12G15G05G25G29G02G30
 123132814.931 6  95947710.18143  23431390.945                    23431400.629
 125381293.797 7  97699880.82143  23859245.125                    23859253.684
 113450201.595 8  88402830.522 7  21588852.500                    21588860.305
 127898865.455 6  99661505.248 6  24338348.977                    24338358.801
 107456767.059 7  83732661.613 8  20448318.453                    20448325.691
 113613970.538 8  88530409.049 7  21620013.672                    21620023.820
 118129521.169 7  92049040.922 7  22479303.391                    22479311.207
 114131823.473 7  88934028.03445  21718532.117                    21718537.738
 114500046.669 8  89220874.13045  21788632.609                    21788640.590
 11  8 24  2  5 30.0000000  0  9G26G10G12G15G05G25G29G02G30
 123039732.954 7  95875178.84243  23413677.977                    23413687.074
 125487549.544 7  97782677.48643  23879465.289                    23879473.000
 113515815.302 7  88453958.073 7  21601338.461                    21601346.223
 127804264.771 6  99587790.537 6  24320346.961                    24320356.715
 107489425.825 8  83758110.012 8  20454533.078                    20454540.230
 113620002.621 8  88535109.361 7  21621161.688                    21621171.363
 118048259.387 7  91985720.127 7  22463839.320                    22463847.352
 114170065.866 7  88963827.29945  21725809.609                    21725814.883
 114516273.372 8  89233518.31945  21791720.102                    21791728.363
 11  8 24  2  6  0.0000000  0  9G26G10G12G15G05G25G29G02G30
 122946762.134 7  95802734.13743  23395986.828                    23395994.832
 125593926.095 6  97865568.32443  23899707.734                    23899715.711
 113581832.259 7  88505399.841 7  21613901.188                    21613908.633
 127709571.277 6  99514003.498 6  24302328.422                    24302337.688
 107522577.568 8  83783942.536 8  20460841.484                    20460848.293
 113626602.787 8  88540252.327 7  21622417.680                    21622427.465
 117967090.330 7  91922471.589 7  22448393.188                    22448401.684
 114208389.330 8  88993689.75145  21733102.086                    21733107.617
 114533069.231 8  89246605.98145  21794916.703                    21794924.824
 11  8 24  2  6 30.0000000  0  9G26G10G12G15G05G25G29G02G30
 122853905.594 7  95730378.48044  23378316.805                    23378326.148
 125700420.583 6  97948551.02043  23919972.586                    23919980.598
 113648249.456 7  88557153.491 7  21626539.969                    21626547.199
 127614787.250 7  99440145.931 6  24284291.102                    24284301.422
 107556219.658 7  83810157.148 8  20467243.563                    20467250.348
 113633769.806 8  88545837.004 7  21623781.336                    21623791.426
 117886015.596 7  91859296.561 7  22432965.625                    22432973.527
 114246793.591 7  89023615.15846  21740410.477                    21740416.000
 114550432.518 8  89260135.80545  21798220.766                    21798228.695
 11  8 24  2  7  0.0000000  0  9G26G10G12G15G05G25G29G02G30
 122761167.716 7  95658115.28844  23360668.547                    23360678.836
 125807030.436 6  98031623.62743  23940258.914                    23940268.609
 113715064.533 7  88609217.169 7  21639254.383                    21639261.531
 127519915.829 7  99366220.243 6  24266237.141                    24266247.250
 107590350.987 8  83836753.001 8  20473738.672                    20473745.680
 113641503.345 8  88551863.130 7  21625253.320                    21625263.027
 117805037.481 7  91796196.802 7  22417555.938                    22417563.941
 114285278.651 7  89053603.52345  21747734.148                    21747739.676
 114568362.212 8  89274106.99345  21801632.734                    21801640.801
 11  8 24  2  7 30.0000000  0  9G26G10G12G15G05G25G29G02G30
 122668551.401 7  95585946.80344  23343044.867                    23343054.250
 125913753.320 6  98114784.23043  23960568.484                    23960577.977
 113782274.935 7  88661588.890 7  21652044.016                    21652051.754
 127424959.315 7  99292228.267 6  24248167.305                    24248177.555
 107624969.298 8  83863728.320 8  20480326.164                    20480333.352
 113649802.446 8  88558329.952 7  21626832.625                    21626842.586
 117724157.864 7  91733173.805 7  22402164.922                    22402172.754
 114323844.434 7  89083654.78145  21755072.328                    21755078.426
 114586856.762 8  89288518.30645  21805151.922                    21805160.102
 11  8 24  2  8  0.0000000  0  9G26G10G12G15G05G25G29G02G30
 122576060.605 7  95513876.14444  23325443.875                    23325454.008
 126020586.431 6  98198030.74843  23980898.844                    23980908.039
 113849877.864 7  88714266.488 7  21664908.805                    21664916.289
 127329920.563 6  99218172.254 6  24230082.008                    24230091.668
 107660073.075 7  83891081.928 8  20487006.422                    20487013.266
 113658666.511 8  88565237.007 7  21628519.117                    21628529.434
 117643378.646 7  91670229.039 7  22386793.023                    22386801.234
 114362491.001 7  89113768.99845  21762426.047                    21762432.102
 114605915.030 7  89303368.88945  21808778.211                    21808786.746
 11  8 24  2  8 30.0000000  0  9G26G10G12G15G05G25G29G02G30
 122483698.746 7  95441905.95544  23307868.055                    23307877.188
 126127527.318 6  98281361.25643  24001249.219                    24001258.281
 113917870.899 7  88767248.060 7  21677847.477                    21677854.871
 127234802.125 6  99144054.174 6  24211980.539                    24211991.832
 107695659.978 8  83918811.973 8  20493778.219                    20493785.246
 113668094.483 8  88572583.452 7  21630313.328                    21630323.234
 117562701.737 7  91607364.001 7  22371440.703                    22371448.945
 114401218.188 8  89143946.01345  21769796.125                    21769801.875
 114625535.237 8  89318657.35645  21812512.570                    21812520.570
 11  8 24  2  9  0.0000000  0  9G26G10G12G15G05G25G29G02G30
 122391469.370 7  95370038.99744  23290317.672                    23290326.730
 126234573.060 6  98364773.48043  24021618.875                    24021627.781
 113986250.759 7  88820531.050 7  21690859.469                    21690867.184
 127139606.450 6  99069875.860 6  24193866.641                    24193876.160
 107731728.038 7  83946916.973 8  20500641.914                    20500648.426
 113678085.367 8  88580368.537 7  21632214.656                    21632225.023
 117482129.379 7  91544580.417 7  22356107.688                    22356116.441
 114440025.941 7  89174185.82645  21777181.016                    21777186.484
 114645715.981 8  89334382.57945  21816352.766                    21816360.496
 11  8 24  2  9 30.0000000  0  9G26G10G12G15G05G25G29G02G30
 122299376.282 7  95298278.20944  23272792.648                    23272801.859
 126341721.471 6  98448265.71444  24042009.266                    24042018.020
 114055014.972 7  88874113.533 7  21703944.750                    21703952.566
 127044336.753 6  98995639.866 6  24175737.609                    24175746.809
 107768275.883 8  83975395.838 8  20507596.617                    20507603.711
 113688638.621 8  88588591.847 7  21634222.641                    21634233.352
 117401663.338 7  91481879.679 7  22340795.805                    22340803.566
 114478914.299 7  89204488.44445  21784581.320                    21784586.879
 114666455.947 7  89350543.56645  21820299.258                    21820307.613
 11  8 24  2 10  0.0000000  0  9G26G10G12G15G05G25G29G02G30
 122207422.701 7  95226626.14744  23255294.398                    23255303.578
 126448969.966 6  98531835.92043  24062417.734                    24062427.309
 114124160.873 7  88927993.446 7  21717102.883                    21717110.172
 126948995.076 6  98921347.807 6  24157594.273                    24157603.043
 107805301.234 8  84004246.767 8  20514642.250                    20514649.414
 113699752.988 7  88597252.376 7  21636337.719                    21636347.457
 117321305.805 7  91419263.459 6  22325504.242                    22325511.559
 114517883.322 7  89234853.92645  21791996.953                    21792002.879
 114687753.386 8  89367138.96545  21824351.977                    21824360.652
 11  8 24  2 10 30.0000000  0  9G26G10G12G15G05G25G29G02G30
 122115612.458 7  95155085.77944  23237823.445                    23237832.633
 126556316.020 7  98615482.16143  24082844.742                    24082853.941
 114193685.652 7  88982168.580 7  21730332.977                    21730340.496
 126853584.213 6  98847001.850 6  24139437.195                    24139447.199
 107842802.047 8  84033468.193 8  20521778.328                    20521785.238
 113711427.635 8  88606349.488 7  21638559.391                    21638569.336
 117241058.533 7  91356733.164 7  22310233.641                    22310241.770
 114556933.001 7  89265282.24945  21799427.891                    21799433.266
 114709606.837 8  89384167.59545  21828510.828                    21828518.594
 11  8 24  2 11  0.0000000  0  9G26G10G12G15G05G25G29G02G30
 122023948.958 7  95083659.76044  23220380.320                    23220389.340
 126663757.021 6  98699202.38143  24103290.133                    24103298.965
 114263587.214 7  89036637.321 7  21743634.828                    21743642.445
 126758107.015 6  98772604.181 6  24121268.828                    24121278.543
 107880776.415 8  84063058.629 8  20529004.547                    20529011.469
 113723661.551 8  88615882.399 7  21640887.422                    21640897.414
 117160923.967 7  91294290.675 7  22294984.953                    22294993.039
 114596063.151 7  89295773.28945  21806874.219                    21806879.695
 114732014.690 8  89401628.23845  21832774.938                    21832783.168
 11  8 24  2 11 30.0000000  0  9G26G10G12G15G05G25G29G02G30
 121932435.991 7  95012351.01444  23202966.141                    23202975.332
 126771290.438 6  98782994.62743  24123752.703                    24123762.492
 114333861.833 7  89091396.760 7  21757007.539                    21757015.348
 126662566.001 7  98698156.779 6  24103088.305                    24103097.484
 107919222.284 8  84093016.474 8  20536320.445                    20536327.430
 113736453.715 8  88625850.324 7  21643321.398                    21643331.496
 117080903.548 7  91231937.130 7  22279757.070                    22279765.660
 114635273.679 7  89326326.94345  21814335.461                    21814341.359
 114754975.300 8  89419519.60545  21837144.250                    21837152.277
 11  8 24  2 12  0.0000000  0  9G26G10G12G15G05G25G29G02G30
 121841077.103 7  94941162.34444  23185580.930                    23185590.930
 126878913.405 6  98866856.67943  24144233.164                    24144242.301
 114404506.970 7  89146444.896 7  21770451.023                    21770458.469
 126566963.986 7  98623661.825 6  24084895.953                    24084904.773
 107958137.642 8  84123340.133 8  20543725.820                    20543733.035
 113749803.135 8  88636252.441 7  21645861.484                    21645871.672
 117000999.723 7  91169674.430 7  22264551.859                    22264560.055
 114674564.929 7  89356943.48645  21821812.500                    21821818.297
 114778487.123 8  89437840.48945  21841618.141                    21841626.297
 11  8 24  2 12 30.0000000  0  9G26G10G12G15G05G25G29G02G30
 121749875.876 7  94870096.50744  23168225.453                    23168235.230
 126986623.615 7  98950786.67743  24164729.742                    24164738.484
 114475519.924 7  89201779.648 7  21783964.203                    21783972.043
 126471303.639 7  98549121.433 6  24066692.281                    24066700.672
 107997520.304 8  84154027.928 8  20551220.125                    20551227.016
 113763708.700 8  88647087.943 7  21648508.234                    21648518.496
 116921214.104 7  91107503.857 7  22249368.805                    22249377.125
 114713936.614 7  89387622.71345  21829304.578                    21829310.195
 114802548.411 8  89456589.53845  21846196.820                    21846204.785
 11  8 24  2 13  0.0000000  0  9G26G10G12G15G05G25G29G02G30
 121658836.170 7  94799156.52144  23150901.352                    23150911.035
 127094418.941 6  99034783.03742  24185242.570                    24185251.477
 114546898.251 7  89257399.114 7  21797547.188                    21797554.684
 126375588.021 7  98474537.987 5  24048477.789                    24048486.340
 108037369.104 8  84185078.964 8  20558803.008                    20558810.016
 113778169.625 8  88658356.200 7  21651259.703                    21651269.582
 116841549.337 7  91045427.436 7  22234209.195                    22234217.551
 114753389.131 8  89418364.93245  21836812.195                    21836817.734
 114827157.879 7  89475765.72445  21850880.141                    21850888.332
 11  8 24  2 13 30.0000000  0  9G26G10G12G15G05G25G29G02G30
 121567961.087 7  94728344.86544  23133608.898                    23133617.840
 127202296.640 6  99118843.54442  24205770.414                    24205779.012
 114618638.819 7  89313300.838 7  21811199.086                    21811206.383
 126279819.440 7  98399913.231 5  24030254.156                    24030261.793
 108077681.046 8  84216490.877 8  20566474.109                    20566481.082
 113793184.381 8  88670055.998 7  21654117.180                    21654126.914
 116762007.205 7  90983446.578 7  22219073.398                    22219081.441
 114792921.966 8  89449169.75345  21844335.227                    21844340.859
 114852313.320 7  89495367.35845  21855666.906                    21855674.953
 11  8 24  2 14  0.0000000  0  9G26G10G12G15G05G25G29G02G30
 121477254.463 7  94657664.47244  23116347.516                    23116355.977
 127310254.316 6  99202966.40042  24226314.438                    24226323.168
 114690738.682 7  89369482.556 7  21824919.117                    21824926.375
 126184000.580 7  98325249.302 5  24012019.734                    24012027.637
 108118454.364 8  84248262.314 8  20574233.164                    20574240.195
 113808751.989 8  88682186.599 7  21657079.477                    21657089.684
 116682589.628 7  90921562.763 7  22203960.609                    22203968.988
 114832535.466 7  89480037.40745  21851872.969                    21851878.332
 114878013.189 7  89515393.19945  21860557.242                    21860565.152
 11  8 24  2 14 30.0000000  0  9G26G10G12G15G05G25G29G02G30
 121386719.950 7  94587118.15444  23099119.031                    23099128.246
 127418289.417 6  99287149.54642  24246873.070                    24246882.648
 114763195.202 7  89425942.155 7  21838707.055                    21838714.633
 126088134.288 6  98250548.424 6  23993776.500                    23993784.961
 108159686.907 8  84280391.585 8  20582079.266                    20582086.203
 113824871.242 8  88694747.073 7  21660147.195                    21660157.082
 116603298.768 7  90859777.685 7  22188872.281                    22188880.184
 114872229.582 7  89510967.89845  21859426.734                    21859432.477
 114904255.721 7  89535841.91145  21865551.242                    21865560.059
 11  8 24  2 15  0.0000000  0  9G26G10G12G15G05G25G29G02G30
 121296361.415 7  94516708.97344  23081924.055                    23081933.574
 127526399.375 6  99371391.04242  24267445.328                    24267454.914
 114836005.671 7  89482677.579 7  21852562.438                    21852570.160
 125992223.476 6  98175812.839 6  23975525.086                    23975534.414
 108201376.802 8  84312877.233 8  20590012.313                    20590019.387
 113841541.232 8  88707736.682 7  21663319.109                    21663329.039
 116524137.052 7  90798093.242 7  22173807.391                    22173816.203
 114912004.431 7  89541961.28645  21866995.859                    21867001.973
 114931039.389 7  89556712.29645  21870648.172                    21870656.223
 11  8 24  2 15 30.0000000  0  9G26G10G12G15G05G25G29G02G30
 121206182.525 7  94446439.76544  23064764.039                    23064773.109
 127634581.780 6  99455688.98242  24288030.539                    24288041.207
 114909167.317 7  89539686.639 7  21866485.031                    21866492.180
 125896270.944 6  98101044.759 6  23957266.031                    23957275.199
 108243522.011 7  84345717.662 8  20598032.625                    20598039.727
 113858760.549 8  88721154.340 7  21666595.844                    21666605.902
 116445106.337 7  90736510.867 7  22158769.125                    22158777.059
 114951860.204 7  89573017.72345  21874579.859                    21874585.355
 114958362.230 7  89578002.81245  21875847.438                    21875855.000
 11  8 24  2 16  0.0000000  0  9G26G10G12G15G05G25G29G02G30
 121116186.636 7  94376313.17244  23047638.945                    23047648.059
 127742834.295 6  99540041.57443  24308632.383                    24308640.668
 114982677.212 7  89596967.056 7  21880473.133                    21880480.766
 125800279.665 6  98026246.458 6  23938999.547                    23939008.355
 108286120.548 8  84378911.348 8  20606138.820                    20606145.816
 113876528.137 8  88734999.216 7  21669976.883                    21669987.285
 116366208.820 7  90675032.284 7  22143755.047                    22143763.363
 114991796.936 7  89604137.24145  21882180.102                    21882185.098
 114986222.590 7  89599712.17445  21881149.188                    21881157.281
 11  8 24  2 16 30.0000000  0  9G26G10G12G15G05G25G29G02G30
 121026377.440 7  94306332.05944  23030548.477                    23030557.563
 127851154.134 6  99624446.62243  24329244.125                    24329253.652
 115056532.116 7  89654516.313 7  21894527.328                    21894534.766
 125704251.783 7  97951419.727 6  23920725.508                    23920734.488
 108329169.835 8  84412456.268 8  20614331.039                    20614338.027
 113894842.540 8  88749270.190 7  21673461.906                    21673472.105
 116287446.462 7  90613659.036 7  22128767.359                    22128775.152
 115031814.635 7  89635319.85245  21889794.852                    21889800.605
 115014618.457 7  89621838.82745  21886552.422                    21886560.813
 11  8 24  2 17  0.0000000  0  9G26G10G12G15G05G25G29G02G30
 120936758.506 7  94236499.19044  23013494.641                    23013503.809
 127959538.961 7  99708902.26443  24349870.094                    24349878.449
 115130729.063 8  89712332.109 7  21908646.578                    21908654.102
 125608190.029 7  97876566.518 6  23902445.492                    23902455.238
 108372667.646 8  84446350.669 8  20622608.063                    20622615.008
 113913702.374 8  88763966.166 7  21677050.945                    21677060.879
 116208821.407 7  90552392.778 7  22113805.234                    22113813.277
 115071913.114 7  89666565.41345  21897425.313                    21897430.879
 115043547.828 8  89644381.19745  21892057.672                    21892065.488
 11  8 24  2 17 30.0000000  0  9G26G10G12G15G05G25G29G02G30
 120847333.532 7  94166817.45444  22996477.383                    22996486.719
 128067986.225 6  99793406.60243  24370506.250                    24370515.586
 115205265.664 7  89770412.562 7  21922830.492                    21922838.352
 125512097.749 7  97801689.509 6  23884160.203                    23884170.324
 108416612.029 8  84480593.063 8  20630970.531                    20630977.211
 113933106.483 8  88779086.256 7  21680743.430                    21680753.582
 116130335.668 7  90491235.088 7  22098869.922                    22098878.496
 115112092.618 7  89697874.11045  21905071.477                    21905077.055
 115073009.049 8  89667337.97245  21897664.281                    21897672.258
 11  8 24  2 18  0.0000000  0  9G26G10G12G15G05G25G29G02G30
 120758106.348 7  94097289.85544  22979497.414                    22979507.043
 128176493.923 6  99877957.98543  24391155.070                    24391164.355
 115280139.210 8  89828755.565 7  21937078.016                    21937085.520
 125415977.628 6  97726790.838 6  23865868.195                    23865877.551
 108461001.232 8  84515182.063 8  20639417.852                    20639424.277
 113953053.747 8  88794629.598 7  21684539.344                    21684549.594
 116051991.663 7  90430187.844 7  22083961.469                    22083969.730
 115152353.354 8  89729246.12845  21912732.867                    21912738.137
 115103000.246 8  89690707.75645  21903371.234                    21903379.523
 11  8 24  2 18 30.0000000  0  9G26G10G12G15G05G25G29G02G30
 120669080.455 7  94027919.09444  22962556.609                    22962565.793
 128285059.562 6  99962554.51643  24411814.461                    24411823.789
 115355346.698 7  89887358.782 7  21951389.844                    21951397.492
 125319832.372 7  97651872.562 6  23847572.781                    23847581.438
 108505832.943 8  84550115.881 8  20647948.508                    20647955.449
 113973542.669 8  88810595.003 7  21688438.273                    21688447.836
 115973791.339 7  90369252.566 7  22069080.570                    22069089.020
 115192695.535 7  89760681.58545  21920409.156                    21920415.254
 115133519.571 7  89714489.05345  21909178.563                    21909186.715
 11  8 24  2 19  0.0000000  0  9G26G10G12G15G05G25G29G02G30
 120580259.012 7  93958707.66444  22945653.852                    22945663.063
 128393680.577 6 100047194.28243  24432483.914                    24432493.508
 115430884.641 8  89946219.510 7  21965764.398                    21965771.516
 125223664.612 6  97576936.733 6  23829273.156                    23829281.715
 108551104.269 8  84585392.244 7  20656563.648                    20656570.691
 113994571.428 8  88826981.044 7  21692439.586                    21692449.375
 115895736.472 7  90308430.645 7  22054227.320                    22054235.605
 115233118.565 7  89792180.03345  21928102.070                    21928107.000
 115164564.494 7  89738679.91645  21915086.086                    21915094.363
 11  8 24  2 19 30.0000000  0  9G26G10G12G15G05G25G29G02G30
 120491646.469 7  93889659.01444  22928791.656                    22928800.879
 128502354.652 6 100131875.33543  24453164.125                    24453173.820
 115506750.701 8  90005335.898 7  21980201.477                    21980208.871
 125127477.332 6  97501985.693 6  23810968.617                    23810978.684
 108596813.849 8  84621010.101 7  20665261.922                    20665268.730
 114016139.126 8  88843787.050 7  21696544.242                    21696554.449
 115817830.020 7  90247724.379 7  22039402.086                    22039410.371
 115273622.975 8  89823741.90745  21935809.523                    21935814.379
 115196133.616 7  89763279.24245  21921093.703                    21921102.016
 11  8 24  2 20  0.0000000  0  9G26G10G12G15G05G25G29G02G30
 120403245.994 7  93820775.59544  22911969.406                    22911978.910
 128611079.312 6 100216595.85743  24473854.016                    24473863.078
 115582941.623 8  90064705.431 7  21994699.891                    21994707.492
 125031273.359 7  97427021.651 6  23792661.992                    23792671.938
 108642959.012 8  84656967.384 7  20674043.352                    20674049.867
 114038244.186 8  88861011.785 7  21700750.547                    21700760.520
 115740073.527 7  90187134.964 7  22024605.180                    22024613.391
 115314208.891 7  89855367.28645  21943533.078                    21943538.336
 115228224.724 7  89788285.29945  21927200.320                    21927208.293
 11  8 24  2 20 30.0000000  0  9G26G10G12G15G05G25G29G02G30
 120315061.713 7  93752060.63344  22895188.766                    22895197.508
 128719852.436 6 100301354.10642  24494552.266                    24494561.441
 115659454.776 8  90124326.059 7  22009259.648                    22009267.324
 124935055.729 7  97352046.968 6  23774352.500                    23774360.863
 108689538.091 8  84693262.787 7  20682906.438                    20682913.328
 114060885.423 8  88878654.317 7  21705059.000                    21705068.711
 115662469.429 7  90126664.303 7  22009837.836                    22009845.582
 115354876.702 7  89887056.49745  21951271.711                    21951277.750
 115260836.120 7  89813696.79345  21933406.289                    21933414.461
 11  8 24  2 21  0.0000000  0  9G26G10G12G15G05G25G29G02G30
 120227096.685 7  93683516.52744  22878449.539                    22878459.176
 128828671.467 5 100386148.17042  24515259.867                    24515268.848
 115736286.820 7  90184195.162 7  22023880.367                    22023888.324
 124838827.113 7  97277063.727 6  23756039.313                    23756049.117
 108736548.141 8  84729893.990 7  20691852.328                    20691859.012
 114084060.886 8  88896713.115 7  21709468.813                    21709479.500
 115585019.426 7  90066313.706 7  21995099.547                    21995107.148
 115395626.206 7  89918809.34445  21959025.828                    21959031.406
 115293965.310 7  89839511.75445  21939710.578                    21939718.895
 11  8 24  2 21 30.0000000  0  9G26G10G12G15G05G25G29G02G30
 120139355.163 7  93615146.59444  22861753.008                    22861762.418
 128937534.104 5 100470976.11542  24535976.133                    24535984.813
 115813435.430 8  90244310.960 7  22038561.352                    22038569.602
 124742590.435 6  97202074.179 6  23737726.711                    23737736.176
 108783987.457 8  84766859.689 8  20700879.680                    20700886.801
 114107769.534 8  88915187.391 7  21713981.219                    21713991.324
 115507726.311 7  90006085.361 7  21980391.008                    21980398.957
 115436457.613 8  89950626.00945  21966796.141                    21966801.633
 115327610.587 7  89865728.86745  21946112.867                    21946121.234
 11  8 24  2 22  0.0000000  0  9G26G10G12G15G05G25G29G02G30
 120051840.395 7  93546953.32344  22845098.977                    22845108.289
 129046437.865 6 100555836.10642  24556700.320                    24556708.246
 115890897.309 8  90304670.853 7  22053301.695                    22053309.320
 124646348.484 6  97127080.530 6  23719412.273                    23719421.570
 108831853.675 8  84804158.051 8  20709988.445                    20709995.320
 114132009.684 8  88934075.823 7  21718593.531                    21718603.203
 115430592.161 8  89945980.912 7  21965712.977                    21965721.125
 115477371.276 8  89982506.78645  21974581.969                    21974587.313
 115361769.788 7  89892346.44945  21952613.102                    21952621.191
 11  8 24  2 22 30.0000000  0  9G26G10G12G15G05G25G29G02G30
 119964556.191 7  93478939.71444  22828489.023                    22828498.582
 129155380.843 6 100640726.75442  24577431.133                    24577439.469
 115968669.529 8  90365272.578 7  22068101.672                    22068108.691
 124550104.071 6  97052084.918 6  23701097.789                    23701106.660
 108880144.807 8  84841787.515 8  20719177.977                    20719184.805
 114156779.870 8  88953377.249 7  21723307.070                    21723317.098
 115353618.979 8  89886001.885 7  21951065.508                    21951073.188
 115518367.158 7  90014451.63445  21982382.602                    21982388.609
 115396440.960 8  89919362.94745  21959210.836                    21959219.250
 11  8 24  2 23  0.0000000  0  8G26G12G15G05G25G29G02G30
 119877507.571 7  93411109.69244  22811924.477                    22811934.016
 116046750.515 8  90426114.894 7  22082959.852                    22082967.371
 124453861.340 6  96977090.692 6  23682783.273                    23682792.297
 108928859.765 8  84879747.234 7  20728448.086                    20728454.414
 114182079.697 8  88973091.403 7  21728121.289                    21728131.855
 115276810.233 8  89826150.992 7  21936449.109                    21936456.746
 115559446.727 7  90046461.68745  21990199.531                    21990205.418
 115431623.046 7  89946777.55745  21965905.484                    21965914.246
 11  8 24  2 23 30.0000000  0  9G26G21G12G15G05G25G29G02G30
 119790696.756 7  93343464.97444  22795404.820                    22795414.242
 132331773.34216 103115742.25553  25181909.383                    25181917.836
 116125135.689 8  90487194.240 7  22097876.102                    22097883.734
 124357621.873 6  96902098.973 6  23664469.406                    23664478.336
 108977994.700 8  84918034.207 8  20737797.945                    20737804.980
 114207906.153 8  88993215.921 7  21733035.641                    21733045.836
 115200166.799 7  89766428.902 7  21921864.586                    21921872.191
 115600608.669 7  90078535.90645  21998033.148                    21998038.301
 115467312.479 7  89974587.51245  21972697.195                    21972705.750
 11  8 24  2 24  0.0000000  0  9G26G21G12G15G05G25G29G02G30
 119704127.741 7  93276008.66544  22778931.141                    22778940.211
 132276236.507 6 103072466.88743  25171341.852                    25171349.316
 116203822.818 8  90548508.865 7  22112849.633                    22112857.656
 124261389.238 7  96827112.612 6  23646157.328                    23646165.914
 109027548.061 8  84956647.226 8  20747227.797                    20747234.805
 114234258.325 8  89013750.079 7  21738050.492                    21738060.016
 115123691.378 7  89706837.743 7  21907311.523                    21907319.004
 115641853.585 7  90110674.80545  22005881.484                    22005887.031
 115503507.826 7  90002791.67145  21979584.805                    21979593.051
 11  8 24  2 24 30.0000000  0  9G26G21G12G15G05G25G29G02G30
 119617803.970 7  93208743.43044  22762504.406                    22762513.461
 132220703.816 6 103029194.75343  25160772.953                    25160782.133
 116282808.556 7  90610056.165 7  22127879.906                    22127887.691
 124165165.465 7  96752133.137 6  23627846.258                    23627855.496
 109077516.828 8  84995583.932 8  20756736.438                    20756743.539
 114261134.001 8  89034692.166 7  21743164.813                    21743175.367
 115047385.869 8  89647378.968 7  21892790.773                    21892798.746
 115683181.268 7  90142878.19045  22013746.180                    22013751.488
 115540206.286 7  90031387.86845  21986568.727                    21986576.461
 11  8 24  2 25  0.0000000  0  9G26G21G12G15G05G25G29G02G30
 119531728.838 7  93141671.96844  22746125.023                    22746133.637
 132165174.441 6 102985925.08643  25150206.680                    25150214.699
 116362089.457 7  90671833.478 7  22142966.797                    22142974.297
 124068953.389 7  96677162.752 6  23609538.281                    23609547.203
 109127898.359 8  85034842.262 7  20766323.734                    20766330.621
 114288531.245 8  89056040.675 7  21748378.359                    21748388.281
 114971252.348 7  89588054.230 7  21878303.344                    21878311.379
 115724591.635 7  90175146.03145  22021626.070                    22021631.727
 115577405.469 7  90060374.25245  21993647.344                    21993656.016
 11  8 24  2 25 30.0000000  0  9G26G21G12G15G05G25G29G02G30
 119445906.338 7  93074797.35744  22729794.094                    22729802.012
 132109647.942 6 102942657.69243  25139640.195                    25139647.664
 116441662.931 7  90733838.773 7  22158109.367                    22158116.625
 123972756.312 6  96602204.063 6  23591231.367                    23591240.973
 109178690.650 8  85074420.678 8  20775989.180                    20775996.063
 114316448.793 8  89077794.592 7  21753691.102                    21753700.945
 114895293.052 8  89528865.235 7  21863848.523                    21863855.727
 115766084.993 7  90207478.52445  22029522.047                    22029527.469
 115615103.497 7  90089749.34345  22000820.875                    22000829.305
 11  8 24  2 26  0.0000000  0  9G26G21G12G15G05G25G29G02G30
 119360340.500 7  93008122.73544  22713510.977                    22713519.223
 132054124.148 6 102899392.45743  25129074.289                    25129082.520
 116521526.226 7  90796069.905 7  22173306.805                    22173313.875
 123876577.381 7  96527259.533 6  23572930.023                    23572937.641
 109229892.557 8  85114318.264 8  20785732.375                    20785739.652
 114344885.210 8  89099952.839 7  21759102.211                    21759112.441
 114819510.536 7  89469813.989 7  21849427.555                    21849435.738
 115807661.852 7  90239876.08645  22037433.695                    22037438.867
 115653298.437 7  90119511.62245  22008089.500                    22008096.867
 11  8 24  2 26 30.0000000  0  9G26G21G12G15G05G25G29G02G30
 119275034.168 7  92941650.33644  22697277.781                    22697285.938
 131998601.927 6 102856128.37542  25118508.695                    25118517.051
 116601675.690 7  90858524.034 7  22188558.484                    22188566.652
 123780418.960 6  96452331.013 6  23554631.039                    23554639.328
 109281500.576 8  85154532.315 8  20795553.219                    20795560.246
 114373838.182 8  89122513.590 7  21764611.711                    21764622.055
 114743906.678 8  89410901.959 7  21835040.703                    21835048.234
 115849322.195 7  90272338.69945  22045361.195                    22045367.582
 115691987.395 7  90149658.87245  22015451.336                    22015459.723
 11  8 24  2 27  0.0000000  0  9G26G21G12G15G05G25G29G02G30
 119189991.060 7  92875383.03544  22681094.656                    22681103.320
 131943080.832 6 102812865.24843  25107943.453                    25107951.680
 116682108.041 7  90921198.572 7  22203864.703                    22203872.188
 123684283.890 6  96377420.657 6  23536336.680                    23536346.273
 109333512.231 8  85195060.880 7  20805450.883                    20805457.957
 114403305.933 8  89145475.464 7  21770219.555                    21770229.508
 114668483.424 8  89352130.655 7  21820687.547                    21820695.512
 115891066.184 7  90304866.49545  22053305.125                    22053310.633
 115731168.152 7  90180189.32245  22022907.117                    22022915.438
 11  8 24  2 27 30.0000000  0  9G26G21G12G15G05G25G29G02G30
 119105215.093 7  92809323.88744  22664961.805                    22664970.703
 131887560.346 6 102769602.58942  25097378.266                    25097387.203
 116762821.188 7  90984091.913 7  22219223.625                    22219231.590
 123588175.360 7  96302530.953 6  23518048.391                    23518057.570
 109385925.510 8  85235902.391 8  20815424.828                    20815431.480
 114433286.877 8  89168837.223 7  21775924.711                    21775934.434
 114593243.278 7  89293502.020 7  21806369.914                    21806377.715
 115932893.994 7  90337459.60045  22061264.555                    22061269.973
 115770838.495 7  90211101.26445  22030456.547                    22030464.453
 11  8 24  2 28  0.0000000  0  9G26G21G12G15G05G25G29G02G30
 119020710.667 7  92743476.35544  22648881.609                    22648890.246
 131832040.247 5 102726340.22142  25086812.242                    25086821.391
 116843812.445 7  91047201.950 7  22234635.891                    22234644.059
 123492096.852 7  96227664.661 6  23499765.336                    23499773.512
 109438738.941 8  85277055.720 7  20825474.672                    20825482.023
 114463779.921 8  89192598.033 7  21781727.148                    21781737.043
 114518189.186 8  89235018.360 7  21792087.617                    21792095.227
 115974806.234 7  90370118.51445  22069239.945                    22069245.672
 115810996.801 7  90242393.43545  22038098.109                    22038106.652
 11  8 24  2 28 30.0000000  0  9G26G21G12G15G05G25G29G02G30
 118936480.641 7  92677842.62744  22632852.438                    22632861.910
 131776519.236 5 102683077.18042  25076246.688                    25076256.375
 116925077.875 7  91110525.620 7  22250100.195                    22250108.063
 123396050.544 7  96152823.478 6  23481488.297                    23481496.281
 109491948.888 8  85318518.008 8  20835600.320                    20835607.555
 114494782.510 8  89216755.887 7  21787627.117                    21787637.043
 114443322.663 7  89176680.848 7  21777840.945                    21777848.625
 116016802.662 7  90402843.02445  22077231.836                    22077237.879
 115851640.032 7  90274063.48445  22045832.320                    22045840.777
 11  8 24  2 29  0.0000000  0  9G26G21G12G15G05G25G29G02G30
 118852529.080 7  92612425.88044  22616877.148                    22616885.590
 131720996.999 6 102639813.18343  25065682.297                    25065690.973
 117006614.799 7  91174060.865 7  22265616.273                    22265623.809
 123300039.977 7  96078010.115 6  23463218.070                    23463226.059
 109545553.856 8  85360288.109 8  20845800.922                    20845807.934
 114526293.134 8  89241309.609 7  21793623.258                    21793633.172
 114368646.275 7  89118491.502 7  21763630.836                    21763638.574
 116058883.639 7  90435633.39445  22085239.648                    22085245.766
 115892766.164 7  90306109.80645  22053658.219                    22053666.473
 11  8 24  2 29 30.0000000  0  9G26G21G12G15G05G25G29G02G30
 118768859.109 7  92547228.56044  22600955.289                    22600964.016
 131665472.843 6 102596547.61342  25055115.984                    25055124.863
 117088420.101 7  91237805.242 7  22281183.172                    22281190.566
 123204067.448 7  96003226.399 6  23444955.352                    23444963.566
 109599550.839 8  85402363.685 7  20856076.336                    20856083.129
 114558309.580 8  89266257.488 7  21799715.734                    21799725.680
 114294162.134 7  89060451.948 7  21749456.852                    21749464.309
 116101049.256 7  90468489.74145  22093263.320                    22093268.977
 115934372.461 7  90338530.28045  22061576.195                    22061584.352
 11  8 24  2 30  0.0000000  0  9G26G21G12G15G05G25G29G02G30
 118685474.879 7  92482253.91044  22585087.984                    22585096.414
 131609946.340 6 102553280.23642  25044549.008                    25044557.871
 117170491.004 7  91301756.590 7  22296800.656                    22296808.242
 123108136.352 7  95928474.954 6  23426699.688                    23426708.219
 109653938.294 8  85444743.523 8  20866425.867                    20866433.074
 114590830.468 8  89291598.438 7  21805904.055                    21805914.270
 114219872.888 8  89002564.264 7  21735319.930                    21735327.883
 116143300.215 7  90501412.58545  22101303.203                    22101308.770
 115976456.981 7  90371323.40045  22069584.234                    22069593.313
 11  8 24  2 30 30.0000000  0  9G26G21G12G15G05G25G29G02G30
 118602379.817 7  92417504.57044  22569275.648                    22569283.555
 131554416.945 6 102510010.56242  25033982.984                    25033990.934
 117252824.485 7  91365912.534 7  22312467.570                    22312475.691
 123012249.615 7  95853758.077 6  23408452.734                    23408461.668
 109708713.591 8  85487425.549 7  20876849.281                    20876856.500
 114623853.665 8  89317330.780 7  21812188.195                    21812198.246
 114145780.528 8  88944830.003 7  21721220.508                    21721228.730
 116185636.526 7  90534401.92445  22109359.586                    22109365.207
 116019017.157 7  90404487.15445  22077683.633                    22077691.699
 11  8 24  2 31  0.0000000  0  9G26G21G12G15G05G25G29G02G30
 118519577.660 7  92352983.46044  22553518.305                    22553527.289
 131498883.703 6 102466737.96442  25023415.328                    25023422.551
 117335417.126 7  91430270.393 7  22328184.977                    22328193.117
 122916410.227 7  95779078.145 6  23390214.672                    23390223.473
 109763873.897 8  85530407.608 7  20887346.117                    20887352.785
 114657377.233 8  89343453.037 7  21818567.492                    21818577.930
 114071887.201 8  88887250.815 7  21707159.281                    21707166.813
 116228058.120 7  90567457.73945  22117432.055                    22117438.156
 116062050.525 7  90438019.63245  22085872.180                    22085880.480
 11  8 24  2 31 30.0000000  0  9G26G21G12G15G05G25G29G02G30
 118437071.988 7  92288693.40344  22537818.031                    22537826.805
 131443346.220 6 102423462.01142  25012846.250                    25012854.484
 117418265.846 7  91494827.811 7  22343950.609                    22343959.000
 122820620.816 6  95704437.140 6  23371987.078                    23371995.570
 109819416.916 8  85573687.899 7  20897914.914                    20897922.172
 114691399.181 8  89369963.626 7  21825042.047                    21825051.551
 113998195.416 8  88829828.688 7  21693136.063                    21693143.613
 116270565.444 7  90600580.33745  22125521.047                    22125526.711
 116105554.520 7  90471918.81645  22094150.711                    22094159.270
 11  8 24  2 32  0.0000000  0  9G26G21G12G15G05G25G29G02G30
 118354866.706 7  92224637.39544  22522174.898                    22522183.422
 131387804.058 6 102380182.42142  25002277.117                    25002286.246
 117501368.061 7  91559582.750 7  22359764.555                    22359772.965
 122724884.957 6  95629837.858 6  23353768.695                    23353777.824
 109875340.585 8  85617264.790 7  20908557.344                    20908564.063
 114725917.802 8  89396861.249 7  21831610.500                    21831620.266
 113924707.526 8  88772565.429 7  21679151.602                    21679159.094
 116313158.878 7  90633770.05445  22133626.688                    22133632.012
 116149527.027 7  90506183.10045  22102518.609                    22102527.031
 11  8 24  2 32 30.0000000  0  9G26G21G12G15G05G25G29G02G30
 118272965.382 7  92160818.24345  22506589.766                    22506597.828
 131332256.498 6 102336898.64942  24991706.828                    24991715.023
 117584720.484 7  91624532.652 7  22375626.102                    22375634.594
 122629205.317 7  95555282.376 6  23335561.953                    23335570.422
 109931642.490 8  85661136.406 7  20919271.359                    20919277.820
 114760931.137 8  89424144.355 7  21838273.188                    21838283.320
 113851425.707 8  88715462.740 7  21665206.898                    21665214.320
 116355838.749 7  90667027.12145  22141747.969                    22141753.270
 116193965.447 7  90540810.41345  22110974.703                    22110983.000
 11  8 24  2 33  0.0000000  0  9G26G21G12G15G05G25G29G02G30
 118191371.368 7  92097238.54545  22491062.523                    22491071.535
 131276702.712 6 102293610.06342  24981135.055                    24981143.703
 117668319.931 7  91689675.064 7  22391534.703                    22391542.281
 122533584.829 7  95480772.963 6  23317365.773                    23317374.270
 109988319.902 8  85705300.624 7  20930056.320                    20930063.133
 114796436.775 8  89451811.085 7  21845029.656                    21845039.313
 113778352.310 8  88658522.470 7  21651300.914                    21651308.852
 116398604.917 7  90700351.41745  22149886.047                    22149891.457
 116238867.028 7  90575798.65045  22119519.055                    22119527.191
 11  8 24  2 33 30.0000000  0  9G26G21G12G15G05G25G29G02G30
 118110088.711 7  92033901.47645  22475595.242                    22475603.926
 131221142.762 6 102250316.63043  24970562.586                    24970571.137
 117752163.636 7  91755007.806 7  22407489.320                    22407497.555
 122438026.875 7  95406312.254 6  23299181.828                    23299189.496
 110045370.821 8  85749755.881 7  20940912.789                    20940920.301
 114832433.139 8  89479860.197 7  21851879.695                    21851889.598
 113705489.506 8  88601746.289 7  21637436.102                    21637443.504
 116441457.933 7  90733743.37945  22158040.742                    22158045.887
 116284229.591 7  90611146.10645  22128151.547                    22128160.176
 11  8 24  2 34  0.0000000  0  9G26G21G12G15G05G25G29G02G30
 118029121.278 7  91970810.01044  22460187.250                    22460195.965
 131165575.776 6 102207017.68743  24959989.148                    24959997.188
 117836248.662 7  91820528.593 7  22423490.086                    22423498.059
 122342534.449 7  95331902.647 6  23281010.117                    23281017.832
 110102793.152 8  85794500.554 7  20951840.305                    20951847.363
 114868918.418 8  89508290.273 7  21858822.281                    21858832.727
 113632840.143 8  88545136.430 7  21623611.422                    21623618.684
 116484398.194 7  90767203.32245  22166212.070                    22166217.746
 116330050.843 7  90646850.96845  22136871.086                    22136879.035
 11  8 24  2 34 30.0000000  0  9G26G21G12G15G05G25G29G02G30
 117948472.199 7  91907966.62744  22444840.875                    22444849.168
 131110001.000 6 102163712.71743  24949413.617                    24949421.211
 117920572.013 7  91886235.058 7  22439536.242                    22439544.172
 122247110.028 7  95257546.018 6  23262851.195                    23262858.887
 110160583.932 8  85839532.323 7  20962837.148                    20962844.488
 114905890.193 8  89537099.450 7  21865858.016                    21865868.297
 113560406.230 8  88488694.456 7  21609827.383                    21609834.953
 116527425.841 7  90800731.37045  22174399.938                    22174405.293
 116376327.914 7  90682911.00845  22145677.539                    22145685.848
 11  8 24  2 35  0.0000000  0  9G26G21G12G15G05G25G29G02G30
 117868145.381 7  91845374.36545  22429554.844                    22429563.527
 131054417.684 6 102120401.04543  24938835.711                    24938843.590
 118005130.470 7  91952124.746 7  22455627.727                    22455635.008
 122151757.113 7  95183245.118 6  23244705.563                    23244714.563
 110218740.717 8  85884849.297 7  20973904.172                    20973910.633
 114943346.469 8  89566286.161 7  21872986.016                    21872995.363
 113488190.212 8  88432422.261 7  21596084.844                    21596091.824
 116570541.213 7  90834327.76545  22182604.609                    22182610.391
 116423058.361 8  90719324.33345  22154570.133                    22154578.543
 11  8 24  2 35 30.0000000  0  9G26G21G12G15G05G25G29G02G30
 117788144.246 7  91783035.85945  22414331.148                    22414339.320
 130998825.675 6 102077082.58443  24928257.047                    24928265.578
 118089920.660 7  92018194.994 7  22471762.656                    22471770.055
 122056478.641 7  95109002.239 6  23226574.766                    23226583.840
 110277261.186 8  85930449.666 7  20985040.414                    20985046.863
 114981285.087 8  89595848.714 7  21880205.070                    21880215.035
 113416194.191 8  88376321.493 7  21582384.664                    21582392.125
 116613744.462 7  90867992.63445  22190826.273                    22190831.301
 116470239.423 7  90756088.78545  22163548.047                    22163556.824
 11  8 24  2 36  0.0000000  0  9G26G21G12G15G05G25G29G02G30
 117708472.348 7  91720953.91845  22399170.242                    22399178.434
 130943224.087 6 102033756.75043  24917677.047                    24917685.133
 118174939.302 7  92084443.259 7  22487940.867                    22487948.766
 121961277.300 7  95034819.451 6  23208459.070                    23208467.664
 110336142.447 8  85976331.176 8  20996244.820                    20996251.832
 115019703.616 8  89625785.229 7  21887516.328                    21887526.707
 113344420.077 8  88320393.648 7  21568726.094                    21568733.445
 116657035.546 7  90901725.95745  22199064.156                    22199069.375
 116517868.323 7  90793202.19345  22172611.500                    22172620.277
 11  8 24  2 36 30.0000000  0  9G26G21G12G15G05G25G29G02G30
 117629133.758 7  91659131.69545  22384072.586                    22384080.723
 130887612.795 6 101990423.31943  24907093.500                    24907102.496
 118260184.132 7  92150867.775 7  22504162.727                    22504170.508
 121866156.445 7  94960699.372 6  23190358.398                    23190366.805
 110395383.295 8  86022492.857 7  21007517.961                    21007525.047
 115058600.692 8  89656094.627 7  21894917.969                    21894928.039
 113272871.172 8  88264641.286 7  21555111.188                    21555118.637
 116700415.544 8  90935528.55445  22207319.211                    22207324.563
 116565943.093 7  90830663.03545  22181759.672                    22181768.121
 11  8 24  2 37  0.0000000  0  9G26G21G12G15G05G25G29G02G30
 117550131.523 7  91597571.55344  22369038.648                    22369046.836
 130831990.630 6 101947081.43843  24896509.688                    24896517.449
 118345651.341 7  92217465.570 7  22520426.133                    22520433.816
 121771118.981 7  94886644.229 6  23172273.016                    23172281.188
 110454980.323 8  86068932.084 7  21018859.195                    21018866.121
 115097973.522 8  89686774.752 7  21902410.570                    21902420.176
 113201549.108 8  88209065.680 7  21541539.148                    21541546.629
 116743884.392 7  90969400.39345  22215591.172                    22215596.398
 116614460.650 7  90868468.91945  22190992.570                    22191000.848
 11  8 24  2 37 30.0000000  0  9G26G21G12G15G05G25G29G02G30
 117471469.396 7  91536276.44045  22354069.383                    22354077.902
 130776357.179 6 101903730.74643  24885922.461                    24885930.680
 118431338.020 7  92284234.379 7  22536732.273                    22536739.867
 121676167.835 7  94812656.358 6  23154204.195                    23154211.844
 110514931.036 8  86115646.915 7  21030267.227                    21030274.480
 115137819.995 8  89717823.945 7  21909992.711                    21910003.203
 113130456.229 8  88153668.677 7  21528010.633                    21528017.871
 116787442.194 7  91003341.51345  22223879.422                    22223885.418
 116663418.240 7  90906617.68645  22200308.836                    22200316.844
 11  8 24  2 38  0.0000000  0  9G26G21G12G15G05G25G29G02G30
 117393151.196 7  91475249.32045  22339166.672                    22339174.516
 130720712.253 6 101860371.13443  24875333.352                    24875342.316
 118517241.607 7  92351172.214 7  22553079.320                    22553086.707
 121581305.855 7  94738737.963 6  23136151.781                    23136160.535
 110575233.348 8  86162635.722 7  21041742.742                    21041749.367
 115178138.253 8  89749240.748 7  21917665.117                    21917675.457
 113059595.158 8  88098452.282 7  21514526.141                    21514533.348
 116831089.538 7  91037352.41345  22232185.461                    22232191.164
 116712813.549 7  90945107.55345  22209708.547                    22209716.988
 11  8 24  2 38 30.0000000  0  9G26G21G12G15G05G25G29G02G30
 117315180.550 7  91414493.02445  22324329.383                    22324337.676
 130665055.109 6 101817001.93543  24864742.625                    24864750.746
 118603358.691 7  92418276.410 7  22569466.922                    22569474.832
 121486536.821 7  94664892.038 6  23118118.352                    23118126.633
 110635884.771 8  86209896.555 7  21053284.453                    21053291.629
 115218925.951 8  89781023.365 7  21925426.938                    21925436.926
 112988968.251 8  88043418.355 7  21501085.711                    21501093.344
 116874826.522 7  91071433.18345  22240508.453                    22240513.926
 116762643.941 7  90983936.42345  22219190.914                    22219199.230
 11  8 24  2 39  0.0000000  0  9G26G21G12G15G05G25G29G02G30
 117237561.099 7  91354010.37145  22309557.938                    22309566.598
 130609385.084 6 101773622.71543  24854148.977                    24854156.785
 118689686.603 7  92485544.906 7  22585894.648                    22585902.160
 121391863.424 7  94591120.624 7  23100103.156                    23100111.570
 110696882.942 8  86257427.580 7  21064891.461                    21064898.645
 115260180.945 8  89813170.115 7  21933277.500                    21933287.145
 112918577.899 8  87988568.755 7  21487691.227                    21487698.551
 116918653.734 7  91105584.26945  22248848.383                    22248854.480
 116812906.599 7  91023102.12645  22228755.609                    22228763.480
 11  8 24  2 39 30.0000000  0  9G26G21G12G15G05G25G29G02G30
 117160296.375 7  91293804.14744  22294854.703                    22294863.918
 130553701.680 6 101730233.10743  24843552.641                    24843560.578
 118776221.599 7  92552974.745 7  22602361.594                    22602369.887
 121297288.694 7  94517426.106 7  23082106.164                    23082114.090
 110758225.373 8  86305226.863 7  21076564.813                    21076571.883
 115301901.003 8  89845679.228 7  21941216.250                    21941226.438
 112848426.582 8  87933905.412 7  21474341.828                    21474349.570
 116962571.315 7  91139805.72645  22257205.859                    22257211.539
 116863598.984 7  91062602.69045  22238402.234                    22238410.488
 11  8 24  2 40  0.0000000  0  9G26G21G12G15G05G25G29G02G30
 117083390.016 7  91233877.15044  22280220.406                    22280228.074
 130498004.426 6 101686832.70043  24832952.805                    24832961.859
 118862960.987 7  92620563.833 7  22618867.234                    22618876.102
 121202815.828 7  94443810.933 7  23064128.375                    23064136.898
 110819909.803 8  86353292.632 7  21088302.758                    21088309.969
 115344083.955 8  89878549.054 7  21949243.547                    21949253.492
 112778516.579 8  87879430.122 7  21461038.359                    21461046.176
 117006579.742 8  91174098.00745  22265580.602                    22265585.391
 116914718.543 7  91102436.10145  22248129.586                    22248138.262
 11  8 24  2 40 30.0000000  0  9G26G21G12G15G05G25G29G02G30
 117006845.547 7  91174232.13544  22265654.688                    22265662.684
 130442292.566 6 101643420.93643  24822351.992                    24822360.137
 118949901.558 7  92688309.709 7  22635411.813                    22635419.293
 121108447.924 7  94370277.528 6  23046170.664                    23046179.395
 110881933.445 8  86401622.728 7  21100105.328                    21100112.746
 115386727.379 8  89911777.703 7  21957358.383                    21957368.289
 112708850.273 8  87825144.714 7  21447781.180                    21447788.816
 117050679.423 8  91208461.39645  22273972.148                    22273977.496
 116966262.220 7  91142599.99245  22257938.086                    22257946.723
 11  8 24  2 41  0.0000000  0  9G26G21G12G15G05G25G29G02G30
 116930666.580 7  91114871.97145  22251158.297                    22251166.020
 130386565.931 6 101599997.64843  24811747.859                    24811756.035
 119037040.602 7  92756210.239 7  22651993.664                    22652001.363
 121014187.915 6  94296828.217 6  23028233.344                    23028241.488
 110944294.195 8  86450215.522 7  21111972.328                    21111979.719
 115429829.305 8  89945363.595 7  21965560.531                    21965570.547
 112639430.302 8  87771051.261 7  21434570.805                    21434579.207
 117094870.770 7  91242896.20045  22282381.055                    22282386.609
 117018227.643 7  91183092.50945  22267826.398                    22267835.289
 11  8 24  2 41 30.0000000  0  9G26G21G12G15G05G25G29G02G30
 116854856.794 7  91055799.45345  22236732.039                    22236740.004
 130330823.596 6 101556562.08343  24801140.750                    24801148.281
 119124374.827 7  92824262.844 7  22668612.367                    22668621.121
 120920038.971 7  94223465.479 6  23010317.078                    23010325.223
 111006989.526 8  86499069.010 7  21123902.883                    21123910.254
 115473387.217 8  89979304.814 7  21973849.133                    21973859.473
 112570258.593 8  87717151.253 7  21421408.313                    21421415.695
 117139154.021 7  91277402.59745  22290808.109                    22290813.898
 117070611.983 7  91223911.46145  22277795.086                    22277803.891
 11  8 24  2 42  0.0000000  0  9G26G21G12G15G05G25G29G02G30
 116779419.425 7  90997017.13345  22222376.656                    22222384.711
 130275064.942 6 101513113.81643  24790529.758                    24790538.164
 119211900.643 7  92892464.755 7  22685268.586                    22685276.316
 120826004.024 7  94150191.523 6  22992423.195                    22992431.020
 111070016.504 8  86548180.930 7  21135897.063                    21135903.586
 115517398.419 8  90013599.242 7  21982224.219                    21982234.484
 112501336.938 8  87663446.086 7  21408292.453                    21408300.270
 117183529.030 7  91311980.51945  22299252.781                    22299258.266
 117123411.960 7  91265054.30145  22287842.664                    22287851.105
 11  8 24  2 42 30.0000000  0  9G26G21G12G15G05G25G29G02G30
 116704358.348 7  90938528.02445  22208093.109                    22208101.266
 130219289.765 6 101469652.70643  24779915.766                    24779924.070
 119299615.707 7  92960814.135 7  22701960.383                    22701968.004
 120732086.219 7  94077008.836 6  22974551.578                    22974559.523
 111133373.228 8  86597549.804 7  21147952.758                    21147959.891
 115561861.111 8  90048245.466 7  21990685.531                    21990695.629
 112432668.774 8  87609938.458 7  21395225.453                    21395233.273
 117227996.748 7  91346630.67745  22307714.539                    22307720.391
 117176625.440 7  91306519.35345  22297968.844                    22297977.141
 11  8 24  2 43  0.0000000  0  9G26G21G12G15G05G25G29G02G30
 116629677.093 7  90880334.87345  22193881.680                    22193889.422
 130163497.299 6 101426178.08243  24769299.250                    24769307.469
 119387516.366 7  93029308.111 7  22718687.258                    22718694.863
 120638288.764 7  94003919.948 7  22956703.016                    22956710.707
 111197057.071 8  86647173.566 7  21160071.906                    21160078.563
 115606772.694 8  90083241.496 7  21999231.617                    21999241.664
 112364256.025 8  87556629.850 7  21382207.273                    21382214.648
 117272557.413 7  91381353.28545  22316194.102                    22316199.266
 117230249.411 7  91348304.26645  22308173.227                    22308181.406
 11  8 24  2 43 30.0000000  0 10G26G21G12G15G05G25G29G02G30G18
 116555378.858 7  90822440.19545  22179742.891                    22179751.590
 130107686.896 6 101382689.54643  24758678.078                    24758686.215
 119475599.552 7  93097944.315 7  22735448.930                    22735456.531
 120544614.461 7  93930927.070 7  22938876.484                    22938884.371
 111261065.108 8  86697049.963 7  21172252.289                    21172258.984
 115652130.619 8  90118585.334 7  22007863.031                    22007873.215
 112296100.916 8  87503521.995 7  21369237.656                    21369245.543
 117317211.134 7  91416148.40045  22324691.109                    22324696.645
 117284280.783 7  91390406.64445  22318455.477                    22318463.496
 129722038.96116 101082172.68052  24685290.148                    24685299.496
 11  8 24  2 44  0.0000000  0 10G26G21G12G15G05G25G29G02G30G18
 116481467.489 7  90764846.95545  22165678.070                    22165685.949
 130051858.177 6 101339186.66843  24748054.344                    24748061.980
 119563862.665 7  93166720.723 6  22752244.672                    22752252.406
 120451066.644 6  93858032.754 7  22921074.063                    22921083.066
 111325395.267 8  86747177.355 7  21184493.875                    21184500.590
 115697932.839 8  90154275.366 7  22016578.766                    22016588.672
 112228206.170 8  87450617.034 7  21356317.789                    21356325.102
 117361958.603 7  91451016.53645  22333206.516                    22333212.117
 117338717.216 7  91432824.63845  22328813.953                    22328821.855
 129632846.121 6 101012671.90742  24668317.078                    24668327.063
 11  8 24  2 44 30.0000000  0 10G26G21G12G15G05G25G29G02G30G18
 116407946.495 7  90707557.91745  22151687.500                    22151695.727
 129996010.874 6 101295669.34343  24737427.445                    24737435.145
 119652302.413 7  93235634.775 7  22769074.539                    22769082.234
 120357648.029 7  93785239.080 6  22903297.773                    22903306.414
 111390044.954 8  86797553.734 7  21196796.117                    21196803.168
 115744176.743 8  90190309.563 7  22025378.711                    22025388.957
 112160574.096 8  87397916.742 7  21343447.703                    21343455.195
 117406799.836 7  91485957.75645  22341739.531                    22341745.168
 117393555.634 7  91475555.86045  22339249.500                    22339257.938
 129543819.166 6 100943300.34142  24651375.422                    24651385.109
 11  8 24  2 45  0.0000000  0 10G26G21G12G15G05G25G29G02G30G18
 116334819.174 7  90650575.62745  22137771.555                    22137779.793
 129940144.085 6 101252136.81343  24726795.758                    24726803.527
 119740915.412 7  93304683.843 6  22785936.820                    22785944.637
 120264361.816 7  93712548.543 6  22885546.141                    22885553.996
 111455011.700 8  86848177.169 7  21209159.203                    21209165.953
 115790859.827 8  90226685.977 7  22034262.039                    22034272.781
 112093206.907 8  87345422.874 7  21330627.891                    21330635.352
 117451735.346 7  91520972.43245  22350290.195                    22350295.758
 117448793.100 7  91518598.05145  22349760.867                    22349768.938
 129454959.595 6 100874059.26842  24634466.555                    24634474.914
 11  8 24  2 45 30.0000000  0 10G26G21G12G15G05G25G29G02G30G18
 116262089.062 7  90593902.86045  22123931.742                    22123939.297
 129884257.510 6 101208588.91842  24716160.102                    24716168.832
 119829698.814 7  93373865.693 6  22802831.672                    22802839.879
 120171211.447 7  93639963.880 6  22867820.102                    22867828.285
 111520293.129 8  86899045.810 7  21221581.453                    21221588.203
 115837979.814 8  90263402.844 7  22043228.891                    22043239.523
 112026106.964 8  87293137.232 7  21317859.484                    21317866.895
 117496765.738 7  91556061.04345  22358859.203                    22358864.973
 117504426.982 7  91561949.13045  22360347.609                    22360355.656
 129366268.164 6 100804949.18643  24617588.586                    24617597.195
 11  8 24  2 46  0.0000000  0 10G26G21G12G15G05G25G29G02G30G18
 116189759.791 7  90537542.41545  22110167.672                    22110175.762
 129828350.494 6 101165025.12442  24705522.367                    24705530.168
 119918649.638 7  93443177.985 7  22819758.586                    22819766.145
 120078200.029 7  93567487.496 6  22850120.438                    22850128.883
 111585886.811 8  86950157.774 7  21234063.594                    21234070.664
 115885534.346 8  90300458.299 7  22052278.352                    22052288.340
 111959276.940 8  87241061.932 7  21305142.234                    21305149.652
 117541891.342 7  91591223.83045  22367446.414                    22367452.125
 117560454.464 7  91605606.88645  22371008.969                    22371017.551
 129277746.661 6 100735971.53643  24600743.781                    24600752.211
 11  8 24  2 46 30.0000000  0 10G26G21G12G15G05G25G29G02G30G18
 116117835.185 7  90481497.30745  22096480.922                    22096489.219
 129772422.705 6 101121445.05643  24694879.320                    24694887.117
 120007765.080 7  93512618.550 7  22836716.578                    22836724.109
 119985330.539 7  93495121.737 7  22832447.383                    22832456.832
 111651790.470 8  87001511.278 7  21246604.641                    21246611.984
 115933521.118 8  90337850.562 7  22061410.102                    22061420.285
 111892719.408 8  87189198.958 7  21292476.602                    21292483.730
 117587112.493 7  91626461.09045  22376052.023                    22376057.484
 117616872.842 7  91649569.24645  22381745.211                    22381753.984
 129189396.648 6 100667127.50142  24583931.109                    24583940.098
 11  8 24  2 47  0.0000000  0 10G26G21G12G15G05G25G29G02G30G18
 116046318.266 7  90425769.86445  22082872.281                    22082880.145
 129716473.632 6 101077848.44643  24684232.648                    24684240.328
 120097041.583 7  93582184.614 7  22853705.055                    22853713.852
 119892606.053 7  93422868.957 6  22814802.555                    22814811.676
 111718001.489 8  87053104.275 7  21259204.297                    21259211.398
 115981937.237 8  90375577.382 7  22070623.344                    22070633.336
 111826436.381 8  87137549.885 7  21279862.844                    21279870.734
 117632429.372 7  91661772.93245  22384675.734                    22384681.094
 117673678.892 7  91693833.68845  22392555.375                    22392563.461
 129101218.904 6 100598417.72643  24567150.961                    24567159.988
 11  8 24  2 47 30.0000000  0 10G26G21G12G15G05G25G29G02G30G18
 115975212.888 7  90370363.11545  22069340.984                    22069349.527
 129660502.313 6 101034234.48743  24673581.344                    24673588.992
 120186476.180 7  93651873.863 7  22870723.984                    22870732.578
 119800029.776 7  93350731.652 6  22797186.711                    22797194.066
 111784517.258 8  87104934.742 7  21271861.641                    21271868.727
 116030780.439 8  90413637.017 7  22079917.758                    22079927.754
 111760430.305 8  87086116.609 7  21267302.141                    21267310.066
 117677842.589 7  91697159.85445  22393317.313                    22393322.453
 117730869.893 7  91738398.07545  22403438.570                    22403446.230
 129013215.034 6 100529843.39843  24550404.453                    24550413.215
 11  8 24  2 48  0.0000000  0 10G26G21G12G15G05G25G29G02G30G18
 115904521.871 7  90315279.24145  22055888.883                    22055896.648
 129604508.581 6 100990603.11843  24662925.852                    24662933.832
 120276065.666 7  93721683.818 6  22887772.664                    22887780.867
 119707604.561 7  93278712.057 6  22779597.961                    22779606.164
 111851334.785 8  87157000.362 7  21284576.734                    21284583.652
 116080047.948 8  90452027.256 7  22089293.172                    22089303.156
 111694703.386 8  87034900.857 7  21254795.453                    21254802.875
 117723352.439 7  91732622.06345  22401977.547                    22401983.016
 117788442.681 7  91783259.95345  22414394.594                    22414402.758
 128925385.826 6 100461405.17043  24533690.828                    24533699.668
 11  8 24  2 48 30.0000000  0 10G26G21G12G15G05G25G29G02G30G18
 115834249.350 7  90260521.46445  22042516.406                    22042524.926
 129548492.067 6 100946953.97343  24652266.258                    24652274.453
 120365807.276 7  93791612.312 7  22904850.836                    22904858.125
 119615333.553 7  93206812.624 7  22762040.008                    22762047.695
 111918452.745 8  87209300.076 7  21297348.758                    21297355.863
 116129737.623 8  90490746.456 7  22098748.398                    22098758.523
 111629258.389 8  86983904.797 7  21242341.656                    21242348.730
 117768959.433 7  91768159.95845  22410656.039                    22410661.996
 117846394.732 7  91828417.37045  22425421.930                    22425430.664
 128837732.857 6 100393104.26643  24517010.859                    24517019.543
 11  8 24  2 49  0.0000000  0 10G26G21G12G15G05G25G29G02G30G18
 115764398.608 8  90206092.34945  22029224.023                    22029232.289
 129492451.905 6 100903286.42443  24641602.336                    24641610.539
 120455697.668 7  93861656.753 6  22921955.516                    22921963.313
 119523220.080 7  93135035.970 6  22744511.164                    22744519.324
 111985867.921 8  87261831.389 7  21310177.266                    21310184.504
 116179846.636 8  90529792.428 7  22108284.047                    22108294.168
 111564097.251 8  86933129.914 7  21229941.844                    21229949.586
 117814663.825 7  91803773.75645  22419353.102                    22419358.758
 117904722.884 7  91873867.86045  22436521.492                    22436529.340
 128750257.337 6 100324941.65343  24500364.523                    24500373.746
 11  8 24  2 49 30.0000000  0 10G26G21G12G15G05G25G29G02G30G18
 115694972.620 7  90151994.21145  22016013.023                    22016021.199
 129436387.757 6 100859600.16343  24630933.805                    24630941.305
 120545733.829 7  93931814.769 7  22939089.328                    22939096.969
 119431266.804 7  93063384.116 7  22727012.945                    22727020.855
 112053577.945 8  87314592.449 7  21323062.078                    21323068.957
 116230372.441 8  90569163.157 7  22117898.805                    22117908.578
 111499222.661 8  86882578.320 7  21217596.414                    21217603.852
 117860466.187 7  91839463.88245  22428069.031                    22428075.063
 117963424.169 7  91919609.09344  22447691.750                    22447700.043
 128662960.442 6 100256918.19943  24483752.328                    24483761.332
 11  8 24  2 50  0.0000000  0 10G26G21G12G15G05G25G29G02G30G18
 115625975.313 7  90098230.10745  22002882.711                    22002891.332
 129380299.422 6 100815895.02343  24620260.258                    24620267.680
 120635913.044 7  94002084.251 7  22956249.594                    22956257.742
 119339477.525 7  92991860.052 7  22709545.484                    22709553.672
 112121580.474 8  87367581.426 7  21336002.633                    21336009.996
 116281312.656 8  90608856.805 7  22127592.414                    22127602.734
 111434637.189 8  86832252.004 7  21205306.367                    21205313.746
 117906366.801 7  91875230.60245  22436804.109                    22436809.289
 118022495.888 7  91965638.99144  22458932.273                    22458941.145
 128575843.461 6 100189034.96242  24467173.938                    24467183.613
 11  8 24  2 50 30.0000000  0 10G26G21G12G15G05G25G29G02G30G18
 115557409.919 7  90044802.54945  21989835.266                    21989843.816
 129324186.143 6 100772170.44643  24609582.438                    24609589.813
 120726231.600 7  94072462.322 7  22973436.563                    22973444.797
 119247855.078 7  92920466.002 7  22692110.648                    22692119.199
 112189872.698 8  87420796.140 7  21348998.352                    21349005.090
 116332664.663 8  90648871.335 7  22137364.750                    22137374.637
 111370343.004 8  86782152.669 7  21193071.273                    21193079.020
 117952366.146 7  91911074.21645  22445557.742                    22445562.914
 118081934.978 7  92011955.14244  22470243.750                    22470251.883
 128488907.650 6 100121292.87043  24450631.422                    24450640.672
 11  8 24  2 51  0.0000000  0 10G26G21G12G15G05G25G29G02G30G18
 115489279.809 7  89991714.18645  21976870.797                    21976878.984
 129268047.350 6 100728426.01243  24598899.492                    24598906.883
 120816686.851 7  94142946.912 6  22990649.922                    22990657.141
 119156402.635 7  92849204.411 7  22674708.266                    22674715.906
 112258452.265 8  87474234.775 7  21362048.273                    21362055.281
 116384425.753 8  90689204.624 7  22147214.516                    22147224.707
 111306342.394 8  86732282.086 7  21180892.547                    21180899.996
 117998464.490 7  91946994.96445  22454329.727                    22454335.348
 118141738.438 7  92058555.19945  22481624.117                    22481632.246
 128402154.067 6 100053692.87343  24434121.641                    24434131.973
 11  8 24  2 51 30.0000000  0 10G26G21G12G15G05G25G29G02G30G18
 115421588.699 7  89938967.89645  21963989.813                    21963997.691
 129211882.684 6 100684661.41743  24588212.008                    24588219.395
 120907275.762 7  94213535.638 7  23007888.203                    23007896.063
 119065123.187 7  92778077.649 7  22657337.781                    22657346.059
 112327317.134 8  87527895.709 7  21375152.820                    21375160.223
 116436593.536 8  90729854.837 7  22157141.375                    22157151.785
 111242638.141 8  86682642.437 7  21168770.094                    21168777.387
 118044662.748 7  91982993.57545  22463121.094                    22463125.875
 118201903.498 7  92105437.04545  22493072.625                    22493081.047
 128315584.272 6  99986236.01042  24417648.508                    24417657.660
 11  8 24  2 52  0.0000000  0 10G26G21G12G15G05G25G29G02G30G18
 115354339.700 7  89886566.09945  21951192.500                    21951200.383
 129155691.633 6 100640876.24643  24577518.805                    24577526.590
 120997995.101 7  94284225.988 6  23025151.695                    23025159.637
 118974019.655 7  92707087.953 7  22640001.664                    22640009.324
 112396464.545 8  87581776.798 7  21388311.234                    21388318.492
 116489165.213 8  90770819.758 7  22167144.930                    22167155.934
 111179232.294 8  86633235.318 7  21156704.336                    21156711.922
 118090960.949 7  92019070.06045  22471931.039                    22471936.754
 118262426.869 7  92152598.08345  22504590.500                    22504599.027
 128229199.162 6  99918923.02043  24401210.180                    24401219.105
 11  8 24  2 52 30.0000000  0 10G26G21G12G15G05G25G29G02G30G18
 115287536.083 7  89834511.36145  21938480.055                    21938488.125
 129099473.811 6 100597070.24343  24566821.125                    24566828.621
 121088841.878 7  94355015.643 7  23042439.469                    23042447.289
 118883095.430 7  92636237.953 7  22622699.273                    22622706.988
 112465892.106 8  87635876.204 7  21401522.930                    21401530.262
 116542138.115 8  90812097.312 7  22177225.891                    22177236.215
 111116127.547 8  86584062.818 7  21144695.758                    21144703.117
 118137359.563 7  92055224.80645  22480760.180                    22480766.352
 118323305.751 7  92200036.14145  22516175.781                    22516184.117
 128142999.902 6  99851754.91243  24384806.750                    24384815.773
 11  8 24  2 53  0.0000000  0 10G26G21G12G15G05G25G29G02G30G18
 115221181.263 8  89782806.34345  21925853.328                    21925861.305
 129043228.632 6 100553242.88143  24556117.602                    24556125.469
 121179813.119 7  94425902.278 7  23059750.445                    23059758.430
 118792353.709 7  92565530.181 6  22605430.891                    22605439.488
 112535596.988 8  87690191.693 7  21414787.531                    21414794.145
 116595509.680 8  90853685.530 7  22187382.211                    22187392.289
 111053325.946 7  86535126.518 7  21132744.688                    21132752.348
 118183859.016 7  92091458.11245  22489609.258                    22489614.434
 118384537.076 7  92247748.82645  22527827.523                    22527835.688
 128056987.886 6  99784732.66542  24368438.547                    24368447.840
 11  8 24  2 53 30.0000000  0 10G26G21G12G15G05G25G29G02G30G18
 115155278.685 7  89731453.72045  21913312.031                    21913319.891
 128986955.591 6 100509393.83543  24545409.102                    24545417.469
 121270905.724 7  94496883.492 7  23077084.844                    23077093.793
 118701797.570 7  92494967.004 7  22588198.820                    22588206.953
 112605577.115 8  87744721.661 7  21428104.141                    21428111.180
 116649277.244 8  90895582.312 7  22197613.898                    22197624.465
 110990830.072 7  86486428.459 7  21120852.508                    21120859.793
 118230459.808 7  92127770.39145  22498476.969                    22498482.051
 118446117.969 7  92295733.89445  22539545.867                    22539554.449
 127971164.182 6  99717857.19642  24352107.141                    24352116.102
 11  8 24  2 54  0.0000000  0 10G26G21G12G15G05G25G29G02G30G18
 115089831.515 7  89680455.94845  21900858.203                    21900866.109
 128930654.194 6 100465522.68843  24534695.500                    24534703.547
 121362116.440 7  94567956.750 7  23094441.508                    23094450.234
 118611429.946 7  92424550.719 7  22571002.648                    22571010.750
 112675829.864 8  87799464.071 7  21441472.813                    21441479.895
 116703438.032 8  90937785.526 7  22207920.367                    22207930.707
 110928642.283 7  86437970.460 7  21109018.305                    21109025.387
 118277162.297 7  92164161.90645  22507364.086                    22507370.012
 118508045.267 7  92343988.91444  22551329.609                    22551339.102
 127885529.987 6  99651129.38542  24335811.539                    24335820.215
 11  8 24  2 54 30.0000000  0 10G26G21G12G15G05G25G29G02G30G18
 115024842.526 7  89629815.21245  21888491.281                    21888499.391
 128874323.885 6 100421629.01543  24523976.172                    24523984.031
 121453441.801 7  94639119.334 6  23111820.242                    23111828.574
 118521253.353 7  92354283.305 7  22553842.336                    22553851.031
 112746351.992 8  87854416.379 7  21454892.867                    21454899.773
 116757988.860 8  90980292.663 7  22218301.398                    22218311.711
 110866764.265 7  86389753.831 7  21097243.563                    21097250.375
 118323966.588 7  92200632.73045  22516270.719                    22516276.531
 118570315.440 7  92392511.09744  22563179.586                    22563188.168
 127800085.744 6  99584549.58143  24319552.266                    24319560.367
 11  8 24  2 55  0.0000000  0 10G26G21G12G15G05G25G29G02G30G18
 114960315.928 7  89579534.76545  21876212.172                    21876220.063
 128817964.510 6 100377712.66343  24513252.063                    24513259.078
 121544879.385 6  94710369.371 6  23129219.617                    23129227.844
 118431271.998 7  92284168.000 7  22536719.891                    22536728.176
 112817141.990 8  87909577.415 7  21468363.906                    21468370.676
 116812927.698 7  91023102.143 7  22228755.352                    22228765.516
 110805199.252 8  86341781.112 7  21085528.234                    21085535.164
 118370873.490 7  92237183.53745  22525197.258                    22525203.324
 118632926.093 7  92441298.60444  22575093.930                    22575101.711
 127714833.351 6  99518119.24343  24303329.813                    24303337.797
 11  8 24  2 55 30.0000000  0 10G26G21G12G15G05G25G29G02G30G18
 114896255.133 7  89529617.28445  21864021.766                    21864029.594
 128761575.690 6 100333773.39643  24502521.242                    24502527.992
 121636426.636 6  94781704.841 6  23146641.211                    23146648.309
 118341488.941 7  92214207.221 7  22519634.289                    22519642.699
 112888197.800 8  87964945.584 7  21481885.055                    21481892.137
 116868252.189 7  91066212.127 7  22239283.469                    22239293.848
 110743950.074 8  86294054.497 7  21073872.602                    21073880.004
 118417883.730 7  92273814.87145  22534142.992                    22534148.398
 118695874.578 7  92490349.35244  22587073.211                    22587080.680
 127629774.308 6  99451839.56343  24287142.672                    24287151.832
 11  8 24  2 56  0.0000000  0 10G26G21G12G15G05G25G29G02G30G18
 114832663.169 7  89480065.12445  21851920.383                    21851928.723
 128705156.818 6 100289810.69743  24491784.391                    24491792.125
 121728079.896 7  94853122.945 6  23164083.016                    23164089.238
 118251906.999 7  92144403.170 7  22502588.008                    22502596.043
 112959516.378 8  88020518.511 7  21495456.406                    21495463.262
 116923959.234 7  91109620.199 7  22249884.000                    22249894.586
 110683018.495 8  86246575.352 7  21062277.750                    21062285.012
 118464997.436 7  92310526.80345  22543108.617                    22543113.391
 118759157.443 7  92539660.68844  22599115.563                    22599123.387
 127544909.266 6  99385711.05343  24270993.023                    24271002.176
 11  8 24  2 56 30.0000000  0 10G26G21G12G15G05G25G29G02G30G18
 114769542.936 7  89430880.55645  21839909.273                    21839917.371
 128648707.189 6 100245824.02643  24481041.898                    24481050.406
 121819836.097 7  94924621.258 6  23181543.383                    23181550.504
 118162529.207 7  92074758.175 7  22485579.344                    22485587.824
 113031095.159 8  88076294.188 7  21509077.633                    21509084.504
 116980045.782 7  91153323.993 7  22260557.484                    22260568.070
 110622406.574 8  86199345.299 7  21050743.898                    21050751.020
 118512215.078 7  92347319.75645  22552093.352                    22552099.336
 118822771.298 7  92589229.94245  22611220.820                    22611228.691
 127460239.365 6  99319734.59843  24254880.852                    24254889.398
 11  8 24  2 57  0.0000000  0 10G26G21G12G15G05G25G29G02G30G18
 114706898.171 7  89382066.46645  21827988.000                    21827995.961
 128592226.801 6 100201813.41543  24470294.789                    24470302.414
 121911692.470 7  94996197.624 6  23199022.359                    23199030.648
 118073359.113 7  92005275.032 7  22468610.820                    22468618.191
 113102932.240 8  88132271.137 7  21522747.859                    21522754.742
 117036509.599 7  91197321.754 7  22271301.930                    22271312.434
 110562117.432 7  86152366.765 7  21039270.828                    21039278.516
 118559537.277 7  92384194.16445  22561098.656                    22561104.883
 118886713.693 7  92639055.18944  22623388.609                    22623396.563
 127375766.046 6  99253911.32843  24238805.883                    24238814.844
 11  8 24  2 57 30.0000000  0 10G26G21G12G15G05G25G29G02G30G18
 114644731.294 7  89333624.77545  21816158.242                    21816166.258
 128535714.985 6 100157778.33243  24459541.039                    24459548.297
 122003645.440 7  95067849.242 6  23216520.859                    23216529.539
 117984399.147 7  91935955.649 7  22451682.172                    22451689.852
 113175024.211 8  88188446.704 7  21536466.711                    21536473.117
 117093347.331 7  91241610.871 7  22282117.703                    22282128.359
 110502152.568 8  86105640.903 7  21027860.250                    21027867.211
 118606964.055 7  92421150.06045  22570123.711                    22570129.160
 118950980.897 7  92689133.52845  22635617.773                    22635626.793
 127291489.667 6  99188241.52843  24222768.711                    24222777.742
 11  8 24  2 58  0.0000000  0 10G26G21G12G15G05G25G29G02G30G18
 114583046.390 7  89285558.63545  21804420.336                    21804428.043
 128479171.655 6 100113718.66143  24448780.594                    24448788.594
 122095692.806 7  95139574.411 6  23234036.648                    23234045.230
 117895653.158 7  91866802.993 7  22434794.492                    22434801.977
 113247369.447 8  88244819.630 7  21550233.273                    21550240.367
 117150556.806 7  91286189.678 7  22293004.609                    22293014.754
 110442515.615 8  86059170.573 7  21016511.766                    21016518.863
 118654496.586 7  92458188.37845  22579169.102                    22579174.754
 119015570.451 7  92739463.04945  22647909.148                    22647917.145
 127207411.907 6  99122726.45343  24206769.367                    24206778.000
 11  8 24  2 58 30.0000000  0 10G26G21G12G15G05G25G29G02G30G18
 114521846.134 7  89237870.15145  21792774.344                    21792781.539
 128422595.827 6 100069633.62843  24438014.656                    24438022.293
 122187830.700 7  95211370.153 6  23251570.094                    23251578.402
 117807123.647 7  91797819.003 7  22417947.844                    22417956.004
 113319965.003 8  88301387.597 7  21564047.508                    21564054.609
 117208134.790 7  91331055.636 7  22303961.414                    22303970.746
 110383207.750 8  86012956.655 7  21005225.578                    21005232.891
 118702134.750 7  92495308.98845  22588234.430                    22588239.945
 119080478.852 7  92790040.98545  22660260.023                    22660268.980
 127123533.748 6  99057366.93443  24190807.672                    24190816.379
 11  8 24  2 59  0.0000000  0 10G26G21G12G15G05G25G29G02G30G18
 114461133.693 7  89190561.78845  21781220.703                    21781228.504
 128365987.296 6 100025523.15943  24427242.578                    24427250.043
 122280056.755 7  95283234.546 6  23269119.836                    23269127.891
 117718813.920 7  91729006.265 7  22401143.680                    22401151.316
 113392808.388 8  88358148.673 7  21577909.297                    21577916.180
 117266078.485 7  91376206.551 7  22314987.422                    22314997.328
 110324231.563 8  85967001.213 7  20994002.656                    20994010.445
 118749878.968 7  92532512.23545  22597319.789                    22597325.902
 119145702.907 7  92840864.90445  22672671.828                    22672680.836
 127039856.050 6  98992163.59843  24174884.055                    24174892.387
 11  8 24  2 59 30.0000000  0 10G26G21G12G15G05G25G29G02G30G18
 114400912.827 7  89143636.46545  21769761.039                    21769768.641
 128309345.870 6  99981387.07643  24416462.977                    24416470.461
 122372367.438 6  95355164.894 6  23286685.742                    23286694.254
 117630727.469 7  91660367.498 7  22384381.055                    22384388.844
 113465897.539 8  88415101.274 7  21591817.398                    21591824.719
 117324385.466 7  91421640.573 7  22326082.961                    22326092.660
 110265589.970 8  85921306.495 7  20982843.563                    20982850.754
 118797730.143 7  92569798.85345  22606425.328                    22606430.512
 119211239.968 7  92891932.74644  22685143.398                    22685152.387
 126956380.280 6  98927117.65643  24158999.750                    24159007.914
 11  8 24  3  0  0.0000000  0 10G26G21G12G15G05G25G29G02G30G18
 114341186.422 7  89097096.43445  21758395.727                    21758403.414
 128252670.848 6  99937224.78243  24405679.219                    24405686.230
 122464760.076 7  95427159.100 6  23304267.789                    23304276.078
 117542867.214 7  91591905.023 7  22367661.422                    22367669.125
 113539230.151 8  88472243.575 7  21605772.531                    21605778.883
 117383052.902 7  91467355.452 7  22337246.766                    22337257.082
 110207285.110 8  85875874.156 8  20971748.391                    20971756.141
 118845688.567 7  92607169.03945  22615551.539                    22615556.695
 119277086.883 7  92943242.01444  22697673.750                    22697681.980
 126873107.506 6  98862229.85043  24143153.109                    24143162.023
 11  8 24  3  0 30.0000000  0 10G26G21G12G15G05G25G29G02G30G18
 114281957.210 7  89050943.82145  21747124.484                    21747132.535
 128195961.973 6  99893036.07843  24394887.688                    24394894.777
 122557231.411 7  95499214.637 6  23321864.469                    23321872.773
 117455236.126 7  91523621.113 7  22350985.883                    22350993.492
 113612803.511 8  88529573.467 7  21619772.805                    21619780.258
 117442077.680 7  91513348.766 7  22348478.664                    22348489.250
 110149318.990 8  85830705.780 7  20960717.797                    20960725.406
 118893754.531 7  92644622.98645  22624697.898                    22624704.313
 119343240.245 7  92994790.08344  22710262.641                    22710270.707
 126790038.367 6  98797500.72743  24127345.086                    24127354.234
 11  8 24  3  1  0.0000000  0 10G26G21G12G15G05G25G29G02G30G18
 114223228.792 7  89005181.44345  21735949.203                    21735956.762
 128139218.835 6  99848820.65943  24384089.734                    24384096.637
 122649778.613 7  95571329.275 6  23339476.211                    23339484.215
 117367837.357 7  91455518.226 7  22334354.383                    22334362.148
 113686615.173 8  88587089.038 7  21633818.305                    21633825.543
 117501457.124 7  91559618.418 7  22359778.688                    22359789.277
 110091694.415 8  85785803.533 7  20949752.484                    20949759.453
 118941928.706 7  92682161.24444  22633865.242                    22633871.152
 119409697.087 7  93046574.62444  22722909.078                    22722916.906
 126707174.127 6  98732931.29843  24111576.977                    24111585.926
 11  8 24  3  1 30.0000000  0 10G26G21G12G15G05G25G29G02G30G18
 114165003.718 7  88959811.28745  21724869.273                    21724877.125
 128082440.740 6  99804578.07143  24373284.977                    24373292.223
 122742398.193 7  95643500.335 6  23357101.047                    23357109.008
 117280673.705 7  91387598.538 7  22317767.281                    22317775.465
 113760662.326 8  88644788.112 7  21647909.461                    21647916.496
 117561188.000 7  91606161.924 7  22371145.211                    22371155.566
 110034413.216 8  85741168.856 7  20938852.422                    20938859.238
 118990211.379 7  92719784.10045  22643053.766                    22643058.742
 119476453.935 7  93098592.93644  22735612.250                    22735620.840
 126624515.684 6  98668522.22243  24095847.242                    24095855.969
 11  8 24  3  2  0.0000000  0 10G26G21G12G15G05G25G29G02G30G18
 114107285.899 7  88914836.40645  21713885.414                    21713893.563
 128025627.873 6  99760308.39643  24362473.633                    24362480.945
 122835088.171 7  95715726.245 6  23374739.891                    23374746.957
 117193749.044 7  91319865.092 7  22301226.281                    22301234.109
 113834943.318 8  88702669.410 7  21662044.992                    21662051.695
 117621268.153 7  91652977.595 7  22382578.234                    22382588.477
 109977478.650 8  85696804.275 7  20928017.484                    20928025.133
 119038603.295 7  92757492.03844  22652261.703                    22652267.938
 119543508.414 7  93150843.17444  22748372.078                    22748380.586
 126542064.525 6  98604274.65643  24080157.258                    24080166.020
 11  8 24  3  2 30.0000000  0 10G26G21G12G15G05G25G29G02G30G18
 114050077.848 7  88870258.72345  21702998.969                    21703007.098
 127968779.545 6  99716011.05343  24351655.625                    24351662.211
 122927845.028 7  95788004.279 6  23392390.180                    23392398.246
 117107066.178 7  91252320.063 7  22284731.164                    22284738.164
 113909455.262 8  88760730.647 7  21676223.758                    21676230.789
 117681694.428 7  91700062.968 7  22394076.883                    22394087.176
 109920892.621 8  85652711.296 7  20917250.016                    20917257.297
 119087104.750 7  92795285.31045  22661491.828                    22661497.539
 119610857.018 7  93203322.58444  22761188.031                    22761196.676
 126459821.598 7  98540189.33643  24064507.195                    24064515.477
 11  8 24  3  3  0.0000000  0 10G26G21G12G15G05G25G29G02G30G18
 113993382.375 7  88826080.46845  21692210.695                    21692218.531
 127911895.315 6  99671685.71343  24340830.500                    24340838.117
 123020665.128 7  95860331.575 6  23410053.977                    23410061.883
 117020627.303 7  91184965.149 7  22268282.047                    22268289.852
 113984195.595 8  88818969.871 7  21690446.383                    21690453.148
 117742463.618 7  91747415.568 7  22405640.813                    22405651.406
 109864656.793 8  85608891.205 7  20906548.430                    20906555.773
 119135715.841 7  92833164.08145  22670742.227                    22670747.426
 119678496.260 7  93256028.45644  22774059.727                    22774067.957
 126377787.453 6  98476266.73843  24048896.922                    24048905.066
 11  8 24  3  3 30.0000000  0 10G26G21G12G15G05G25G29G02G30G18
 113937202.802 7  88782304.20145  21681520.133                    21681527.977
 127854975.008 6  99627332.24943  24329999.602                    24330006.965
 123113546.104 6  95932706.318 6  23427728.141                    23427736.359
 116934436.864 7  91117803.819 7  22251880.688                    22251888.918
 114059162.098 8  88877385.328 7  21704712.063                    21704718.949
 117803573.120 7  91795033.349 7  22417269.320                    22417279.430
 109808774.085 7  85565346.272 7  20895914.141                    20895921.805
 119184437.592 7  92871129.00944  22680013.734                    22680019.613
 119746423.372 7  93308958.63845  22786986.219                    22786993.836
 126295962.897 6  98412507.43843  24033325.672                    24033334.359
 11  8 24  3  4  0.0000000  0 10G26G21G12G15G05G25G29G02G30G18
 113881542.380 7  88738932.48245  21670927.922                    21670936.016
 127798017.832 6  99582950.08143  24319160.953                    24319167.988
 123206485.085 6  96005126.247 6  23445413.438                    23445422.168
 116848497.440 7  91050838.081 7  22235526.789                    22235535.266
 114134352.516 8  88935975.264 7  21719020.445                    21719027.320
 117865020.135 7  91842914.106 7  22428962.117                    22428971.973
 109753246.965 8  85522078.408 7  20885348.016                    20885354.637
 119233270.700 7  92909180.75045  22689306.422                    22689311.723
 119814635.130 7  93362110.63445  22799966.500                    22799974.004
 126214349.313 7  98348912.52543  24017795.672                    24017803.707
 11  8 24  3  4 30.0000000  0 10G26G21G12G15G05G25G29G02G30G18
 113826403.812 7  88695967.39145  21660435.273                    21660443.324
 127741023.596 6  99538539.05443  24308314.922                    24308322.254
 123299479.270 6  96077589.196 6  23463109.984                    23463118.645
 116762812.103 7  90984070.323 7  22219221.727                    22219229.738
 114209764.396 8  88994737.759 7  21733370.945                    21733377.641
 117926801.831 7  91891055.664 7  22440718.539                    22440728.676
 109698077.684 8  85479089.387 7  20874849.359                    20874856.621
 119282215.252 7  92947319.33644  22698620.414                    22698625.621
 119883128.605 7  93415482.15544  22813000.125                    22813007.957
 126132947.892 6  98285482.92843  24002304.266                    24002313.398
 11  8 24  3  5  0.0000000  0 10G26G21G12G15G05G25G29G02G30G18
 113771790.215 7  88653411.36645  21650042.766                    21650050.809
 127683992.178 6  99494099.05443  24297462.828                    24297469.133
 123392525.266 6  96150092.516 6  23480816.383                    23480824.363
 116677383.880 7  90917502.931 7  22202965.336                    22202972.984
 114285395.166 8  89053670.819 7  21747763.055                    21747769.633
 117988915.096 7  91939455.594 7  22452538.633                    22452548.797
 109643268.498 8  85436380.946 7  20864419.609                    20864426.523
 119331271.688 7  92985545.10944  22707955.164                    22707961.473
 119951900.365 7  93469070.52044  22826087.016                    22826095.152
 126051759.754 6  98222219.52143  23986855.656                    23986863.352
 11  8 24  3  5 30.0000000  0 10G26G21G12G15G05G25G29G02G30G18
 113717704.768 7  88611266.88745  21639750.492                    21639758.547
 127626923.333 6  99449629.86843  24286602.180                    24286609.488
 123485620.109 7  96222633.888 6  23498531.836                    23498539.641
 116592216.082 7  90851138.460 7  22186758.219                    22186765.762
 114361242.723 8  89112772.816 7  21762196.258                    21762202.730
 118051357.283 7  91988111.830 7  22464421.422                    22464431.473
 109588822.203 8  85393955.285 8  20854058.594                    20854065.941
 119380440.823 7  93023858.70045  22717312.297                    22717317.770
 120020947.596 7  93522873.54244  22839226.273                    22839234.918
 125970785.719 6  98159122.95243  23971446.406                    23971454.020
 11  8 24  3  6  0.0000000  0 10G26G21G12G15G05G25G29G02G30G18
 113664150.466 7  88569536.29845  21629559.227                    21629567.641
 127569816.659 6  99405131.21343  24275735.133                    24275742.488
 123578761.083 6  96295211.222 6  23516255.906                    23516263.707
 116507312.202 7  90784979.637 7  22170601.602                    22170609.340
 114437304.760 8  89172041.921 7  21776670.594                    21776677.348
 118114125.568 7  92037022.167 7  22476365.781                    22476376.473
 109534740.860 8  85351813.999 7  20843767.531                    20843774.902
 119429723.150 7  93062260.47644  22726690.047                    22726696.125
 120090267.188 7  93576888.76444  22852417.563                    22852425.699
 125890026.504 6  98096193.77843  23956077.914                    23956086.289
 11  8 24  3  6 30.0000000  0 10G26G21G12G15G05G25G29G02G30G18
 113611129.715 7  88528221.44045  21619470.320                    21619478.059
 127512671.512 6  99360602.54743  24264861.313                    24264869.012
 123671945.031 7  96367822.043 6  23533988.727                    23533996.180
 116422674.682 7  90719028.383 7  22154495.594                    22154503.164
 114513578.465 8  89231475.977 7  21791184.852                    21791191.617
 118177216.544 7  92086183.943 7  22488371.578                    22488382.004
 109481026.286 8  85309958.505 7  20833545.875                    20833553.422
 119479118.871 7  93100750.65644  22736089.469                    22736094.832
 120159855.462 7  93631113.34844  22865659.547                    22865667.152
 125809483.010 6  98033432.71543  23940751.672                    23940760.035
 11  8 24  3  7  0.0000000  0 10G26G21G12G15G05G25G29G02G30G18
 113558645.563 7  88487324.73045  21609482.578                    21609490.551
 127455487.734 6  99316043.85043  24253979.313                    24253987.004
 123765168.974 6  96440464.025 6  23551728.281                    23551736.293
 116338306.635 7  90653287.090 7  22138440.508                    22138448.156
 114590061.824 8  89291073.395 7  21805739.148                    21805745.793
 118240627.521 7  92135595.058 7  22500438.453                    22500449.168
 109427681.261 8  85268390.977 7  20823394.656                    20823401.742
 119528628.548 7  93139329.59645  22745511.203                    22745516.422
 120229709.566 7  93685545.09044  22878952.266                    22878960.469
 125729156.249 6  97970840.52543  23925465.539                    23925474.172
 11  8 24  3  7 30.0000000  0 10G26G21G12G15G05G25G29G02G30G18
 113506701.088 7  88446848.55245  21599598.227                    21599605.973
 127398264.927 6  99271454.75043  24243089.961                    24243097.352
 123858429.978 6  96513134.890 6  23569475.172                    23569483.371
 116254211.214 7  90587758.223 7  22122437.773                    22122445.512
 114666751.922 8  89350831.925 7  21820333.094                    21820339.531
 118304355.370 7  92185253.091 7  22512565.625                    22512576.082
 109374707.755 8  85227112.940 7  20813314.195                    20813321.789
 119578252.689 7  93177997.74544  22754954.016                    22754960.199
 120299826.066 7  93740181.28045  22892295.359                    22892303.801
 125649047.058 6  97908417.83843  23910220.969                    23910228.613
 11  8 24  3  8  0.0000000  0 10G26G21G12G15G05G25G29G02G30G18
 113455298.688 8  88406794.77345  21589816.617                    21589824.289
 127341002.502 6  99226834.77543  24232193.422                    24232200.898
 123951725.398 6  96585832.559 6  23587228.844                    23587237.359
 116170391.231 7  90522444.010 7  22106487.586                    22106494.801
 114743646.518 8  89410749.801 7  21834965.328                    21834972.117
 118368397.145 7  92235155.750 7  22524751.781                    22524762.637
 109322108.038 8  85186126.173 8  20803304.906                    20803311.664
 119627991.740 7  93216755.43144  22764419.094                    22764424.602
 120370201.844 7  93795019.52444  22905686.914                    22905695.809
 125569156.297 6  97846165.40443  23895018.094                    23895025.973
 11  8 24  3  8 30.0000000  0 10G26G21G12G15G05G25G29G02G30G18
 113404442.047 8  88367166.24745  21580138.789                    21580146.188
 127283700.583 6  99182183.97143  24221289.500                    24221296.617
 124045051.977 7  96658554.529 6  23604988.258                    23604996.332
 116086850.316 7  90457347.226 7  22090590.344                    22090597.852
 114820743.802 8  89470825.597 7  21849636.039                    21849643.230
 118432750.281 7  92285301.028 7  22536997.883                    22537008.449
 109269885.003 8  85145432.916 7  20793367.094                    20793374.504
 119677846.475 7  93255603.30244  22773905.727                    22773911.770
 120440834.036 7  93850057.56744  22919127.750                    22919136.488
 125489485.353 7  97784084.16443  23879857.820                    23879864.625
 11  8 24  3  9  0.0000000  0 10G26G21G12G15G05G25G29G02G30G18
 113354133.436 7  88327964.77845  21570565.031                    21570572.691
 127226358.689 6  99137502.05843  24210377.336                    24210384.867
 124138406.758 7  96731298.460 6  23622753.563                    23622760.918
 116003591.243 7  90392470.072 7  22074746.516                    22074754.461
 114898041.182 8  89531057.328 7  21864345.500                    21864352.762
 118497411.613 7  92335686.455 7  22549302.703                    22549312.977
 109218040.856 8  85105034.908 7  20783501.859                    20783508.914
 119727817.389 7  93294541.65944  22783415.141                    22783420.441
 120511719.455 7  93905292.93844  22932617.266                    22932625.492
 125410034.864 6  97722174.77743  23864738.828                    23864746.551
 11  8 24  3  9 30.0000000  0 10G26G21G12G15G05G25G29G02G30G18
 113304375.888 8  88289192.69545  21561096.555                    21561104.426
 127168976.665 6  99092788.85043  24199457.188                    24199465.266
 124231787.026 6  96804062.274 6  23640522.852                    23640531.473
 115920617.283 7  90327815.082 7  22058956.680                    22058965.184
 114975536.020 8  89591442.926 7  21879092.711                    21879099.340
 118562378.142 7  92386309.717 7  22561665.477                    22561675.586
 109166577.436 8  85064933.562 7  20773708.102                    20773715.289
 119777904.572 7  93333570.58044  22792947.063                    22792952.727
 120582854.657 7  93960722.93044  22946154.039                    22946161.922
 125330805.530 7  97660437.69943  23849661.445                    23849669.629
 11  8 24  3 10  0.0000000  0 10G26G21G12G15G05G25G29G02G30G18
 113255171.829 8  88250851.90745  21551733.258                    21551741.422
 127111553.963 6  99048043.96543  24188530.078                    24188537.992
 124325189.901 7  96876843.680 6  23658296.641                    23658304.918
 115837931.052 7  90263384.290 7  22043222.867                    22043230.238
 115053225.991 8  89651980.564 7  21893876.586                    21893883.363
 118627646.719 7  92437168.326 7  22574086.148                    22574096.016
 109115497.031 8  85025130.668 7  20763988.016                    20763994.734
 119828108.529 7  93372690.54944  22802499.938                    22802505.871
 120654236.428 7  94016345.07644  22959737.570                    22959745.707
 125251798.505 7  97598873.86143  23834627.039                    23834635.246
 11  8 24  3 10 30.0000000  0 10G26G21G12G15G05G25G29G02G30G18
 113206524.303 8  88212944.76945  21542475.688                    21542484.105
 127054090.320 6  99003267.16543  24177595.586                    24177602.656
 124418612.241 7  96949640.256 6  23676074.922                    23676082.738
 115755536.275 7  90199180.617 7  22027543.203                    22027550.441
 115131109.045 8  89712668.658 7  21908696.875                    21908703.652
 118693214.524 7  92488260.111 7  22586562.867                    22586573.094
 109064802.024 8  84985628.079 7  20754340.828                    20754348.133
 119878430.011 7  93411902.06744  22812075.711                    22812081.426
 120725861.788 7  94072157.03144  22973366.781                    22973374.918
 125173014.650 6  97537483.90044  23819634.695                    23819643.465
 11  8 24  3 11  0.0000000  0 10G26G21G12G15G05G25G29G02G30G18
 113158436.032 8  88175473.41645  21533325.047                    21533332.672
 126996585.538 7  98958458.31544  24166653.164                    24166660.840
 124512051.374 7  97022449.925 6  23693855.391                    23693863.863
 115673435.799 7  90135206.275 7  22011919.734                    22011927.313
 115209182.992 8  89773505.516 7  21923554.000                    21923560.867
 118759078.823 7  92539582.924 7  22599096.383                    22599106.746
 109014495.149 8  84946427.933 8  20744767.492                    20744775.125
 119928869.766 7  93451205.75144  22821674.703                    22821680.953
 120797727.650 7  94128156.37244  22987042.266                    22987051.234
 125094455.073 7  97476268.75743  23804685.805                    23804694.094
 11  8 24  3 11 30.0000000  0 10G26G21G12G15G05G25G29G02G30G18
 113110909.577 7  88138439.87145  21524280.844                    21524288.949
 126939039.284 6  98913617.14444  24155701.594                    24155709.531
 124605504.021 6  97095270.115 6  23711639.344                    23711647.824
 115591632.207 7  90071463.261 7  21996352.789                    21996360.531
 115287444.940 8  89834488.844 7  21938446.461                    21938453.637
 118825236.081 7  92591134.005 7  22611685.648                    22611696.051
 108964577.936 7  84907531.433 8  20735268.500                    20735275.973
 119979427.875 7  93490601.68944  22831295.563                    22831301.145
 120869830.450 7  94184340.35144  23000762.938                    23000772.152
 125016119.956 6  97415228.47343  23789778.563                    23789787.082
 11  8 24  3 12  0.0000000  0 10G26G21G12G15G05G25G29G02G30G18
 113063947.451 8  88101846.03245  21515344.305                    21515352.414
 126881451.250 7  98868743.38943  24144743.719                    24144751.168
 124698967.372 7  97168098.644 6  23729424.117                    23729433.063
 115510128.681 7  90007954.065 7  21980843.563                    21980850.688
 115365892.384 8  89895616.713 7  21953374.852                    21953381.957
 118891683.418 7  92642911.110 7  22624330.117                    22624340.680
 108915052.549 8  84868940.238 7  20725844.625                    20725851.402
 120030104.848 7  93530090.19044  22840939.164                    22840944.523
 120942166.940 7  94240706.43844  23014528.328                    23014536.734
 124938010.279 6  97354363.86943  23774914.578                    23774922.965
 11  8 24  3 12 30.0000000  0 10G26G21G12G15G05G25G29G02G30G18
 113017553.118 8  88065694.65145  21506516.078                    21506523.961
 126823821.483 7  98823837.13943  24133776.648                    24133783.813
 124792439.003 7  97240933.609 6  23747211.945                    23747220.090
 115428928.623 7  89944681.341 7  21965391.234                    21965398.559
 115444523.851 8  89956887.987 7  21968337.703                    21968344.879
 118958418.316 7  92694912.305 7  22637029.344                    22637039.914
 108865922.079 8  84830656.757 7  20716495.422                    20716502.387
 120080901.432 7  93569671.93444  22850605.719                    22850611.230
 121014734.537 7  94297252.57544  23028337.961                    23028345.949
 124860127.232 7  97293675.85743  23760094.859                    23760101.840
 11  8 24  3 13  0.0000000  0 10G26G21G12G15G05G25G29G02G30G18
 112971728.712 8  88029987.36445  21497795.914                    21497803.586
 126766149.316 6  98778897.84544  24122801.523                    24122809.461
 124885915.805 7  97313772.597 6  23764999.797                    23765007.688
 115348034.902 7  89881647.331 7  21949997.734                    21950005.375
 115523336.738 8  90018300.639 7  21983335.266                    21983341.688
 119025437.407 7  92747134.943 7  22649782.906                    22649793.461
 108817188.297 8  84792682.398 8  20707221.703                    20707229.137
 120131818.091 7  93609347.22144  22860294.375                    22860300.273
 121087529.670 7  94353976.01744  23042190.547                    23042198.508
 124782471.447 6  97233164.91143  23745316.719                    23745323.977
 11  8 24  3 13 30.0000000  0 10G26G21G12G15G05G25G29G02G30G18
 112926476.528 7  87994725.97245  21489184.227                    21489192.285
 126708434.390 7  98733925.21644  24111819.133                    24111826.445
 124979395.069 7  97386613.495 6  23782788.445                    23782796.574
 115267450.608 7  89818854.417 7  21934663.352                    21934671.137
 115602328.654 8  90079852.786 7  21998366.961                    21998374.086
 119092737.595 7  92799576.625 7  22662589.648                    22662600.070
 108768853.421 8  84755018.861 8  20698023.688                    20698030.645
 120182855.230 7  93649116.38944  22870006.484                    22870011.980
 121160549.030 7  94410874.21144  23056085.453                    23056094.211
 124705043.737 7  97172831.68743  23730583.016                    23730590.762
 11  8 24  3 14  0.0000000  0 10G26G21G12G15G05G25G29G02G30G18
 112881799.680 7  87959912.87945  21480682.383                    21480690.648
 126650676.643 7  98688919.19744  24100828.906                    24100835.563
 125072873.454 7  97459453.729 6  23800576.797                    23800584.836
 115187178.707 7  89756304.927 7  21919388.102                    21919395.445
 115681497.103 7  90141542.485 7  22013432.227                    22013439.297
 119160315.971 7  92852235.069 7  22675449.070                    22675459.848
 108720919.752 8  84717667.975 8  20688902.070                    20688909.688
 120234013.617 7  93688980.07244  22879741.539                    22879747.086
 121233789.513 7  94467944.70044  23070022.367                    23070031.426
 124627845.009 7  97112676.87743  23715892.617                    23715900.148
 11  8 24  3 14 30.0000000  0 10G26G21G12G15G05G25G29G02G30G18
 112837700.464 7  87925549.91245  21472291.148                    21472298.500
 126592875.953 6  98643879.71944  24089828.906                    24089836.570
 125166348.121 7  97532291.064 6  23818364.188                    23818372.977
 115107222.141 7  89694001.166 7  21904172.391                    21904180.098
 115760839.673 7  90203367.836 7  22028530.523                    22028537.348
 119228169.359 7  92905107.825 7  22688361.531                    22688372.098
 108673389.241 8  84680631.224 8  20679857.188                    20679864.512
 120285293.405 7  93728938.32544  22889499.930                    22889505.813
 121307247.823 7  94525184.91944  23084001.086                    23084010.391
 124550876.048 7  97052701.07543  23701245.836                    23701253.723
 11  8 24  3 15  0.0000000  0 10G26G21G12G15G05G25G29G02G30G18
 112794181.353 8  87891638.95445  21464009.508                    21464016.957
 126535031.768 6  98598806.40144  24078821.422                    24078829.004
 125259816.066 7  97605123.167 6  23836150.961                    23836159.195
 115027583.626 7  89631945.231 7  21889018.164                    21889025.211
 115840354.362 7  90265327.330 7  22043661.898                    22043668.633
 119296294.698 7  92958192.462 7  22701325.188                    22701335.824
 108626264.243 8  84643910.447 8  20670889.914                    20670896.711
 120336695.270 7  93768991.70344  22899281.227                    22899286.852
 121380920.685 7  94582592.32944  23098020.836                    23098029.207
 124474137.738 6  96992905.03143  23686642.875                    23686650.598
